Time,TemperatureF,DewpointF,PressureIn,WindDirection,WindDirectionDegrees,WindSpeedMPH,WindSpeedGustMPH,Humidity,HourlyPrecipIn,Conditions,Clouds,dailyrainin,SoftwareType,DateUTC
2013-01-24 00:00:00,12.4,6.0,26.52,WSW,248,8.1,12.3,75,0.00,,---,0.00,VWS V14.01,2013-01-24 07:00:00,
2013-01-24 00:01:00,12.4,6.0,26.52,SE,135,12.5,12.5,75,0.00,,---,0.00,VWS V14.01,2013-01-24 07:01:00,
2013-01-24 00:02:00,12.6,6.2,26.52,SE,135,3.8,3.8,75,0.00,,---,0.00,VWS V14.01,2013-01-24 07:02:00,
2013-01-24 00:03:00,12.4,6.0,26.52,SSE,158,11.9,11.9,75,0.00,,---,0.00,VWS V14.01,2013-01-24 07:03:00,
2013-01-24 00:04:00,12.6,6.2,26.52,SE,135,10.7,11.9,75,0.00,,---,0.00,VWS V14.01,2013-01-24 07:04:00,
2013-01-24 00:05:00,12.6,6.2,26.52,ESE,112,9.6,10.7,75,0.00,,---,0.00,VWS V14.01,2013-01-24 07:05:00,
2013-01-24 00:06:00,12.6,6.2,26.52,SE,135,3.8,9.6,75,0.00,,---,0.00,VWS V14.01,2013-01-24 07:06:00,
2013-01-24 00:07:00,12.6,6.2,26.52,ESE,112,8.5,8.5,75,0.00,,---,0.00,VWS V14.01,2013-01-24 07:07:00,
2013-01-24 00:08:00,12.6,6.2,26.52,East,90,4.0,4.0,75,0.00,,---,0.00,VWS V14.01,2013-01-24 07:08:00,
2013-01-24 00:09:00,12.6,6.2,26.52,SE,135,5.6,7.6,75,0.00,,---,0.00,VWS V14.01,2013-01-24 07:09:00,
2013-01-24 00:10:00,12.6,6.2,26.52,South,180,8.1,8.1,75,0.00,,---,0.00,VWS V14.01,2013-01-24 07:10:00,
2013-01-24 00:11:00,12.6,6.2,26.52,SSW,202,3.1,8.1,75,0.00,,---,0.00,VWS V14.01,2013-01-24 07:11:00,
2013-01-24 00:12:00,12.6,6.2,26.52,South,180,9.6,9.6,75,0.00,,---,0.00,VWS V14.01,2013-01-24 07:12:00,
2013-01-24 00:13:00,12.6,6.2,26.52,ESE,112,8.5,8.5,75,0.00,,---,0.00,VWS V14.01,2013-01-24 07:13:00,
2013-01-24 00:14:00,12.6,6.2,26.52,ESE,112,8.7,8.7,75,0.00,,---,0.00,VWS V14.01,2013-01-24 07:14:00,
2013-01-24 00:15:00,12.6,6.2,26.52,ESE,112,8.7,8.7,75,0.00,,---,0.00,VWS V14.01,2013-01-24 07:15:00,
2013-01-24 00:16:00,12.6,6.2,26.52,South,180,4.9,8.7,75,0.00,,---,0.00,VWS V14.01,2013-01-24 07:16:00,
2013-01-24 00:17:00,12.6,6.2,26.52,SSE,158,6.5,8.5,75,0.00,,---,0.00,VWS V14.01,2013-01-24 07:17:00,
2013-01-24 00:18:00,12.6,6.2,26.52,SE,135,7.6,9.6,75,0.00,,---,0.00,VWS V14.01,2013-01-24 07:18:00,
2013-01-24 00:19:00,12.6,6.2,26.52,ESE,112,5.6,7.6,75,0.00,,---,0.00,VWS V14.01,2013-01-24 07:19:00,
2013-01-24 00:20:00,12.6,6.2,26.52,SE,135,5.4,8.1,75,0.00,,---,0.00,VWS V14.01,2013-01-24 07:20:00,
2013-01-24 00:21:00,12.6,6.2,26.52,SE,135,3.6,5.8,75,0.00,,---,0.00,VWS V14.01,2013-01-24 07:21:00,
2013-01-24 00:22:00,12.6,6.2,26.52,SE,135,4.3,4.3,75,0.00,,---,0.00,VWS V14.01,2013-01-24 07:22:00,
2013-01-24 00:23:00,12.6,6.2,26.52,SE,135,10.5,10.5,75,0.00,,---,0.00,VWS V14.01,2013-01-24 07:23:00,
2013-01-24 00:24:00,12.6,6.2,26.52,ESE,112,6.3,10.5,75,0.00,,---,0.00,VWS V14.01,2013-01-24 07:24:00,
2013-01-24 00:25:00,12.6,6.2,26.52,WSW,248,6.5,6.5,75,0.00,,---,0.00,VWS V14.01,2013-01-24 07:25:00,
2013-01-24 00:26:00,12.6,6.2,26.52,South,180,9.4,10.5,75,0.00,,---,0.00,VWS V14.01,2013-01-24 07:26:00,
2013-01-24 00:27:00,12.6,6.2,26.52,SE,135,4.0,4.0,75,0.00,,---,0.00,VWS V14.01,2013-01-24 07:27:00,
2013-01-24 00:28:00,12.6,6.2,26.52,South,180,6.0,6.0,75,0.00,,---,0.00,VWS V14.01,2013-01-24 07:28:00,
2013-01-24 00:29:00,12.6,6.2,26.52,South,180,5.6,6.0,75,0.00,,---,0.00,VWS V14.01,2013-01-24 07:29:00,
2013-01-24 00:30:00,12.6,6.2,26.52,SE,135,3.6,5.6,75,0.00,,---,0.00,VWS V14.01,2013-01-24 07:30:00,
2013-01-24 00:31:00,12.6,6.2,26.52,South,180,6.3,6.3,75,0.00,,---,0.00,VWS V14.01,2013-01-24 07:31:00,
2013-01-24 00:32:00,12.6,6.2,26.52,ESE,112,6.5,6.5,75,0.00,,---,0.00,VWS V14.01,2013-01-24 07:32:00,
2013-01-24 00:33:00,12.6,6.2,26.52,SE,135,4.0,4.0,75,0.00,,---,0.00,VWS V14.01,2013-01-24 07:33:00,
2013-01-24 00:34:00,12.6,6.2,26.52,ESE,112,4.3,4.3,75,0.00,,---,0.00,VWS V14.01,2013-01-24 07:34:00,
2013-01-24 00:35:00,12.6,6.2,26.52,South,180,6.0,6.0,75,0.00,,---,0.00,VWS V14.01,2013-01-24 07:35:00,
2013-01-24 00:36:00,12.6,6.2,26.52,SE,135,5.4,6.0,75,0.00,,---,0.00,VWS V14.01,2013-01-24 07:36:00,
2013-01-24 00:37:00,12.6,6.2,26.52,SE,135,10.7,10.7,75,0.00,,---,0.00,VWS V14.01,2013-01-24 07:37:00,
2013-01-24 00:38:00,12.6,6.2,26.52,South,180,4.7,6.5,75,0.00,,---,0.00,VWS V14.01,2013-01-24 07:38:00,
2013-01-24 00:39:00,12.6,6.2,26.52,SE,135,6.0,6.0,75,0.00,,---,0.00,VWS V14.01,2013-01-24 07:39:00,
2013-01-24 00:40:00,12.6,6.2,26.52,SSE,158,4.7,6.0,75,0.00,,---,0.00,VWS V14.01,2013-01-24 07:40:00,
2013-01-24 00:41:00,12.6,6.2,26.52,SSE,158,4.7,4.7,75,0.00,,---,0.00,VWS V14.01,2013-01-24 07:41:00,
2013-01-24 00:42:00,12.6,6.2,26.52,SSE,158,3.4,3.4,75,0.00,,---,0.00,VWS V14.01,2013-01-24 07:42:00,
2013-01-24 00:43:00,12.6,6.2,26.52,SE,135,4.9,10.7,75,0.00,,---,0.00,VWS V14.01,2013-01-24 07:43:00,
2013-01-24 00:44:00,12.6,6.2,26.52,South,180,6.5,6.5,75,0.00,,---,0.00,VWS V14.01,2013-01-24 07:44:00,
2013-01-24 00:45:00,12.6,6.2,26.52,SE,135,6.0,6.5,75,0.00,,---,0.00,VWS V14.01,2013-01-24 07:45:00,
2013-01-24 00:46:00,12.6,6.2,26.52,SE,135,6.0,6.0,75,0.00,,---,0.00,VWS V14.01,2013-01-24 07:46:00,
2013-01-24 00:47:00,12.6,6.2,26.52,SSE,158,13.2,13.2,75,0.00,,---,0.00,VWS V14.01,2013-01-24 07:47:00,
2013-01-24 00:48:00,12.6,6.2,26.52,SSW,202,6.3,6.3,75,0.00,,---,0.00,VWS V14.01,2013-01-24 07:48:00,
2013-01-24 00:49:00,12.6,6.2,26.52,SSE,158,4.9,6.3,75,0.00,,---,0.00,VWS V14.01,2013-01-24 07:49:00,
2013-01-24 00:50:00,12.6,6.2,26.52,South,180,9.2,9.2,75,0.00,,---,0.00,VWS V14.01,2013-01-24 07:50:00,
2013-01-24 00:51:00,12.6,6.2,26.52,South,180,9.2,9.2,75,0.00,,---,0.00,VWS V14.01,2013-01-24 07:51:00,
2013-01-24 00:52:00,12.6,6.2,26.52,SSE,158,6.5,6.5,75,0.00,,---,0.00,VWS V14.01,2013-01-24 07:52:00,
2013-01-24 00:53:00,12.6,6.2,26.52,SE,135,9.8,13.2,75,0.00,,---,0.00,VWS V14.01,2013-01-24 07:53:00,
2013-01-24 00:54:00,12.6,6.2,26.52,SE,135,10.1,10.1,75,0.00,,---,0.00,VWS V14.01,2013-01-24 07:54:00,
2013-01-24 00:55:00,12.6,6.2,26.52,ESE,112,8.1,10.1,75,0.00,,---,0.00,VWS V14.01,2013-01-24 07:55:00,
2013-01-24 00:56:00,12.6,6.2,26.52,SSE,158,6.5,8.1,75,0.00,,---,0.00,VWS V14.01,2013-01-24 07:56:00,
2013-01-24 00:57:00,12.4,6.0,26.52,SSW,202,6.5,6.5,75,0.00,,---,0.00,VWS V14.01,2013-01-24 07:57:00,
2013-01-24 00:58:00,12.6,6.2,26.52,SSE,158,6.3,12.1,75,0.00,,---,0.00,VWS V14.01,2013-01-24 07:58:00,
2013-01-24 00:59:00,12.6,6.2,26.52,SSE,158,14.8,14.8,75,0.00,,---,0.00,VWS V14.01,2013-01-24 07:59:00,
2013-01-24 01:00:00,12.4,6.0,26.52,SSE,158,6.3,14.8,75,0.00,,---,0.00,VWS V14.01,2013-01-24 08:00:00,
2013-01-24 01:01:00,12.4,6.0,26.52,SE,135,11.0,11.0,75,0.00,,---,0.00,VWS V14.01,2013-01-24 08:01:00,
2013-01-24 01:02:00,12.2,5.8,26.49,South,180,9.6,9.6,75,0.00,,---,0.00,VWS V14.01,2013-01-24 08:02:00,
2013-01-24 01:03:00,12.4,6.0,26.49,SSW,202,6.5,6.5,75,0.00,,---,0.00,VWS V14.01,2013-01-24 08:03:00,
2013-01-24 01:04:00,12.4,6.0,26.49,SE,135,6.5,6.5,75,0.00,,---,0.00,VWS V14.01,2013-01-24 08:04:00,
2013-01-24 01:05:00,12.4,6.0,26.49,South,180,4.7,8.1,75,0.00,,---,0.00,VWS V14.01,2013-01-24 08:05:00,
2013-01-24 01:06:00,12.4,6.0,26.49,South,180,3.8,6.3,75,0.00,,---,0.00,VWS V14.01,2013-01-24 08:06:00,
2013-01-24 01:07:00,12.2,5.8,26.49,South,180,4.9,4.9,75,0.00,,---,0.00,VWS V14.01,2013-01-24 08:07:00,
2013-01-24 01:08:00,12.2,5.8,26.49,SE,135,6.0,9.6,75,0.00,,---,0.00,VWS V14.01,2013-01-24 08:08:00,
2013-01-24 01:09:00,12.2,5.8,26.49,SE,135,6.0,6.0,75,0.00,,---,0.00,VWS V14.01,2013-01-24 08:09:00,
2013-01-24 01:10:00,12.2,5.8,26.49,SE,135,5.8,7.8,75,0.00,,---,0.00,VWS V14.01,2013-01-24 08:10:00,
2013-01-24 01:11:00,12.2,5.8,26.49,SSE,158,5.8,5.8,75,0.00,,---,0.00,VWS V14.01,2013-01-24 08:11:00,
2013-01-24 01:12:00,12.0,5.6,26.49,ESE,112,6.3,6.3,75,0.00,,---,0.00,VWS V14.01,2013-01-24 08:12:00,
2013-01-24 01:13:00,12.2,5.8,26.49,SSE,158,7.8,7.8,75,0.00,,---,0.00,VWS V14.01,2013-01-24 08:13:00,
2013-01-24 01:14:00,12.0,5.6,26.49,ESE,112,4.9,7.8,75,0.00,,---,0.00,VWS V14.01,2013-01-24 08:14:00,
2013-01-24 01:15:00,12.0,5.6,26.49,ESE,112,4.9,4.9,75,0.00,,---,0.00,VWS V14.01,2013-01-24 08:15:00,
2013-01-24 01:16:00,12.0,5.6,26.49,ESE,112,4.9,4.9,75,0.00,,---,0.00,VWS V14.01,2013-01-24 08:16:00,
2013-01-24 01:17:00,11.7,5.3,26.49,SSW,202,3.4,4.9,75,0.00,,---,0.00,VWS V14.01,2013-01-24 08:17:00,
2013-01-24 01:18:00,11.8,5.5,26.49,ESE,112,6.3,6.3,75,0.00,,---,0.00,VWS V14.01,2013-01-24 08:18:00,
2013-01-24 01:19:00,11.8,5.5,26.49,ENE,68,2.5,6.3,75,0.00,,---,0.00,VWS V14.01,2013-01-24 08:19:00,
2013-01-24 01:20:00,11.8,5.5,26.49,ENE,68,2.5,2.5,75,0.00,,---,0.00,VWS V14.01,2013-01-24 08:20:00,
2013-01-24 01:21:00,11.8,5.5,26.49,East,90,4.9,6.0,75,0.00,,---,0.00,VWS V14.01,2013-01-24 08:21:00,
2013-01-24 01:22:00,11.3,4.9,26.49,SSE,158,4.7,4.7,75,0.00,,---,0.00,VWS V14.01,2013-01-24 08:22:00,
2013-01-24 01:23:00,11.7,5.3,26.49,SSW,202,3.4,4.9,75,0.00,,---,0.00,VWS V14.01,2013-01-24 08:23:00,
2013-01-24 01:24:00,11.7,5.3,26.49,SE,135,5.4,7.8,75,0.00,,---,0.00,VWS V14.01,2013-01-24 08:24:00,
2013-01-24 01:25:00,11.5,5.1,26.49,South,180,3.1,5.4,75,0.00,,---,0.00,VWS V14.01,2013-01-24 08:25:00,
2013-01-24 01:26:00,11.5,5.1,26.49,SSE,158,4.9,7.4,75,0.00,,---,0.00,VWS V14.01,2013-01-24 08:26:00,
2013-01-24 01:27:00,11.1,4.8,26.49,SSE,158,3.4,3.4,75,0.00,,---,0.00,VWS V14.01,2013-01-24 08:27:00,
2013-01-24 01:28:00,11.3,4.9,26.49,SSE,158,4.7,4.7,75,0.00,,---,0.00,VWS V14.01,2013-01-24 08:28:00,
2013-01-24 01:29:00,11.3,4.9,26.49,East,90,3.1,5.4,75,0.00,,---,0.00,VWS V14.01,2013-01-24 08:29:00,
2013-01-24 01:30:00,11.3,4.9,26.49,East,90,3.1,3.1,75,0.00,,---,0.00,VWS V14.01,2013-01-24 08:30:00,
2013-01-24 01:31:00,11.3,4.9,26.49,East,90,3.1,3.1,75,0.00,,---,0.00,VWS V14.01,2013-01-24 08:31:00,
2013-01-24 01:32:00,11.1,4.8,26.49,SE,135,3.1,3.1,75,0.00,,---,0.00,VWS V14.01,2013-01-24 08:32:00,
2013-01-24 01:33:00,11.1,4.8,26.49,SE,135,5.4,5.4,75,0.00,,---,0.00,VWS V14.01,2013-01-24 08:33:00,
2013-01-24 01:34:00,11.1,4.8,26.49,SE,135,5.4,5.4,75,0.00,,---,0.00,VWS V14.01,2013-01-24 08:34:00,
2013-01-24 01:35:00,11.1,4.8,26.49,South,180,5.6,5.6,75,0.00,,---,0.00,VWS V14.01,2013-01-24 08:35:00,
2013-01-24 01:36:00,11.1,4.8,26.49,SE,135,3.1,5.6,75,0.00,,---,0.00,VWS V14.01,2013-01-24 08:36:00,
2013-01-24 01:37:00,10.9,4.6,26.49,SSE,158,3.1,3.1,75,0.00,,---,0.00,VWS V14.01,2013-01-24 08:37:00,
2013-01-24 01:38:00,11.1,4.8,26.49,East,90,2.5,3.1,75,0.00,,---,0.00,VWS V14.01,2013-01-24 08:38:00,
2013-01-24 01:39:00,11.1,4.8,26.49,South,180,4.0,4.0,75,0.00,,---,0.00,VWS V14.01,2013-01-24 08:39:00,
2013-01-24 01:40:00,10.9,4.6,26.49,SE,135,3.6,4.0,75,0.00,,---,0.00,VWS V14.01,2013-01-24 08:40:00,
2013-01-24 01:41:00,10.9,4.6,26.49,South,180,3.6,3.6,75,0.00,,---,0.00,VWS V14.01,2013-01-24 08:41:00,
2013-01-24 01:42:00,10.8,4.4,26.49,SE,135,8.1,8.1,75,0.00,,---,0.00,VWS V14.01,2013-01-24 08:42:00,
2013-01-24 01:43:00,10.9,4.6,26.49,SE,135,2.9,3.1,75,0.00,,---,0.00,VWS V14.01,2013-01-24 08:43:00,
2013-01-24 01:44:00,10.9,4.6,26.49,South,180,4.9,4.9,75,0.00,,---,0.00,VWS V14.01,2013-01-24 08:44:00,
2013-01-24 01:45:00,10.9,4.6,26.49,South,180,4.9,4.9,75,0.00,,---,0.00,VWS V14.01,2013-01-24 08:45:00,
2013-01-24 01:46:00,10.8,4.4,26.49,South,180,4.9,4.9,75,0.00,,---,0.00,VWS V14.01,2013-01-24 08:46:00,
2013-01-24 01:47:00,10.8,4.4,26.49,ESE,112,3.8,3.8,75,0.00,,---,0.00,VWS V14.01,2013-01-24 08:47:00,
2013-01-24 01:48:00,10.8,4.4,26.49,SE,135,8.1,8.1,75,0.00,,---,0.00,VWS V14.01,2013-01-24 08:48:00,
2013-01-24 01:49:00,10.8,4.4,26.49,East,90,2.0,8.1,75,0.00,,---,0.00,VWS V14.01,2013-01-24 08:49:00,
2013-01-24 01:50:00,10.8,4.4,26.49,SSE,158,2.7,2.7,75,0.00,,---,0.00,VWS V14.01,2013-01-24 08:50:00,
2013-01-24 01:51:00,10.8,4.4,26.49,SE,135,2.7,2.7,75,0.00,,---,0.00,VWS V14.01,2013-01-24 08:51:00,
2013-01-24 01:52:00,10.6,4.2,26.49,South,180,2.5,2.5,75,0.00,,---,0.00,VWS V14.01,2013-01-24 08:52:00,
2013-01-24 01:53:00,10.6,4.2,26.49,ESE,112,3.8,3.8,75,0.00,,---,0.00,VWS V14.01,2013-01-24 08:53:00,
2013-01-24 01:54:00,10.6,4.2,26.49,ESE,112,3.8,3.8,75,0.00,,---,0.00,VWS V14.01,2013-01-24 08:54:00,
2013-01-24 01:55:00,10.6,4.2,26.49,South,180,2.5,3.8,75,0.00,,---,0.00,VWS V14.01,2013-01-24 08:55:00,
2013-01-24 01:56:00,10.6,4.2,26.49,South,180,2.5,2.5,75,0.00,,---,0.00,VWS V14.01,2013-01-24 08:56:00,
2013-01-24 01:57:00,10.6,4.2,26.49,East,90,3.8,3.8,75,0.00,,---,0.00,VWS V14.01,2013-01-24 08:57:00,
2013-01-24 01:58:00,10.6,4.2,26.49,South,180,2.5,2.5,75,0.00,,---,0.00,VWS V14.01,2013-01-24 08:58:00,
2013-01-24 01:59:00,10.6,4.2,26.49,South,180,2.5,2.5,75,0.00,,---,0.00,VWS V14.01,2013-01-24 08:59:00,
2013-01-24 02:00:00,10.6,4.2,26.49,SE,135,2.9,2.9,75,0.00,,---,0.00,VWS V14.01,2013-01-24 09:00:00,
2013-01-24 02:01:00,10.6,4.2,26.49,SE,135,4.3,4.3,75,0.00,,---,0.00,VWS V14.01,2013-01-24 09:01:00,
2013-01-24 02:02:00,10.6,4.2,26.49,SSE,158,3.1,3.1,75,0.00,,---,0.00,VWS V14.01,2013-01-24 09:02:00,
2013-01-24 02:03:00,10.6,4.2,26.49,South,180,3.8,3.8,75,0.00,,---,0.00,VWS V14.01,2013-01-24 09:03:00,
2013-01-24 02:04:00,10.8,4.4,26.49,South,180,3.8,3.8,75,0.00,,---,0.00,VWS V14.01,2013-01-24 09:04:00,
2013-01-24 02:05:00,10.8,4.4,26.49,East,90,3.8,3.8,75,0.00,,---,0.00,VWS V14.01,2013-01-24 09:05:00,
2013-01-24 02:06:00,10.8,4.4,26.49,East,90,3.8,3.8,75,0.00,,---,0.00,VWS V14.01,2013-01-24 09:06:00,
2013-01-24 02:07:00,10.4,4.1,26.49,SSE,158,4.9,4.9,75,0.00,,---,0.00,VWS V14.01,2013-01-24 09:07:00,
2013-01-24 02:08:00,10.6,4.2,26.49,SSE,158,3.1,3.1,75,0.00,,---,0.00,VWS V14.01,2013-01-24 09:08:00,
2013-01-24 02:09:00,10.6,4.2,26.49,SE,135,4.9,4.9,75,0.00,,---,0.00,VWS V14.01,2013-01-24 09:09:00,
2013-01-24 02:10:00,10.6,4.2,26.49,SE,135,3.4,4.9,75,0.00,,---,0.00,VWS V14.01,2013-01-24 09:10:00,
2013-01-24 02:11:00,10.4,4.1,26.49,SE,135,3.1,3.4,75,0.00,,---,0.00,VWS V14.01,2013-01-24 09:11:00,
2013-01-24 02:12:00,10.4,4.1,26.49,SSE,158,2.7,2.7,75,0.00,,---,0.00,VWS V14.01,2013-01-24 09:12:00,
2013-01-24 02:13:00,10.4,4.1,26.49,SE,135,5.6,6.0,75,0.00,,---,0.00,VWS V14.01,2013-01-24 09:13:00,
2013-01-24 02:14:00,10.4,4.1,26.49,SE,135,5.6,5.6,75,0.00,,---,0.00,VWS V14.01,2013-01-24 09:14:00,
2013-01-24 02:15:00,10.4,4.1,26.49,SE,135,5.8,5.8,75,0.00,,---,0.00,VWS V14.01,2013-01-24 09:15:00,
2013-01-24 02:16:00,10.4,4.1,26.49,SE,135,4.0,5.8,75,0.00,,---,0.00,VWS V14.01,2013-01-24 09:16:00,
2013-01-24 02:17:00,10.4,4.1,26.49,ESE,112,4.3,4.3,75,0.00,,---,0.00,VWS V14.01,2013-01-24 09:17:00,
2013-01-24 02:18:00,10.4,4.1,26.49,SSE,158,2.7,2.7,75,0.00,,---,0.00,VWS V14.01,2013-01-24 09:18:00,
2013-01-24 02:19:00,10.4,4.1,26.49,South,180,4.9,4.9,75,0.00,,---,0.00,VWS V14.01,2013-01-24 09:19:00,
2013-01-24 02:20:00,10.4,4.1,26.49,South,180,4.9,4.9,75,0.00,,---,0.00,VWS V14.01,2013-01-24 09:20:00,
2013-01-24 02:21:00,10.4,4.1,26.49,SE,135,2.9,4.9,75,0.00,,---,0.00,VWS V14.01,2013-01-24 09:21:00,
2013-01-24 02:22:00,10.4,4.1,26.49,SE,135,5.8,5.8,75,0.00,,---,0.00,VWS V14.01,2013-01-24 09:22:00,
2013-01-24 02:23:00,10.4,4.1,26.49,ESE,112,4.3,4.3,75,0.00,,---,0.00,VWS V14.01,2013-01-24 09:23:00,
2013-01-24 02:24:00,10.4,4.1,26.49,SSE,158,3.1,4.3,75,0.00,,---,0.00,VWS V14.01,2013-01-24 09:24:00,
2013-01-24 02:25:00,10.4,4.1,26.49,South,180,5.6,5.6,75,0.00,,---,0.00,VWS V14.01,2013-01-24 09:25:00,
2013-01-24 02:26:00,10.4,4.1,26.49,SSE,158,6.0,6.0,75,0.00,,---,0.00,VWS V14.01,2013-01-24 09:26:00,
2013-01-24 02:27:00,10.8,4.4,26.49,South,180,5.4,5.4,75,0.00,,---,0.00,VWS V14.01,2013-01-24 09:27:00,
2013-01-24 02:28:00,10.4,4.1,26.49,SE,135,5.8,5.8,75,0.00,,---,0.00,VWS V14.01,2013-01-24 09:28:00,
2013-01-24 02:29:00,10.6,4.2,26.49,SE,135,2.5,5.8,75,0.00,,---,0.00,VWS V14.01,2013-01-24 09:29:00,
2013-01-24 02:30:00,10.6,4.2,26.49,SE,135,2.5,2.5,75,0.00,,---,0.00,VWS V14.01,2013-01-24 09:30:00,
2013-01-24 02:31:00,10.6,4.2,26.49,SE,135,2.5,2.5,75,0.00,,---,0.00,VWS V14.01,2013-01-24 09:31:00,
2013-01-24 02:32:00,10.8,4.4,26.46,South,180,4.3,4.3,75,0.00,,---,0.00,VWS V14.01,2013-01-24 09:32:00,
2013-01-24 02:33:00,10.8,4.4,26.46,SSE,158,4.5,5.4,75,0.00,,---,0.00,VWS V14.01,2013-01-24 09:33:00,
2013-01-24 02:34:00,10.8,4.4,26.46,South,180,4.3,4.5,75,0.00,,---,0.00,VWS V14.01,2013-01-24 09:34:00,
2013-01-24 02:35:00,10.8,4.4,26.46,South,180,4.3,4.3,75,0.00,,---,0.00,VWS V14.01,2013-01-24 09:35:00,
2013-01-24 02:36:00,10.8,4.4,26.46,South,180,4.3,4.3,75,0.00,,---,0.00,VWS V14.01,2013-01-24 09:36:00,
2013-01-24 02:37:00,10.8,4.4,26.46,SSE,158,4.9,4.9,75,0.00,,---,0.00,VWS V14.01,2013-01-24 09:37:00,
2013-01-24 02:38:00,10.8,4.4,26.46,SE,135,5.4,5.4,75,0.00,,---,0.00,VWS V14.01,2013-01-24 09:38:00,
2013-01-24 02:39:00,10.8,4.4,26.46,SE,135,5.4,5.4,75,0.00,,---,0.00,VWS V14.01,2013-01-24 09:39:00,
2013-01-24 02:40:00,10.8,4.4,26.46,SSE,158,3.8,5.4,75,0.00,,---,0.00,VWS V14.01,2013-01-24 09:40:00,
2013-01-24 02:41:00,10.8,4.4,26.46,SSE,158,3.8,3.8,75,0.00,,---,0.00,VWS V14.01,2013-01-24 09:41:00,
2013-01-24 02:42:00,10.9,4.6,26.46,SE,135,3.1,3.1,75,0.00,,---,0.00,VWS V14.01,2013-01-24 09:42:00,
2013-01-24 02:43:00,10.8,4.4,26.46,SSE,158,4.9,4.9,75,0.00,,---,0.00,VWS V14.01,2013-01-24 09:43:00,
2013-01-24 02:44:00,10.8,4.4,26.46,ESE,112,2.5,4.9,75,0.00,,---,0.00,VWS V14.01,2013-01-24 09:44:00,
2013-01-24 02:45:00,10.8,4.4,26.46,South,180,3.4,3.4,75,0.00,,---,0.00,VWS V14.01,2013-01-24 09:45:00,
2013-01-24 02:46:00,10.9,4.6,26.46,SE,135,3.1,3.4,75,0.00,,---,0.00,VWS V14.01,2013-01-24 09:46:00,
2013-01-24 02:47:00,10.9,4.6,26.43,SE,135,2.0,2.0,75,0.00,,---,0.00,VWS V14.01,2013-01-24 09:47:00,
2013-01-24 02:48:00,10.9,4.6,26.43,SSE,158,3.6,3.6,75,0.00,,---,0.00,VWS V14.01,2013-01-24 09:48:00,
2013-01-24 02:49:00,10.9,4.6,26.43,SSE,158,3.8,3.8,75,0.00,,---,0.00,VWS V14.01,2013-01-24 09:49:00,
2013-01-24 02:50:00,10.9,4.6,26.43,SE,135,6.0,6.5,75,0.00,,---,0.00,VWS V14.01,2013-01-24 09:50:00,
2013-01-24 02:51:00,10.9,4.6,26.43,SE,135,10.5,10.5,75,0.00,,---,0.00,VWS V14.01,2013-01-24 09:51:00,
2013-01-24 02:52:00,10.9,4.6,26.43,SE,135,6.0,6.0,75,0.00,,---,0.00,VWS V14.01,2013-01-24 09:52:00,
2013-01-24 02:53:00,10.9,4.6,26.43,SE,135,2.0,2.0,75,0.00,,---,0.00,VWS V14.01,2013-01-24 09:53:00,
2013-01-24 02:54:00,10.9,4.6,26.43,SE,135,2.9,2.9,75,0.00,,---,0.00,VWS V14.01,2013-01-24 09:54:00,
2013-01-24 02:55:00,10.9,4.6,26.43,SE,135,2.9,2.9,75,0.00,,---,0.00,VWS V14.01,2013-01-24 09:55:00,
2013-01-24 02:56:00,10.9,4.6,26.43,SE,135,6.0,6.0,75,0.00,,---,0.00,VWS V14.01,2013-01-24 09:56:00,
2013-01-24 02:57:00,10.9,4.6,26.43,SSE,158,3.8,3.8,75,0.00,,---,0.00,VWS V14.01,2013-01-24 09:57:00,
2013-01-24 02:58:00,10.9,4.6,26.43,SE,135,6.0,6.0,75,0.00,,---,0.00,VWS V14.01,2013-01-24 09:58:00,
2013-01-24 02:59:00,10.9,4.6,26.43,SE,135,6.0,6.0,75,0.00,,---,0.00,VWS V14.01,2013-01-24 09:59:00,
2013-01-24 03:00:00,10.9,4.6,26.43,South,180,4.0,6.0,75,0.00,,---,0.00,VWS V14.01,2013-01-24 10:00:00,
2013-01-24 03:01:00,10.9,4.6,26.43,South,180,3.4,4.0,75,0.00,,---,0.00,VWS V14.01,2013-01-24 10:01:00,
2013-01-24 03:02:00,10.8,4.4,26.43,South,180,2.5,2.5,75,0.00,,---,0.00,VWS V14.01,2013-01-24 10:02:00,
2013-01-24 03:03:00,10.8,4.4,26.43,SSE,158,3.8,3.8,75,0.00,,---,0.00,VWS V14.01,2013-01-24 10:03:00,
2013-01-24 03:04:00,10.8,4.4,26.43,SE,135,2.9,3.8,75,0.00,,---,0.00,VWS V14.01,2013-01-24 10:04:00,
2013-01-24 03:05:00,10.8,4.4,26.43,SE,135,3.6,3.6,75,0.00,,---,0.00,VWS V14.01,2013-01-24 10:05:00,
2013-01-24 03:06:00,10.8,4.4,26.43,South,180,2.5,3.6,75,0.00,,---,0.00,VWS V14.01,2013-01-24 10:06:00,
2013-01-24 03:07:00,10.6,4.2,26.43,South,180,2.7,4.3,75,0.00,,---,0.00,VWS V14.01,2013-01-24 10:07:00,
2013-01-24 03:08:00,10.8,4.4,26.43,South,180,2.5,2.5,75,0.00,,---,0.00,VWS V14.01,2013-01-24 10:08:00,
2013-01-24 03:09:00,10.8,4.4,26.43,South,180,3.4,3.4,75,0.00,,---,0.00,VWS V14.01,2013-01-24 10:09:00,
2013-01-24 03:10:00,10.8,4.4,26.43,South,180,2.7,4.0,75,0.00,,---,0.00,VWS V14.01,2013-01-24 10:10:00,
2013-01-24 03:11:00,10.8,4.4,26.43,SSE,158,2.7,2.7,75,0.00,,---,0.00,VWS V14.01,2013-01-24 10:11:00,
2013-01-24 03:12:00,10.4,4.1,26.43,South,180,4.3,4.3,75,0.00,,---,0.00,VWS V14.01,2013-01-24 10:12:00,
2013-01-24 03:13:00,10.6,4.2,26.43,SE,135,2.9,2.9,75,0.00,,---,0.00,VWS V14.01,2013-01-24 10:13:00,
2013-01-24 03:14:00,10.6,4.2,26.43,South,180,2.5,2.9,75,0.00,,---,0.00,VWS V14.01,2013-01-24 10:14:00,
2013-01-24 03:15:00,10.6,4.2,26.43,SSE,158,3.4,3.4,75,0.00,,---,0.00,VWS V14.01,2013-01-24 10:15:00,
2013-01-24 03:16:00,10.4,4.1,26.43,SSE,158,2.2,3.4,75,0.00,,---,0.00,VWS V14.01,2013-01-24 10:16:00,
2013-01-24 03:17:00,10.4,4.1,26.40,South,180,2.7,2.7,75,0.00,,---,0.00,VWS V14.01,2013-01-24 10:17:00,
2013-01-24 03:18:00,10.4,4.1,26.40,South,180,4.3,4.3,75,0.00,,---,0.00,VWS V14.01,2013-01-24 10:18:00,
2013-01-24 03:19:00,10.4,4.1,26.40,South,180,4.3,4.3,75,0.00,,---,0.00,VWS V14.01,2013-01-24 10:19:00,
2013-01-24 03:20:00,10.4,4.1,26.40,SSE,158,1.6,4.3,75,0.00,,---,0.00,VWS V14.01,2013-01-24 10:20:00,
2013-01-24 03:21:00,10.4,4.1,26.40,SSE,158,1.6,1.6,75,0.00,,---,0.00,VWS V14.01,2013-01-24 10:21:00,
2013-01-24 03:22:00,10.4,4.1,26.40,ESE,112,2.2,2.7,75,0.00,,---,0.00,VWS V14.01,2013-01-24 10:22:00,
2013-01-24 03:23:00,10.4,4.1,26.40,South,180,2.7,2.7,75,0.00,,---,0.00,VWS V14.01,2013-01-24 10:23:00,
2013-01-24 03:24:00,10.4,4.1,26.40,SE,135,2.9,2.9,75,0.00,,---,0.00,VWS V14.01,2013-01-24 10:24:00,
2013-01-24 03:25:00,10.4,4.1,26.40,SE,135,2.7,2.9,75,0.00,,---,0.00,VWS V14.01,2013-01-24 10:25:00,
2013-01-24 03:26:00,10.4,4.1,26.40,South,180,2.7,3.4,75,0.00,,---,0.00,VWS V14.01,2013-01-24 10:26:00,
2013-01-24 03:27:00,10.4,4.1,26.40,SE,135,2.5,4.3,75,0.00,,---,0.00,VWS V14.01,2013-01-24 10:27:00,
2013-01-24 03:28:00,10.4,4.1,26.40,SE,135,2.5,2.5,75,0.00,,---,0.00,VWS V14.01,2013-01-24 10:28:00,
2013-01-24 03:29:00,10.4,4.1,26.40,SSE,158,2.5,2.5,75,0.00,,---,0.00,VWS V14.01,2013-01-24 10:29:00,
2013-01-24 03:30:00,10.4,4.1,26.40,SE,135,4.7,4.7,75,0.00,,---,0.00,VWS V14.01,2013-01-24 10:30:00,
2013-01-24 03:31:00,10.4,4.1,26.40,SSE,158,4.3,4.7,75,0.00,,---,0.00,VWS V14.01,2013-01-24 10:31:00,
2013-01-24 03:32:00,10.4,4.1,26.43,South,180,2.5,2.5,75,0.00,,---,0.00,VWS V14.01,2013-01-24 10:32:00,
2013-01-24 03:33:00,10.4,4.1,26.43,SE,135,2.9,2.9,75,0.00,,---,0.00,VWS V14.01,2013-01-24 10:33:00,
2013-01-24 03:34:00,10.4,4.1,26.43,South,180,3.6,3.6,75,0.00,,---,0.00,VWS V14.01,2013-01-24 10:34:00,
2013-01-24 03:35:00,10.4,4.1,26.43,South,180,2.7,3.6,75,0.00,,---,0.00,VWS V14.01,2013-01-24 10:35:00,
2013-01-24 03:36:00,10.4,4.1,26.43,South,180,2.5,3.8,75,0.00,,---,0.00,VWS V14.01,2013-01-24 10:36:00,
2013-01-24 03:37:00,10.4,4.1,26.43,ESE,112,2.9,2.9,75,0.00,,---,0.00,VWS V14.01,2013-01-24 10:37:00,
2013-01-24 03:38:00,10.4,4.1,26.43,ESE,112,5.4,5.4,75,0.00,,---,0.00,VWS V14.01,2013-01-24 10:38:00,
2013-01-24 03:39:00,10.4,4.1,26.43,ESE,112,5.4,5.4,75,0.00,,---,0.00,VWS V14.01,2013-01-24 10:39:00,
2013-01-24 03:40:00,10.4,4.1,26.43,ESE,112,5.4,5.4,75,0.00,,---,0.00,VWS V14.01,2013-01-24 10:40:00,
2013-01-24 03:41:00,10.4,4.1,26.43,SE,135,1.6,5.4,75,0.00,,---,0.00,VWS V14.01,2013-01-24 10:41:00,
2013-01-24 03:42:00,10.4,4.1,26.43,SE,135,4.5,4.5,75,0.00,,---,0.00,VWS V14.01,2013-01-24 10:42:00,
2013-01-24 03:43:00,10.4,4.1,26.43,ESE,112,2.9,2.9,75,0.00,,---,0.00,VWS V14.01,2013-01-24 10:43:00,
2013-01-24 03:44:00,10.4,4.1,26.43,SSE,158,1.6,2.9,75,0.00,,---,0.00,VWS V14.01,2013-01-24 10:44:00,
2013-01-24 03:45:00,10.4,4.1,26.43,SSE,158,2.7,2.7,75,0.00,,---,0.00,VWS V14.01,2013-01-24 10:45:00,
2013-01-24 03:46:00,10.4,4.1,26.43,SSE,158,2.7,2.7,75,0.00,,---,0.00,VWS V14.01,2013-01-24 10:46:00,
2013-01-24 03:47:00,10.4,4.1,26.46,SE,135,1.6,3.8,75,0.00,,---,0.00,VWS V14.01,2013-01-24 10:47:00,
2013-01-24 03:48:00,10.4,4.1,26.46,SSE,158,2.9,4.5,75,0.00,,---,0.00,VWS V14.01,2013-01-24 10:48:00,
2013-01-24 03:49:00,10.4,4.1,26.46,SE,135,2.9,2.9,75,0.00,,---,0.00,VWS V14.01,2013-01-24 10:49:00,
2013-01-24 03:50:00,10.4,4.1,26.46,South,180,2.7,2.9,75,0.00,,---,0.00,VWS V14.01,2013-01-24 10:50:00,
2013-01-24 03:51:00,10.4,4.1,26.46,South,180,3.8,3.8,75,0.00,,---,0.00,VWS V14.01,2013-01-24 10:51:00,
2013-01-24 03:52:00,10.2,3.9,26.46,SE,135,1.3,1.3,75,0.00,,---,0.00,VWS V14.01,2013-01-24 10:52:00,
2013-01-24 03:53:00,10.4,4.1,26.46,SE,135,3.1,3.1,75,0.00,,---,0.00,VWS V14.01,2013-01-24 10:53:00,
2013-01-24 03:54:00,10.4,4.1,26.46,SSE,158,2.7,3.1,75,0.00,,---,0.00,VWS V14.01,2013-01-24 10:54:00,
2013-01-24 03:55:00,10.4,4.1,26.46,SE,135,3.4,3.4,75,0.00,,---,0.00,VWS V14.01,2013-01-24 10:55:00,
2013-01-24 03:56:00,10.4,4.1,26.46,SE,135,1.1,3.4,75,0.00,,---,0.00,VWS V14.01,2013-01-24 10:56:00,
2013-01-24 03:57:00,10.0,3.7,26.46,South,180,0.0,0.0,75,0.00,,---,0.00,VWS V14.01,2013-01-24 10:57:00,
2013-01-24 03:58:00,10.2,3.9,26.46,SE,135,1.3,1.3,75,0.00,,---,0.00,VWS V14.01,2013-01-24 10:58:00,
2013-01-24 03:59:00,10.2,3.9,26.46,SE,135,0.0,1.3,75,0.00,,---,0.00,VWS V14.01,2013-01-24 10:59:00,
2013-01-24 04:00:00,10.2,3.9,26.46,SE,135,0.0,0.0,75,0.00,,---,0.00,VWS V14.01,2013-01-24 11:00:00,
2013-01-24 04:01:00,10.2,3.9,26.46,South,180,0.0,0.0,75,0.00,,---,0.00,VWS V14.01,2013-01-24 11:01:00,
2013-01-24 04:02:00,9.9,3.5,26.43,East,90,0.0,0.0,75,0.00,,---,0.00,VWS V14.01,2013-01-24 11:02:00,
2013-01-24 04:03:00,10.0,3.7,26.43,SE,135,0.0,0.0,75,0.00,,---,0.00,VWS V14.01,2013-01-24 11:03:00,
2013-01-24 04:04:00,10.0,3.7,26.43,SSE,158,2.0,2.0,75,0.00,,---,0.00,VWS V14.01,2013-01-24 11:04:00,
2013-01-24 04:05:00,10.0,3.7,26.43,SSE,158,1.3,2.0,75,0.00,,---,0.00,VWS V14.01,2013-01-24 11:05:00,
2013-01-24 04:06:00,10.0,3.7,26.43,SSE,158,1.3,1.3,75,0.00,,---,0.00,VWS V14.01,2013-01-24 11:06:00,
2013-01-24 04:07:00,9.7,3.4,26.43,ENE,68,1.3,1.6,75,0.00,,---,0.00,VWS V14.01,2013-01-24 11:07:00,
2013-01-24 04:08:00,9.9,3.5,26.43,ENE,68,0.0,0.0,75,0.00,,---,0.00,VWS V14.01,2013-01-24 11:08:00,
2013-01-24 04:09:00,9.7,3.4,26.43,East,90,0.0,0.0,75,0.00,,---,0.00,VWS V14.01,2013-01-24 11:09:00,
2013-01-24 04:10:00,9.7,3.4,26.43,ENE,68,2.0,2.0,75,0.00,,---,0.00,VWS V14.01,2013-01-24 11:10:00,
2013-01-24 04:11:00,9.7,3.4,26.43,ENE,68,1.6,2.0,75,0.00,,---,0.00,VWS V14.01,2013-01-24 11:11:00,
2013-01-24 04:12:00,9.5,3.2,26.43,East,90,0.0,0.0,75,0.00,,---,0.00,VWS V14.01,2013-01-24 11:12:00,
2013-01-24 04:13:00,9.7,3.4,26.43,ENE,68,0.0,1.3,75,0.00,,---,0.00,VWS V14.01,2013-01-24 11:13:00,
2013-01-24 04:14:00,9.7,3.4,26.43,ESE,112,0.0,0.0,75,0.00,,---,0.00,VWS V14.01,2013-01-24 11:14:00,
2013-01-24 04:15:00,34.2,-8.6,26.43,East,90,1.1,1.1,15,0.00,,---,0.00,VWS V14.01,2013-01-24 11:15:00,
2013-01-24 04:16:00,34.2,-8.6,26.43,East,90,0.0,1.1,15,0.00,,---,0.00,VWS V14.01,2013-01-24 11:16:00,
2013-01-24 04:17:00,9.3,3.0,26.40,SE,135,1.6,1.6,75,0.00,,---,0.00,VWS V14.01,2013-01-24 11:17:00,
2013-01-24 04:18:00,9.3,3.0,26.40,ESE,112,1.1,1.1,75,0.00,,---,0.00,VWS V14.01,2013-01-24 11:18:00,
2013-01-24 04:19:00,9.3,3.0,26.40,SE,135,1.6,2.0,75,0.00,,---,0.00,VWS V14.01,2013-01-24 11:19:00,
2013-01-24 04:20:00,9.3,3.0,26.40,SE,135,2.2,2.2,75,0.00,,---,0.00,VWS V14.01,2013-01-24 11:20:00,
2013-01-24 04:21:00,9.3,3.0,26.40,SE,135,1.6,2.2,75,0.00,,---,0.00,VWS V14.01,2013-01-24 11:21:00,
2013-01-24 04:22:00,8.8,2.5,26.40,ESE,112,1.6,1.6,75,0.00,,---,0.00,VWS V14.01,2013-01-24 11:22:00,
2013-01-24 04:23:00,9.3,3.0,26.40,SE,135,0.0,1.6,75,0.00,,---,0.00,VWS V14.01,2013-01-24 11:23:00,
2013-01-24 04:24:00,9.3,3.0,26.40,SE,135,0.0,0.0,75,0.00,,---,0.00,VWS V14.01,2013-01-24 11:24:00,
2013-01-24 04:25:00,9.0,2.7,26.40,SE,135,0.0,0.0,75,0.00,,---,0.00,VWS V14.01,2013-01-24 11:25:00,
2013-01-24 04:26:00,8.8,2.5,26.40,East,90,0.0,0.0,75,0.00,,---,0.00,VWS V14.01,2013-01-24 11:26:00,
2013-01-24 04:27:00,8.8,2.5,26.40,SE,135,0.0,0.0,75,0.00,,---,0.00,VWS V14.01,2013-01-24 11:27:00,
2013-01-24 04:28:00,8.8,2.5,26.40,ESE,112,1.6,1.6,75,0.00,,---,0.00,VWS V14.01,2013-01-24 11:28:00,
2013-01-24 04:29:00,8.8,2.5,26.40,SE,135,0.0,1.6,75,0.00,,---,0.00,VWS V14.01,2013-01-24 11:29:00,
2013-01-24 04:30:00,8.8,2.5,26.40,SSE,158,1.6,1.6,75,0.00,,---,0.00,VWS V14.01,2013-01-24 11:30:00,
2013-01-24 04:31:00,8.8,2.5,26.40,SE,135,0.0,1.6,75,0.00,,---,0.00,VWS V14.01,2013-01-24 11:31:00,
2013-01-24 04:32:00,8.6,2.3,26.40,SSE,158,2.0,2.0,75,0.00,,---,0.00,VWS V14.01,2013-01-24 11:32:00,
2013-01-24 04:33:00,8.8,2.5,26.40,SE,135,0.0,0.0,75,0.00,,---,0.00,VWS V14.01,2013-01-24 11:33:00,
2013-01-24 04:34:00,8.8,2.5,26.40,SE,135,0.0,0.0,75,0.00,,---,0.00,VWS V14.01,2013-01-24 11:34:00,
2013-01-24 04:35:00,8.6,2.3,26.40,SSE,158,1.6,1.6,75,0.00,,---,0.00,VWS V14.01,2013-01-24 11:35:00,
2013-01-24 04:36:00,8.6,2.3,26.40,ESE,112,1.6,1.6,75,0.00,,---,0.00,VWS V14.01,2013-01-24 11:36:00,
2013-01-24 04:37:00,8.6,2.3,26.40,South,180,0.9,0.9,75,0.00,,---,0.00,VWS V14.01,2013-01-24 11:37:00,
2013-01-24 04:38:00,8.6,2.3,26.40,SSE,158,2.5,2.7,75,0.00,,---,0.00,VWS V14.01,2013-01-24 11:38:00,
2013-01-24 04:39:00,8.6,2.3,26.40,South,180,1.6,2.5,75,0.00,,---,0.00,VWS V14.01,2013-01-24 11:39:00,
2013-01-24 04:40:00,8.6,2.3,26.40,South,180,0.0,1.6,75,0.00,,---,0.00,VWS V14.01,2013-01-24 11:40:00,
2013-01-24 04:41:00,8.6,2.3,26.40,South,180,1.3,1.3,75,0.00,,---,0.00,VWS V14.01,2013-01-24 11:41:00,
2013-01-24 04:42:00,8.4,2.1,26.40,SSE,158,0.9,1.3,75,0.00,,---,0.00,VWS V14.01,2013-01-24 11:42:00,
2013-01-24 04:43:00,8.6,2.3,26.40,South,180,0.0,0.9,75,0.00,,---,0.00,VWS V14.01,2013-01-24 11:43:00,
2013-01-24 04:44:00,8.4,2.1,26.40,South,180,0.0,0.0,75,0.00,,---,0.00,VWS V14.01,2013-01-24 11:44:00,
2013-01-24 04:45:00,8.4,2.1,26.40,South,180,0.0,0.0,75,0.00,,---,0.00,VWS V14.01,2013-01-24 11:45:00,
2013-01-24 04:46:00,8.4,2.1,26.40,South,180,1.6,2.2,75,0.00,,---,0.00,VWS V14.01,2013-01-24 11:46:00,
2013-01-24 04:47:00,8.4,2.1,26.37,South,180,1.3,1.3,75,0.00,,---,0.00,VWS V14.01,2013-01-24 11:47:00,
2013-01-24 04:48:00,8.4,2.1,26.37,SSE,158,0.0,1.3,75,0.00,,---,0.00,VWS V14.01,2013-01-24 11:48:00,
2013-01-24 04:49:00,8.4,2.1,26.37,SSE,158,1.1,1.1,75,0.00,,---,0.00,VWS V14.01,2013-01-24 11:49:00,
2013-01-24 04:50:00,8.4,2.1,26.37,SSE,158,1.6,1.6,75,0.00,,---,0.00,VWS V14.01,2013-01-24 11:50:00,
2013-01-24 04:51:00,8.4,2.1,26.37,SSE,158,1.3,1.6,75,0.00,,---,0.00,VWS V14.01,2013-01-24 11:51:00,
2013-01-24 04:52:00,8.2,2.0,26.37,South,180,0.0,0.0,75,0.00,,---,0.00,VWS V14.01,2013-01-24 11:52:00,
2013-01-24 04:53:00,8.2,2.0,26.37,South,180,1.3,1.3,75,0.00,,---,0.00,VWS V14.01,2013-01-24 11:53:00,
2013-01-24 04:54:00,8.2,2.0,26.37,South,180,0.0,1.3,75,0.00,,---,0.00,VWS V14.01,2013-01-24 11:54:00,
2013-01-24 04:55:00,8.2,2.0,26.37,South,180,0.0,0.0,75,0.00,,---,0.00,VWS V14.01,2013-01-24 11:55:00,
2013-01-24 04:56:00,8.2,2.0,26.37,South,180,0.0,0.0,75,0.00,,---,0.00,VWS V14.01,2013-01-24 11:56:00,
2013-01-24 04:57:00,8.2,2.0,26.37,South,180,0.0,0.0,75,0.00,,---,0.00,VWS V14.01,2013-01-24 11:57:00,
2013-01-24 04:58:00,8.2,2.0,26.37,South,180,0.0,0.0,75,0.00,,---,0.00,VWS V14.01,2013-01-24 11:58:00,
2013-01-24 04:59:00,8.2,2.0,26.37,South,180,0.0,0.0,75,0.00,,---,0.00,VWS V14.01,2013-01-24 11:59:00,
2013-01-24 05:00:00,8.2,2.0,26.37,South,180,0.0,0.0,75,0.00,,---,0.00,VWS V14.01,2013-01-24 12:00:00,
2013-01-24 05:01:00,8.2,2.0,26.37,South,180,0.0,0.0,75,0.00,,---,0.00,VWS V14.01,2013-01-24 12:01:00,
2013-01-24 05:02:00,8.1,1.8,26.37,South,180,0.0,0.0,75,0.00,,---,0.00,VWS V14.01,2013-01-24 12:02:00,
2013-01-24 05:03:00,8.1,1.8,26.37,South,180,0.0,0.0,75,0.00,,---,0.00,VWS V14.01,2013-01-24 12:03:00,
2013-01-24 05:04:00,8.1,1.8,26.37,South,180,0.0,0.0,75,0.00,,---,0.00,VWS V14.01,2013-01-24 12:04:00,
2013-01-24 05:05:00,8.1,1.8,26.37,South,180,0.0,0.0,75,0.00,,---,0.00,VWS V14.01,2013-01-24 12:05:00,
2013-01-24 05:06:00,8.1,1.8,26.37,South,180,0.0,0.0,75,0.00,,---,0.00,VWS V14.01,2013-01-24 12:06:00,
2013-01-24 05:07:00,8.1,1.8,26.37,South,180,1.1,1.1,75,0.00,,---,0.00,VWS V14.01,2013-01-24 12:07:00,
2013-01-24 05:08:00,8.1,1.8,26.37,South,180,0.0,0.0,75,0.00,,---,0.00,VWS V14.01,2013-01-24 12:08:00,
2013-01-24 05:09:00,8.1,1.8,26.37,South,180,0.0,0.0,75,0.00,,---,0.00,VWS V14.01,2013-01-24 12:09:00,
2013-01-24 05:10:00,8.1,1.8,26.37,South,180,0.0,0.0,75,0.00,,---,0.00,VWS V14.01,2013-01-24 12:10:00,
2013-01-24 05:11:00,8.1,1.8,26.37,South,180,0.0,0.0,75,0.00,,---,0.00,VWS V14.01,2013-01-24 12:11:00,
2013-01-24 05:12:00,8.2,2.0,26.37,South,180,0.0,0.0,75,0.00,,---,0.00,VWS V14.01,2013-01-24 12:12:00,
2013-01-24 05:13:00,8.1,1.8,26.37,South,180,0.0,1.1,75,0.00,,---,0.00,VWS V14.01,2013-01-24 12:13:00,
2013-01-24 05:14:00,8.1,1.8,26.37,South,180,0.0,0.0,75,0.00,,---,0.00,VWS V14.01,2013-01-24 12:14:00,
2013-01-24 05:15:00,8.2,2.0,26.37,South,180,0.0,0.0,75,0.00,,---,0.00,VWS V14.01,2013-01-24 12:15:00,
2013-01-24 05:16:00,8.2,2.0,26.37,South,180,0.0,0.0,75,0.00,,---,0.00,VWS V14.01,2013-01-24 12:16:00,
2013-01-24 05:17:00,8.2,2.0,26.37,South,180,0.0,0.0,75,0.00,,---,0.00,VWS V14.01,2013-01-24 12:17:00,
2013-01-24 05:18:00,8.2,2.0,26.37,South,180,0.0,0.0,75,0.00,,---,0.00,VWS V14.01,2013-01-24 12:18:00,
2013-01-24 05:19:00,8.2,2.0,26.37,South,180,0.0,0.0,75,0.00,,---,0.00,VWS V14.01,2013-01-24 12:19:00,
2013-01-24 05:20:00,8.2,2.0,26.37,South,180,0.0,0.0,75,0.00,,---,0.00,VWS V14.01,2013-01-24 12:20:00,
2013-01-24 05:21:00,8.2,2.0,26.37,South,180,0.0,0.0,75,0.00,,---,0.00,VWS V14.01,2013-01-24 12:21:00,
2013-01-24 05:22:00,8.2,2.0,26.37,South,180,2.0,2.0,75,0.00,,---,0.00,VWS V14.01,2013-01-24 12:22:00,
2013-01-24 05:23:00,8.2,2.0,26.37,South,180,0.0,0.0,75,0.00,,---,0.00,VWS V14.01,2013-01-24 12:23:00,
2013-01-24 05:24:00,8.2,2.0,26.37,South,180,0.0,0.0,75,0.00,,---,0.00,VWS V14.01,2013-01-24 12:24:00,
2013-01-24 05:25:00,8.2,2.0,26.37,South,180,0.0,0.0,75,0.00,,---,0.00,VWS V14.01,2013-01-24 12:25:00,
2013-01-24 05:26:00,8.2,2.0,26.37,South,180,1.6,1.6,75,0.00,,---,0.00,VWS V14.01,2013-01-24 12:26:00,
2013-01-24 05:27:00,8.4,2.1,26.37,South,180,1.1,1.1,75,0.00,,---,0.00,VWS V14.01,2013-01-24 12:27:00,
2013-01-24 05:28:00,8.2,2.0,26.37,South,180,2.0,2.5,75,0.00,,---,0.00,VWS V14.01,2013-01-24 12:28:00,
2013-01-24 05:29:00,8.2,2.0,26.37,South,180,1.3,2.0,75,0.00,,---,0.00,VWS V14.01,2013-01-24 12:29:00,
2013-01-24 05:30:00,8.2,2.0,26.37,South,180,1.1,1.3,75,0.00,,---,0.00,VWS V14.01,2013-01-24 12:30:00,
2013-01-24 05:31:00,8.2,2.0,26.37,South,180,1.1,1.1,75,0.00,,---,0.00,VWS V14.01,2013-01-24 12:31:00,
2013-01-24 05:32:00,8.6,2.3,26.37,NW,315,1.3,1.3,75,0.00,,---,0.00,VWS V14.01,2013-01-24 12:32:00,
2013-01-24 05:33:00,8.4,2.1,26.37,South,180,1.1,1.1,75,0.00,,---,0.00,VWS V14.01,2013-01-24 12:33:00,
2013-01-24 05:34:00,8.4,2.1,26.37,WNW,292,2.2,2.2,75,0.00,,---,0.00,VWS V14.01,2013-01-24 12:34:00,
2013-01-24 05:35:00,8.4,2.1,26.37,WNW,292,1.1,2.2,75,0.00,,---,0.00,VWS V14.01,2013-01-24 12:35:00,
2013-01-24 05:36:00,8.6,2.3,26.37,NW,315,1.3,1.3,75,0.00,,---,0.00,VWS V14.01,2013-01-24 12:36:00,
2013-01-24 05:37:00,8.8,2.5,26.37,NNW,338,1.3,1.3,75,0.00,,---,0.00,VWS V14.01,2013-01-24 12:37:00,
2013-01-24 05:38:00,8.6,2.3,26.37,NNW,338,2.0,2.0,75,0.00,,---,0.00,VWS V14.01,2013-01-24 12:38:00,
2013-01-24 05:39:00,8.6,2.3,26.37,NNW,338,2.0,2.0,75,0.00,,---,0.00,VWS V14.01,2013-01-24 12:39:00,
2013-01-24 05:40:00,8.6,2.3,26.37,NNW,338,0.0,2.0,75,0.00,,---,0.00,VWS V14.01,2013-01-24 12:40:00,
2013-01-24 05:41:00,8.6,2.3,26.37,NNW,338,1.3,1.3,75,0.00,,---,0.00,VWS V14.01,2013-01-24 12:41:00,
2013-01-24 05:42:00,9.0,2.7,26.37,NE,45,0.0,1.6,75,0.00,,---,0.00,VWS V14.01,2013-01-24 12:42:00,
2013-01-24 05:43:00,8.8,2.5,26.37,NNW,338,1.3,1.3,75,0.00,,---,0.00,VWS V14.01,2013-01-24 12:43:00,
2013-01-24 05:44:00,9.0,2.7,26.37,NNW,338,1.3,1.3,75,0.00,,---,0.00,VWS V14.01,2013-01-24 12:44:00,
2013-01-24 05:45:00,9.0,2.7,26.37,ENE,68,1.3,1.3,75,0.00,,---,0.00,VWS V14.01,2013-01-24 12:45:00,
2013-01-24 05:46:00,9.0,2.7,26.37,NE,45,1.6,1.6,75,0.00,,---,0.00,VWS V14.01,2013-01-24 12:46:00,
2013-01-24 05:47:00,9.0,2.7,26.34,NE,45,0.0,0.0,75,0.00,,---,0.00,VWS V14.01,2013-01-24 12:47:00,
2013-01-24 05:48:00,9.0,2.7,26.34,NE,45,0.0,0.0,75,0.00,,---,0.00,VWS V14.01,2013-01-24 12:48:00,
2013-01-24 05:49:00,9.0,2.7,26.34,NE,45,0.0,0.0,75,0.00,,---,0.00,VWS V14.01,2013-01-24 12:49:00,
2013-01-24 05:50:00,9.0,2.7,26.34,NE,45,0.0,0.0,75,0.00,,---,0.00,VWS V14.01,2013-01-24 12:50:00,
2013-01-24 05:51:00,9.0,2.7,26.34,NE,45,0.0,0.0,75,0.00,,---,0.00,VWS V14.01,2013-01-24 12:51:00,
2013-01-24 05:52:00,8.8,2.5,26.34,NE,45,0.9,2.2,75,0.00,,---,0.00,VWS V14.01,2013-01-24 12:52:00,
2013-01-24 05:53:00,9.0,2.7,26.34,NE,45,2.2,2.2,75,0.00,,---,0.00,VWS V14.01,2013-01-24 12:53:00,
2013-01-24 05:54:00,9.0,2.7,26.34,NE,45,2.2,2.2,75,0.00,,---,0.00,VWS V14.01,2013-01-24 12:54:00,
2013-01-24 05:55:00,9.0,2.7,26.34,NE,45,2.2,2.2,75,0.00,,---,0.00,VWS V14.01,2013-01-24 12:55:00,
2013-01-24 05:56:00,8.8,2.5,26.34,NE,45,2.2,2.2,75,0.00,,---,0.00,VWS V14.01,2013-01-24 12:56:00,
2013-01-24 05:57:00,9.0,2.7,26.34,North,0,0.0,1.3,75,0.00,,---,0.00,VWS V14.01,2013-01-24 12:57:00,
2013-01-24 05:58:00,8.8,2.5,26.34,NNE,22,0.0,0.9,75,0.00,,---,0.00,VWS V14.01,2013-01-24 12:58:00,
2013-01-24 05:59:00,8.8,2.5,26.34,NNE,22,1.3,1.3,75,0.00,,---,0.00,VWS V14.01,2013-01-24 12:59:00,
2013-01-24 06:00:00,8.8,2.5,26.34,NNE,22,1.3,1.3,75,0.00,,---,0.00,VWS V14.01,2013-01-24 13:00:00,
2013-01-24 06:01:00,8.8,2.5,26.34,NNE,22,1.3,1.3,75,0.00,,---,0.00,VWS V14.01,2013-01-24 13:01:00,
2013-01-24 06:02:00,9.0,2.7,26.37,North,0,1.1,1.1,75,0.00,,---,0.00,VWS V14.01,2013-01-24 13:02:00,
2013-01-24 06:03:00,9.0,2.7,26.37,North,0,0.0,0.0,75,0.00,,---,0.00,VWS V14.01,2013-01-24 13:03:00,
2013-01-24 06:04:00,9.0,2.7,26.37,North,0,1.3,1.3,75,0.00,,---,0.00,VWS V14.01,2013-01-24 13:04:00,
2013-01-24 06:05:00,9.0,2.7,26.37,North,0,1.1,1.3,75,0.00,,---,0.00,VWS V14.01,2013-01-24 13:05:00,
2013-01-24 06:06:00,9.0,2.7,26.37,North,0,1.1,1.1,75,0.00,,---,0.00,VWS V14.01,2013-01-24 13:06:00,
2013-01-24 06:07:00,9.0,2.7,26.37,NE,45,1.6,2.5,75,0.00,,---,0.00,VWS V14.01,2013-01-24 13:07:00,
2013-01-24 06:08:00,9.0,2.7,26.37,North,0,1.1,1.1,75,0.00,,---,0.00,VWS V14.01,2013-01-24 13:08:00,
2013-01-24 06:09:00,9.0,2.7,26.37,North,0,1.1,1.1,75,0.00,,---,0.00,VWS V14.01,2013-01-24 13:09:00,
2013-01-24 06:10:00,9.0,2.7,26.37,NNE,22,2.5,2.5,75,0.00,,---,0.00,VWS V14.01,2013-01-24 13:10:00,
2013-01-24 06:11:00,9.0,2.7,26.37,NNE,22,2.5,2.5,75,0.00,,---,0.00,VWS V14.01,2013-01-24 13:11:00,
2013-01-24 06:12:00,9.0,2.7,26.37,NE,45,1.6,1.6,75,0.00,,---,0.00,VWS V14.01,2013-01-24 13:12:00,
2013-01-24 06:13:00,9.0,2.7,26.37,NE,45,1.6,1.6,75,0.00,,---,0.00,VWS V14.01,2013-01-24 13:13:00,
2013-01-24 06:14:00,9.0,2.7,26.37,NE,45,1.6,1.6,75,0.00,,---,0.00,VWS V14.01,2013-01-24 13:14:00,
2013-01-24 06:15:00,9.0,2.7,26.37,NE,45,1.6,1.6,75,0.00,,---,0.00,VWS V14.01,2013-01-24 13:15:00,
2013-01-24 06:16:00,9.0,2.7,26.37,North,0,0.0,0.0,75,0.00,,---,0.00,VWS V14.01,2013-01-24 13:16:00,
2013-01-24 06:17:00,9.0,2.7,26.37,NE,45,1.6,1.6,75,0.00,,---,0.00,VWS V14.01,2013-01-24 13:17:00,
2013-01-24 06:18:00,9.0,2.7,26.37,NE,45,1.6,1.6,75,0.00,,---,0.00,VWS V14.01,2013-01-24 13:18:00,
2013-01-24 06:19:00,9.0,2.7,26.37,NE,45,1.6,1.6,75,0.00,,---,0.00,VWS V14.01,2013-01-24 13:19:00,
2013-01-24 06:20:00,9.0,2.7,26.37,NE,45,1.6,1.6,75,0.00,,---,0.00,VWS V14.01,2013-01-24 13:20:00,
2013-01-24 06:21:00,9.0,2.7,26.37,North,0,0.0,1.6,75,0.00,,---,0.00,VWS V14.01,2013-01-24 13:21:00,
2013-01-24 06:22:00,9.0,2.7,26.37,NNW,338,1.3,1.3,75,0.00,,---,0.00,VWS V14.01,2013-01-24 13:22:00,
2013-01-24 06:23:00,9.0,2.7,26.37,NNW,338,1.3,1.3,75,0.00,,---,0.00,VWS V14.01,2013-01-24 13:23:00,
2013-01-24 06:24:00,9.1,2.8,26.37,NNW,338,1.3,1.3,75,0.00,,---,0.00,VWS V14.01,2013-01-24 13:24:00,
2013-01-24 06:25:00,9.1,2.8,26.37,NNW,338,1.3,1.3,75,0.00,,---,0.00,VWS V14.01,2013-01-24 13:25:00,
2013-01-24 06:26:00,9.1,2.8,26.37,NNW,338,1.3,1.3,75,0.00,,---,0.00,VWS V14.01,2013-01-24 13:26:00,
2013-01-24 06:27:00,9.1,2.8,26.37,NE,45,0.0,0.0,75,0.00,,---,0.00,VWS V14.01,2013-01-24 13:27:00,
2013-01-24 06:28:00,9.1,2.8,26.37,NNE,22,0.0,0.0,75,0.00,,---,0.00,VWS V14.01,2013-01-24 13:28:00,
2013-01-24 06:29:00,9.1,2.8,26.37,NNW,338,1.1,1.1,75,0.00,,---,0.00,VWS V14.01,2013-01-24 13:29:00,
2013-01-24 06:30:00,9.1,2.8,26.37,NNW,338,0.0,1.1,75,0.00,,---,0.00,VWS V14.01,2013-01-24 13:30:00,
2013-01-24 06:31:00,9.1,2.8,26.37,NE,45,0.0,0.0,75,0.00,,---,0.00,VWS V14.01,2013-01-24 13:31:00,
2013-01-24 06:32:00,9.1,2.8,26.37,NNW,338,0.0,0.0,75,0.00,,---,0.00,VWS V14.01,2013-01-24 13:32:00,
2013-01-24 06:33:00,9.1,2.8,26.37,NNW,338,0.0,0.0,75,0.00,,---,0.00,VWS V14.01,2013-01-24 13:33:00,
2013-01-24 06:34:00,9.1,2.8,26.37,NNW,338,1.3,1.3,75,0.00,,---,0.00,VWS V14.01,2013-01-24 13:34:00,
2013-01-24 06:35:00,9.1,2.8,26.37,NNW,338,1.3,1.3,75,0.00,,---,0.00,VWS V14.01,2013-01-24 13:35:00,
2013-01-24 06:36:00,9.1,2.8,26.37,NNW,338,0.0,1.3,75,0.00,,---,0.00,VWS V14.01,2013-01-24 13:36:00,
2013-01-24 06:37:00,9.1,2.8,26.37,NNW,338,0.0,0.0,75,0.00,,---,0.00,VWS V14.01,2013-01-24 13:37:00,
2013-01-24 06:38:00,9.1,2.8,26.37,NNW,338,0.0,0.0,75,0.00,,---,0.00,VWS V14.01,2013-01-24 13:38:00,
2013-01-24 06:39:00,9.1,2.8,26.37,NNW,338,1.3,1.3,75,0.00,,---,0.00,VWS V14.01,2013-01-24 13:39:00,
2013-01-24 06:40:00,9.3,3.0,26.37,NNW,338,0.9,1.3,75,0.00,,---,0.00,VWS V14.01,2013-01-24 13:40:00,
2013-01-24 06:41:00,9.3,3.0,26.37,NNW,338,0.0,0.9,75,0.00,,---,0.00,VWS V14.01,2013-01-24 13:41:00,
2013-01-24 06:42:00,9.3,3.0,26.37,NNW,338,2.2,2.2,75,0.00,,---,0.00,VWS V14.01,2013-01-24 13:42:00,
2013-01-24 06:43:00,9.3,3.0,26.37,NNW,338,0.0,2.2,75,0.00,,---,0.00,VWS V14.01,2013-01-24 13:43:00,
2013-01-24 06:44:00,9.3,3.0,26.37,NNW,338,0.0,0.0,75,0.00,,---,0.00,VWS V14.01,2013-01-24 13:44:00,
2013-01-24 06:45:00,9.3,3.0,26.37,NNW,338,0.0,0.0,75,0.00,,---,0.00,VWS V14.01,2013-01-24 13:45:00,
2013-01-24 06:46:00,9.3,3.0,26.37,NNW,338,0.0,0.0,75,0.00,,---,0.00,VWS V14.01,2013-01-24 13:46:00,
2013-01-24 06:47:00,11.7,5.3,26.31,NW,315,2.2,2.2,75,0.00,,---,0.00,VWS V14.01,2013-01-24 13:47:00,
2013-01-24 06:48:00,9.3,3.0,26.37,NNW,338,0.0,0.0,75,0.00,,---,0.00,VWS V14.01,2013-01-24 13:48:00,
2013-01-24 06:49:00,9.3,3.0,26.37,NNW,338,1.3,1.3,75,0.00,,---,0.00,VWS V14.01,2013-01-24 13:49:00,
2013-01-24 06:50:00,9.5,3.2,26.37,NNW,338,1.3,1.3,75,0.00,,---,0.00,VWS V14.01,2013-01-24 13:50:00,
2013-01-24 06:51:00,9.5,3.2,26.37,NNW,338,0.9,1.3,75,0.00,,---,0.00,VWS V14.01,2013-01-24 13:51:00,
2013-01-24 06:52:00,9.5,3.2,26.37,NNW,338,1.3,1.3,75,0.00,,---,0.00,VWS V14.01,2013-01-24 13:52:00,
2013-01-24 06:53:00,9.5,3.2,26.37,NNW,338,0.0,1.3,75,0.00,,---,0.00,VWS V14.01,2013-01-24 13:53:00,
2013-01-24 06:54:00,9.5,3.2,26.37,NNW,338,0.0,0.0,75,0.00,,---,0.00,VWS V14.01,2013-01-24 13:54:00,
2013-01-24 06:55:00,9.7,3.4,26.37,NNW,338,0.0,0.0,75,0.00,,---,0.00,VWS V14.01,2013-01-24 13:55:00,
2013-01-24 06:56:00,9.7,3.4,26.37,NNW,338,0.0,0.0,75,0.00,,---,0.00,VWS V14.01,2013-01-24 13:56:00,
2013-01-24 06:57:00,9.7,3.4,26.37,NNW,338,2.0,2.0,75,0.00,,---,0.00,VWS V14.01,2013-01-24 13:57:00,
2013-01-24 06:58:00,9.7,3.4,26.37,NNW,338,1.6,2.0,75,0.00,,---,0.00,VWS V14.01,2013-01-24 13:58:00,
2013-01-24 06:59:00,9.7,3.4,26.37,NNW,338,1.1,1.6,75,0.00,,---,0.00,VWS V14.01,2013-01-24 13:59:00,
2013-01-24 07:00:00,9.7,3.4,26.37,NNW,338,1.1,1.1,75,0.00,,---,0.00,VWS V14.01,2013-01-24 14:00:00,
2013-01-24 07:01:00,12.2,5.8,26.31,NW,315,0.0,0.0,75,0.00,,---,0.00,VWS V14.01,2013-01-24 14:01:00,
2013-01-24 07:02:00,9.9,3.5,26.37,North,0,1.3,1.3,75,0.00,,---,0.00,VWS V14.01,2013-01-24 14:02:00,
2013-01-24 07:03:00,9.9,3.5,26.34,North,0,2.5,2.5,75,0.00,,---,0.00,VWS V14.01,2013-01-24 14:03:00,
2013-01-24 07:04:00,9.9,3.5,26.34,NNW,338,0.0,2.5,75,0.00,,---,0.00,VWS V14.01,2013-01-24 14:04:00,
2013-01-24 07:05:00,10.0,3.7,26.34,NNW,338,0.0,0.0,75,0.00,,---,0.00,VWS V14.01,2013-01-24 14:05:00,
2013-01-24 07:06:00,10.0,3.7,26.34,NNW,338,1.3,1.3,75,0.00,,---,0.00,VWS V14.01,2013-01-24 14:06:00,
2013-01-24 07:07:00,10.0,3.7,26.34,NNW,338,2.0,2.0,75,0.00,,---,0.00,VWS V14.01,2013-01-24 14:07:00,
2013-01-24 07:08:00,10.0,3.7,26.34,NNW,338,0.0,2.0,75,0.00,,---,0.00,VWS V14.01,2013-01-24 14:08:00,
2013-01-24 07:09:00,10.2,3.9,26.34,NNW,338,0.0,0.0,75,0.00,,---,0.00,VWS V14.01,2013-01-24 14:09:00,
2013-01-24 07:10:00,10.2,3.9,26.34,NNW,338,0.0,0.0,75,0.00,,---,0.00,VWS V14.01,2013-01-24 14:10:00,
2013-01-24 07:11:00,10.2,3.9,26.34,NNW,338,1.1,1.1,75,0.00,,---,0.00,VWS V14.01,2013-01-24 14:11:00,
2013-01-24 07:12:00,10.2,3.9,26.34,NNW,338,1.1,1.1,75,0.00,,---,0.00,VWS V14.01,2013-01-24 14:12:00,
2013-01-24 07:13:00,10.2,3.9,26.34,NNW,338,1.6,1.6,75,0.00,,---,0.00,VWS V14.01,2013-01-24 14:13:00,
2013-01-24 07:14:00,10.2,3.9,26.34,NNW,338,0.0,1.6,75,0.00,,---,0.00,VWS V14.01,2013-01-24 14:14:00,
2013-01-24 07:15:00,10.4,4.1,26.34,NNW,338,0.0,0.0,75,0.00,,---,0.00,VWS V14.01,2013-01-24 14:15:00,
2013-01-24 07:16:00,10.4,4.1,26.34,NNW,338,0.0,0.0,75,0.00,,---,0.00,VWS V14.01,2013-01-24 14:16:00,
2013-01-24 07:17:00,10.4,4.1,26.34,NNW,338,0.0,0.0,75,0.00,,---,0.00,VWS V14.01,2013-01-24 14:17:00,
2013-01-24 07:18:00,10.4,4.1,26.31,NNW,338,0.0,0.0,75,0.00,,---,0.00,VWS V14.01,2013-01-24 14:18:00,
2013-01-24 07:19:00,10.4,4.1,26.31,NNW,338,0.0,0.0,75,0.00,,---,0.00,VWS V14.01,2013-01-24 14:19:00,
2013-01-24 07:20:00,10.4,4.1,26.31,NNW,338,1.1,1.1,75,0.00,,---,0.00,VWS V14.01,2013-01-24 14:20:00,
2013-01-24 07:21:00,10.4,4.1,26.31,NNW,338,0.0,1.1,75,0.00,,---,0.00,VWS V14.01,2013-01-24 14:21:00,
2013-01-24 07:22:00,10.6,4.2,26.31,NNW,338,0.0,0.0,75,0.00,,---,0.00,VWS V14.01,2013-01-24 14:22:00,
2013-01-24 07:23:00,10.6,4.2,26.31,NNW,338,0.0,0.0,75,0.00,,---,0.00,VWS V14.01,2013-01-24 14:23:00,
2013-01-24 07:24:00,10.8,4.4,26.31,NNW,338,0.0,0.0,75,0.00,,---,0.00,VWS V14.01,2013-01-24 14:24:00,
2013-01-24 07:25:00,10.8,4.4,26.31,NNW,338,0.0,0.0,75,0.00,,---,0.00,VWS V14.01,2013-01-24 14:25:00,
2013-01-24 07:26:00,10.8,4.4,26.31,NNW,338,0.0,0.0,75,0.00,,---,0.00,VWS V14.01,2013-01-24 14:26:00,
2013-01-24 07:27:00,10.8,4.4,26.31,NNW,338,0.0,0.0,75,0.00,,---,0.00,VWS V14.01,2013-01-24 14:27:00,
2013-01-24 07:28:00,10.8,4.4,26.31,NNW,338,0.0,0.0,75,0.00,,---,0.00,VWS V14.01,2013-01-24 14:28:00,
2013-01-24 07:29:00,10.8,4.4,26.31,NNW,338,1.3,1.3,75,0.00,,---,0.00,VWS V14.01,2013-01-24 14:29:00,
2013-01-24 07:30:00,10.8,4.4,26.31,WNW,292,2.0,2.0,75,0.00,,---,0.00,VWS V14.01,2013-01-24 14:30:00,
2013-01-24 07:31:00,10.9,4.6,26.31,WNW,292,2.0,2.0,75,0.00,,---,0.00,VWS V14.01,2013-01-24 14:31:00,
2013-01-24 07:32:00,10.9,4.6,26.31,WNW,292,0.0,2.0,75,0.00,,---,0.00,VWS V14.01,2013-01-24 14:32:00,
2013-01-24 07:33:00,10.9,4.6,26.31,WNW,292,0.0,0.0,75,0.00,,---,0.00,VWS V14.01,2013-01-24 14:33:00,
2013-01-24 07:34:00,10.9,4.6,26.31,WNW,292,2.2,2.2,75,0.00,,---,0.00,VWS V14.01,2013-01-24 14:34:00,
2013-01-24 07:35:00,11.1,4.8,26.31,North,0,2.0,2.2,75,0.00,,---,0.00,VWS V14.01,2013-01-24 14:35:00,
2013-01-24 07:36:00,11.1,4.8,26.31,NNW,338,1.3,2.0,75,0.00,,---,0.00,VWS V14.01,2013-01-24 14:36:00,
2013-01-24 07:37:00,14.5,11.4,26.34,NNW,338,2.5,2.5,87,0.00,,---,0.00,VWS V14.01,2013-01-24 14:37:00,
2013-01-24 07:38:00,11.1,4.8,26.31,NNW,338,1.3,1.3,75,0.00,,---,0.00,VWS V14.01,2013-01-24 14:38:00,
2013-01-24 07:39:00,11.3,4.9,26.31,NNW,338,0.9,1.3,75,0.00,,---,0.00,VWS V14.01,2013-01-24 14:39:00,
2013-01-24 07:40:00,11.3,4.9,26.31,NNW,338,0.0,0.9,75,0.00,,---,0.00,VWS V14.01,2013-01-24 14:40:00,
2013-01-24 07:41:00,11.3,4.9,26.31,NNW,338,1.3,1.3,75,0.00,,---,0.00,VWS V14.01,2013-01-24 14:41:00,
2013-01-24 07:42:00,11.3,4.9,26.31,NNW,338,0.0,1.3,75,0.00,,---,0.00,VWS V14.01,2013-01-24 14:42:00,
2013-01-24 07:43:00,11.3,4.9,26.31,NNW,338,0.0,0.0,75,0.00,,---,0.00,VWS V14.01,2013-01-24 14:43:00,
2013-01-24 07:44:00,11.5,5.1,26.31,NNW,338,0.0,0.0,75,0.00,,---,0.00,VWS V14.01,2013-01-24 14:44:00,
2013-01-24 07:45:00,11.5,5.1,26.31,NNW,338,0.0,0.0,75,0.00,,---,0.00,VWS V14.01,2013-01-24 14:45:00,
2013-01-24 07:46:00,11.5,5.1,26.31,NW,315,2.2,2.2,75,0.00,,---,0.00,VWS V14.01,2013-01-24 14:46:00,
2013-01-24 07:47:00,11.7,5.3,26.31,NW,315,2.2,2.2,75,0.00,,---,0.00,VWS V14.01,2013-01-24 14:47:00,
2013-01-24 07:48:00,11.7,5.3,26.31,NW,315,2.2,2.2,75,0.00,,---,0.00,VWS V14.01,2013-01-24 14:48:00,
2013-01-24 07:49:00,11.7,5.3,26.31,NW,315,2.2,2.2,75,0.00,,---,0.00,VWS V14.01,2013-01-24 14:49:00,
2013-01-24 07:50:00,11.7,5.3,26.31,NNW,338,0.0,2.2,75,0.00,,---,0.00,VWS V14.01,2013-01-24 14:50:00,
2013-01-24 07:51:00,11.8,5.5,26.31,NNW,338,0.0,0.0,75,0.00,,---,0.00,VWS V14.01,2013-01-24 14:51:00,
2013-01-24 07:52:00,11.8,5.5,26.31,NNW,338,0.0,0.0,75,0.00,,---,0.00,VWS V14.01,2013-01-24 14:52:00,
2013-01-24 07:53:00,11.8,5.5,26.31,NNW,338,0.9,0.9,75,0.00,,---,0.00,VWS V14.01,2013-01-24 14:53:00,
2013-01-24 07:54:00,11.8,5.5,26.31,North,0,0.0,0.9,75,0.00,,---,0.00,VWS V14.01,2013-01-24 14:54:00,
2013-01-24 07:55:00,12.0,5.6,26.31,NW,315,2.0,2.0,75,0.00,,---,0.00,VWS V14.01,2013-01-24 14:55:00,
2013-01-24 07:56:00,12.0,5.6,26.31,NW,315,0.0,2.0,75,0.00,,---,0.00,VWS V14.01,2013-01-24 14:56:00,
2013-01-24 07:57:00,12.0,5.6,26.31,NW,315,0.0,0.0,75,0.00,,---,0.00,VWS V14.01,2013-01-24 14:57:00,
2013-01-24 07:58:00,12.2,5.8,26.31,NW,315,0.0,0.0,75,0.00,,---,0.00,VWS V14.01,2013-01-24 14:58:00,
2013-01-24 07:59:00,12.2,5.8,26.31,NW,315,0.0,0.0,75,0.00,,---,0.00,VWS V14.01,2013-01-24 14:59:00,
2013-01-24 08:00:00,12.2,5.8,26.31,NW,315,0.0,0.0,75,0.00,,---,0.00,VWS V14.01,2013-01-24 15:00:00,
2013-01-24 08:01:00,12.2,5.8,26.31,NW,315,0.0,0.0,75,0.00,,---,0.00,VWS V14.01,2013-01-24 15:01:00,
2013-01-24 08:02:00,12.4,6.0,26.31,NW,315,0.0,0.0,75,0.00,,---,0.00,VWS V14.01,2013-01-24 15:02:00,
2013-01-24 08:03:00,12.6,6.2,26.31,NW,315,0.0,0.0,75,0.00,,---,0.00,VWS V14.01,2013-01-24 15:03:00,
2013-01-24 08:04:00,12.6,6.2,26.31,NW,315,0.0,0.0,75,0.00,,---,0.00,VWS V14.01,2013-01-24 15:04:00,
2013-01-24 08:05:00,12.6,6.2,26.31,NW,315,0.0,0.0,75,0.00,,---,0.00,VWS V14.01,2013-01-24 15:05:00,
2013-01-24 08:06:00,12.6,6.2,26.31,NW,315,0.0,0.0,75,0.00,,---,0.00,VWS V14.01,2013-01-24 15:06:00,
2013-01-24 08:07:00,12.7,6.3,26.31,NW,315,0.0,0.0,75,0.00,,---,0.00,VWS V14.01,2013-01-24 15:07:00,
2013-01-24 08:08:00,12.7,6.3,26.31,NW,315,0.0,0.0,75,0.00,,---,0.00,VWS V14.01,2013-01-24 15:08:00,
2013-01-24 08:09:00,12.7,6.3,26.31,NW,315,0.0,0.0,75,0.00,,---,0.00,VWS V14.01,2013-01-24 15:09:00,
2013-01-24 08:10:00,12.9,6.5,26.31,NW,315,0.0,0.0,75,0.00,,---,0.00,VWS V14.01,2013-01-24 15:10:00,
2013-01-24 08:11:00,16.2,11.4,26.31,NNW,338,1.6,1.6,81,0.00,,---,0.00,VWS V14.01,2013-01-24 15:11:00,
2013-01-24 08:12:00,13.1,6.7,26.31,NW,315,0.0,0.0,75,0.00,,---,0.00,VWS V14.01,2013-01-24 15:12:00,
2013-01-24 08:13:00,13.1,6.7,26.31,NW,315,0.0,0.0,75,0.00,,---,0.00,VWS V14.01,2013-01-24 15:13:00,
2013-01-24 08:14:00,13.3,6.8,26.31,NE,45,0.0,0.0,75,0.00,,---,0.00,VWS V14.01,2013-01-24 15:14:00,
2013-01-24 08:15:00,13.3,6.8,26.31,North,0,1.6,1.6,75,0.00,,---,0.00,VWS V14.01,2013-01-24 15:15:00,
2013-01-24 08:16:00,13.3,6.8,26.31,NNE,22,1.1,1.6,75,0.00,,---,0.00,VWS V14.01,2013-01-24 15:16:00,
2013-01-24 08:17:00,13.5,7.0,26.31,NNE,22,0.0,1.1,75,0.00,,---,0.00,VWS V14.01,2013-01-24 15:17:00,
2013-01-24 08:18:00,13.5,7.0,26.31,North,0,0.0,0.0,75,0.00,,---,0.00,VWS V14.01,2013-01-24 15:18:00,
2013-01-24 08:19:00,13.5,7.0,26.31,North,0,0.0,0.0,75,0.00,,---,0.00,VWS V14.01,2013-01-24 15:19:00,
2013-01-24 08:20:00,13.5,7.0,26.31,NNE,22,1.3,1.3,75,0.00,,---,0.00,VWS V14.01,2013-01-24 15:20:00,
2013-01-24 08:21:00,13.5,7.0,26.31,North,0,2.0,2.0,75,0.00,,---,0.00,VWS V14.01,2013-01-24 15:21:00,
2013-01-24 08:22:00,13.6,7.2,26.31,North,0,0.0,2.0,75,0.00,,---,0.00,VWS V14.01,2013-01-24 15:22:00,
2013-01-24 08:23:00,13.6,7.2,26.31,North,0,0.0,0.0,75,0.00,,---,0.00,VWS V14.01,2013-01-24 15:23:00,
2013-01-24 08:24:00,13.8,7.4,26.31,North,0,1.3,1.3,75,0.00,,---,0.00,VWS V14.01,2013-01-24 15:24:00,
2013-01-24 08:25:00,13.8,7.4,26.31,North,0,0.0,1.3,75,0.00,,---,0.00,VWS V14.01,2013-01-24 15:25:00,
2013-01-24 08:26:00,13.8,7.4,26.31,North,0,0.9,0.9,75,0.00,,---,0.00,VWS V14.01,2013-01-24 15:26:00,
2013-01-24 08:27:00,14.0,11.1,26.31,North,0,0.0,0.9,88,0.00,,---,0.00,VWS V14.01,2013-01-24 15:27:00,
2013-01-24 08:28:00,14.2,11.0,26.31,NNW,338,2.9,2.9,87,0.00,,---,0.00,VWS V14.01,2013-01-24 15:28:00,
2013-01-24 08:29:00,14.2,11.0,26.31,NNW,338,1.6,2.9,87,0.00,,---,0.00,VWS V14.01,2013-01-24 15:29:00,
2013-01-24 08:30:00,14.2,11.0,26.31,NNW,338,1.1,1.6,87,0.00,,---,0.00,VWS V14.01,2013-01-24 15:30:00,
2013-01-24 08:31:00,14.2,11.0,26.31,NNW,338,1.3,1.3,87,0.00,,---,0.00,VWS V14.01,2013-01-24 15:31:00,
2013-01-24 08:32:00,14.4,11.2,26.31,NNW,338,1.1,1.3,87,0.00,,---,0.00,VWS V14.01,2013-01-24 15:32:00,
2013-01-24 08:33:00,14.4,11.2,26.34,NNW,338,0.0,1.1,87,0.00,,---,0.00,VWS V14.01,2013-01-24 15:33:00,
2013-01-24 08:34:00,14.4,11.2,26.34,NW,315,0.0,0.0,87,0.00,,---,0.00,VWS V14.01,2013-01-24 15:34:00,
2013-01-24 08:35:00,14.5,11.4,26.34,NNW,338,2.2,2.2,87,0.00,,---,0.00,VWS V14.01,2013-01-24 15:35:00,
2013-01-24 08:36:00,14.5,11.4,26.34,WNW,292,1.3,2.2,87,0.00,,---,0.00,VWS V14.01,2013-01-24 15:36:00,
2013-01-24 08:37:00,14.5,11.4,26.34,NNW,338,2.5,2.5,87,0.00,,---,0.00,VWS V14.01,2013-01-24 15:37:00,
2013-01-24 08:38:00,14.5,11.1,26.34,WNW,292,1.3,2.5,86,0.00,,---,0.00,VWS V14.01,2013-01-24 15:38:00,
2013-01-24 08:39:00,21.4,14.4,26.34,ENE,68,2.7,2.7,74,0.00,,---,0.00,VWS V14.01,2013-01-24 15:39:00,
2013-01-24 08:40:00,14.7,11.3,26.34,NNE,22,2.0,2.0,86,0.00,,---,0.00,VWS V14.01,2013-01-24 15:40:00,
2013-01-24 08:41:00,14.7,11.3,26.34,North,0,2.2,2.2,86,0.00,,---,0.00,VWS V14.01,2013-01-24 15:41:00,
2013-01-24 08:42:00,14.9,11.5,26.34,North,0,0.0,2.2,86,0.00,,---,0.00,VWS V14.01,2013-01-24 15:42:00,
2013-01-24 08:43:00,14.9,11.5,26.34,North,0,0.0,0.0,86,0.00,,---,0.00,VWS V14.01,2013-01-24 15:43:00,
2013-01-24 08:44:00,15.1,11.7,26.34,North,0,0.0,0.0,86,0.00,,---,0.00,VWS V14.01,2013-01-24 15:44:00,
2013-01-24 08:45:00,15.1,11.7,26.34,North,0,1.1,1.1,86,0.00,,---,0.00,VWS V14.01,2013-01-24 15:45:00,
2013-01-24 08:46:00,15.1,11.7,26.34,North,0,0.0,1.1,86,0.00,,---,0.00,VWS V14.01,2013-01-24 15:46:00,
2013-01-24 08:47:00,15.3,11.8,26.34,North,0,1.3,1.3,86,0.00,,---,0.00,VWS V14.01,2013-01-24 15:47:00,
2013-01-24 08:48:00,15.3,11.8,26.31,North,0,1.3,1.3,86,0.00,,---,0.00,VWS V14.01,2013-01-24 15:48:00,
2013-01-24 08:49:00,15.4,11.8,26.31,NNE,22,1.1,1.3,85,0.00,,---,0.00,VWS V14.01,2013-01-24 15:49:00,
2013-01-24 08:50:00,15.4,11.8,26.31,NNE,22,2.0,2.0,85,0.00,,---,0.00,VWS V14.01,2013-01-24 15:50:00,
2013-01-24 08:51:00,15.4,11.8,26.31,NNW,338,2.5,2.5,85,0.00,,---,0.00,VWS V14.01,2013-01-24 15:51:00,
2013-01-24 08:52:00,15.4,11.8,26.31,WNW,292,0.9,2.5,85,0.00,,---,0.00,VWS V14.01,2013-01-24 15:52:00,
2013-01-24 08:53:00,15.4,11.8,26.31,WNW,292,0.0,0.9,85,0.00,,---,0.00,VWS V14.01,2013-01-24 15:53:00,
2013-01-24 08:54:00,15.4,11.5,26.31,WNW,292,0.0,0.0,84,0.00,,---,0.00,VWS V14.01,2013-01-24 15:54:00,
2013-01-24 08:55:00,15.4,11.5,26.31,WNW,292,2.0,2.0,84,0.00,,---,0.00,VWS V14.01,2013-01-24 15:55:00,
2013-01-24 08:56:00,15.4,11.5,26.31,WNW,292,0.0,2.0,84,0.00,,---,0.00,VWS V14.01,2013-01-24 15:56:00,
2013-01-24 08:57:00,15.4,11.2,26.31,North,0,1.6,1.6,83,0.00,,---,0.00,VWS V14.01,2013-01-24 15:57:00,
2013-01-24 08:58:00,15.4,11.2,26.31,NE,45,1.6,1.6,83,0.00,,---,0.00,VWS V14.01,2013-01-24 15:58:00,
2013-01-24 08:59:00,15.4,11.2,26.31,North,0,0.0,1.6,83,0.00,,---,0.00,VWS V14.01,2013-01-24 15:59:00,
2013-01-24 09:00:00,15.6,11.4,26.31,NNW,338,1.6,1.6,83,0.00,,---,0.00,VWS V14.01,2013-01-24 16:00:00,
2013-01-24 09:01:00,15.6,11.4,26.31,NNW,338,2.2,2.2,83,0.00,,---,0.00,VWS V14.01,2013-01-24 16:01:00,
2013-01-24 09:02:00,15.6,11.4,26.31,NNW,338,1.3,2.2,83,0.00,,---,0.00,VWS V14.01,2013-01-24 16:02:00,
2013-01-24 09:03:00,15.4,10.9,26.31,NNW,338,0.0,1.3,82,0.00,,---,0.00,VWS V14.01,2013-01-24 16:03:00,
2013-01-24 09:04:00,15.6,11.1,26.31,NNW,338,0.0,0.0,82,0.00,,---,0.00,VWS V14.01,2013-01-24 16:04:00,
2013-01-24 09:05:00,15.8,11.3,26.31,NNE,22,1.1,1.1,82,0.00,,---,0.00,VWS V14.01,2013-01-24 16:05:00,
2013-01-24 09:06:00,15.8,11.3,26.31,NNW,338,0.0,1.1,82,0.00,,---,0.00,VWS V14.01,2013-01-24 16:06:00,
2013-01-24 09:07:00,15.8,11.3,26.31,NNW,338,1.1,1.1,82,0.00,,---,0.00,VWS V14.01,2013-01-24 16:07:00,
2013-01-24 09:08:00,16.0,11.5,26.31,NNE,22,2.0,2.0,82,0.00,,---,0.00,VWS V14.01,2013-01-24 16:08:00,
2013-01-24 09:09:00,16.0,11.5,26.31,NNE,22,1.1,2.0,82,0.00,,---,0.00,VWS V14.01,2013-01-24 16:09:00,
2013-01-24 09:10:00,16.2,11.4,26.31,NNE,22,1.6,1.6,81,0.00,,---,0.00,VWS V14.01,2013-01-24 16:10:00,
2013-01-24 09:11:00,16.2,11.4,26.31,NNW,338,1.6,1.6,81,0.00,,---,0.00,VWS V14.01,2013-01-24 16:11:00,
2013-01-24 09:12:00,16.2,11.4,26.31,NNW,338,1.3,1.6,81,0.00,,---,0.00,VWS V14.01,2013-01-24 16:12:00,
2013-01-24 09:13:00,26.1,14.1,26.31,NNW,338,3.8,4.0,60,0.00,,---,0.00,VWS V14.01,2013-01-24 16:13:00,
2013-01-24 09:14:00,16.3,11.5,26.31,North,0,2.9,2.9,81,0.00,,---,0.00,VWS V14.01,2013-01-24 16:14:00,
2013-01-24 09:15:00,16.3,11.5,26.31,North,0,0.0,2.9,81,0.00,,---,0.00,VWS V14.01,2013-01-24 16:15:00,
2013-01-24 09:16:00,16.7,11.9,26.31,NE,45,2.7,2.7,81,0.00,,---,0.00,VWS V14.01,2013-01-24 16:16:00,
2013-01-24 09:17:00,16.7,11.9,26.31,NNE,22,2.2,2.7,81,0.00,,---,0.00,VWS V14.01,2013-01-24 16:17:00,
2013-01-24 09:18:00,17.1,12.2,26.34,NNW,338,1.1,2.2,81,0.00,,---,0.00,VWS V14.01,2013-01-24 16:18:00,
2013-01-24 09:19:00,27.1,14.3,26.31,NNW,338,2.7,2.9,58,0.00,,---,0.00,VWS V14.01,2013-01-24 16:19:00,
2013-01-24 09:20:00,17.4,12.3,26.34,North,0,2.9,2.9,80,0.00,,---,0.00,VWS V14.01,2013-01-24 16:20:00,
2013-01-24 09:21:00,17.6,12.5,26.34,NE,45,1.1,2.9,80,0.00,,---,0.00,VWS V14.01,2013-01-24 16:21:00,
2013-01-24 09:22:00,17.8,12.7,26.34,NNE,22,3.8,3.8,80,0.00,,---,0.00,VWS V14.01,2013-01-24 16:22:00,
2013-01-24 09:23:00,17.8,12.4,26.34,NE,45,3.6,3.8,79,0.00,,---,0.00,VWS V14.01,2013-01-24 16:23:00,
2013-01-24 09:24:00,18.1,12.7,26.34,NNW,338,2.9,3.6,79,0.00,,---,0.00,VWS V14.01,2013-01-24 16:24:00,
2013-01-24 09:25:00,18.3,12.9,26.34,NW,315,0.0,2.9,79,0.00,,---,0.00,VWS V14.01,2013-01-24 16:25:00,
2013-01-24 09:26:00,18.9,13.4,26.34,NW,315,0.0,0.0,79,0.00,,---,0.00,VWS V14.01,2013-01-24 16:26:00,
2013-01-24 09:27:00,19.0,13.6,26.34,NW,315,2.0,2.0,79,0.00,,---,0.00,VWS V14.01,2013-01-24 16:27:00,
2013-01-24 09:28:00,19.2,13.5,26.34,NW,315,0.0,2.0,78,0.00,,---,0.00,VWS V14.01,2013-01-24 16:28:00,
2013-01-24 09:29:00,19.4,13.7,26.34,NW,315,0.0,0.0,78,0.00,,---,0.00,VWS V14.01,2013-01-24 16:29:00,
2013-01-24 09:30:00,19.4,13.4,26.34,NW,315,0.0,0.0,77,0.00,,---,0.00,VWS V14.01,2013-01-24 16:30:00,
2013-01-24 09:31:00,19.6,13.3,26.34,NNW,338,1.3,1.3,76,0.00,,---,0.00,VWS V14.01,2013-01-24 16:31:00,
2013-01-24 09:32:00,19.8,13.7,26.34,ENE,68,2.0,2.0,77,0.00,,---,0.00,VWS V14.01,2013-01-24 16:32:00,
2013-01-24 09:33:00,20.3,14.0,26.34,ENE,68,1.6,2.0,76,0.00,,---,0.00,VWS V14.01,2013-01-24 16:33:00,
2013-01-24 09:34:00,20.5,14.1,26.34,ENE,68,0.0,1.6,76,0.00,,---,0.00,VWS V14.01,2013-01-24 16:34:00,
2013-01-24 09:35:00,20.7,14.6,26.34,East,90,2.5,2.5,77,0.00,,---,0.00,VWS V14.01,2013-01-24 16:35:00,
2013-01-24 09:36:00,20.7,14.3,26.34,ENE,68,0.0,2.5,76,0.00,,---,0.00,VWS V14.01,2013-01-24 16:36:00,
2013-01-24 09:37:00,21.0,14.7,26.34,NE,45,3.4,3.4,76,0.00,,---,0.00,VWS V14.01,2013-01-24 16:37:00,
2013-01-24 09:38:00,21.2,14.5,26.34,East,90,1.6,3.4,75,0.00,,---,0.00,VWS V14.01,2013-01-24 16:38:00,
2013-01-24 09:39:00,21.4,14.4,26.34,ENE,68,2.7,2.7,74,0.00,,---,0.00,VWS V14.01,2013-01-24 16:39:00,
2013-01-24 09:40:00,21.4,14.1,26.34,North,0,1.1,2.7,73,0.00,,---,0.00,VWS V14.01,2013-01-24 16:40:00,
2013-01-24 09:41:00,22.1,15.1,26.34,WNW,292,0.0,1.1,74,0.00,,---,0.00,VWS V14.01,2013-01-24 16:41:00,
2013-01-24 09:42:00,22.1,14.8,26.34,South,180,2.2,2.2,73,0.00,,---,0.00,VWS V14.01,2013-01-24 16:42:00,
2013-01-24 09:43:00,22.1,14.8,26.34,SE,135,2.9,2.9,73,0.00,,---,0.00,VWS V14.01,2013-01-24 16:43:00,
2013-01-24 09:44:00,22.5,15.1,26.34,South,180,2.0,2.9,73,0.00,,---,0.00,VWS V14.01,2013-01-24 16:44:00,
2013-01-24 09:45:00,22.5,14.5,26.34,South,180,2.0,2.0,71,0.00,,---,0.00,VWS V14.01,2013-01-24 16:45:00,
2013-01-24 09:46:00,22.6,14.0,26.34,South,180,1.3,2.0,69,0.00,,---,0.00,VWS V14.01,2013-01-24 16:46:00,
2013-01-24 09:47:00,22.6,14.0,26.34,South,180,2.5,2.5,69,0.00,,---,0.00,VWS V14.01,2013-01-24 16:47:00,
2013-01-24 09:48:00,23.0,14.4,26.31,South,180,3.6,3.6,69,0.00,,---,0.00,VWS V14.01,2013-01-24 16:48:00,
2013-01-24 09:49:00,23.0,14.0,26.31,ESE,112,3.4,3.6,68,0.00,,---,0.00,VWS V14.01,2013-01-24 16:49:00,
2013-01-24 09:50:00,23.2,13.9,26.31,South,180,1.3,3.4,67,0.00,,---,0.00,VWS V14.01,2013-01-24 16:50:00,
2013-01-24 09:51:00,23.4,14.0,26.31,South,180,0.0,1.3,67,0.00,,---,0.00,VWS V14.01,2013-01-24 16:51:00,
2013-01-24 09:52:00,23.5,14.2,26.31,SSE,158,2.7,2.7,67,0.00,,---,0.00,VWS V14.01,2013-01-24 16:52:00,
2013-01-24 09:53:00,23.5,14.2,26.31,SSE,158,0.0,2.7,67,0.00,,---,0.00,VWS V14.01,2013-01-24 16:53:00,
2013-01-24 09:54:00,23.7,14.4,26.31,ENE,68,2.5,2.5,67,0.00,,---,0.00,VWS V14.01,2013-01-24 16:54:00,
2013-01-24 09:55:00,23.5,13.9,26.31,East,90,1.6,2.5,66,0.00,,---,0.00,VWS V14.01,2013-01-24 16:55:00,
2013-01-24 09:56:00,23.7,14.4,26.31,East,90,1.6,1.6,67,0.00,,---,0.00,VWS V14.01,2013-01-24 16:56:00,
2013-01-24 09:57:00,24.3,15.2,26.31,South,180,0.0,1.6,68,0.00,,---,0.00,VWS V14.01,2013-01-24 16:57:00,
2013-01-24 09:58:00,24.3,15.2,26.31,South,180,0.0,0.0,68,0.00,,---,0.00,VWS V14.01,2013-01-24 16:58:00,
2013-01-24 09:59:00,25.0,15.9,26.31,SSE,158,2.5,2.5,68,0.00,,---,0.00,VWS V14.01,2013-01-24 16:59:00,
2013-01-24 10:00:00,25.3,16.3,26.31,ENE,68,0.0,2.5,68,0.00,,---,0.00,VWS V14.01,2013-01-24 17:00:00,
2013-01-24 10:01:00,25.3,15.9,26.31,SE,135,2.0,2.0,67,0.00,,---,0.00,VWS V14.01,2013-01-24 17:01:00,
2013-01-24 10:02:00,25.5,15.8,26.31,South,180,0.0,2.0,66,0.00,,---,0.00,VWS V14.01,2013-01-24 17:02:00,
2013-01-24 10:03:00,25.9,16.5,26.31,SSW,202,0.9,0.9,67,0.00,,---,0.00,VWS V14.01,2013-01-24 17:03:00,
2013-01-24 10:04:00,25.5,15.4,26.31,NNW,338,2.5,2.5,65,0.00,,---,0.00,VWS V14.01,2013-01-24 17:04:00,
2013-01-24 10:05:00,25.9,16.1,26.31,NNW,338,2.0,2.5,66,0.00,,---,0.00,VWS V14.01,2013-01-24 17:05:00,
2013-01-24 10:06:00,25.7,15.9,26.31,North,0,2.5,2.5,66,0.00,,---,0.00,VWS V14.01,2013-01-24 17:06:00,
2013-01-24 10:07:00,25.7,15.2,26.31,NNW,338,2.5,2.5,64,0.00,,---,0.00,VWS V14.01,2013-01-24 17:07:00,
2013-01-24 10:08:00,25.9,15.0,26.31,NE,45,3.1,3.1,63,0.00,,---,0.00,VWS V14.01,2013-01-24 17:08:00,
2013-01-24 10:09:00,26.1,15.2,26.31,NNW,338,2.7,3.1,63,0.00,,---,0.00,VWS V14.01,2013-01-24 17:09:00,
2013-01-24 10:10:00,26.1,14.8,26.31,North,0,4.0,4.0,62,0.00,,---,0.00,VWS V14.01,2013-01-24 17:10:00,
2013-01-24 10:11:00,26.4,14.8,26.31,NNW,338,1.6,4.0,61,0.00,,---,0.00,VWS V14.01,2013-01-24 17:11:00,
2013-01-24 10:12:00,26.2,14.3,26.31,NNW,338,4.0,4.0,60,0.00,,---,0.00,VWS V14.01,2013-01-24 17:12:00,
2013-01-24 10:13:00,26.1,14.1,26.31,NNW,338,3.8,4.0,60,0.00,,---,0.00,VWS V14.01,2013-01-24 17:13:00,
2013-01-24 10:14:00,26.2,13.9,26.31,NNW,338,2.7,3.8,59,0.00,,---,0.00,VWS V14.01,2013-01-24 17:14:00,
2013-01-24 10:15:00,26.2,13.9,26.31,NE,45,1.6,2.7,59,0.00,,---,0.00,VWS V14.01,2013-01-24 17:15:00,
2013-01-24 10:16:00,26.6,14.6,26.31,North,0,2.5,2.5,60,0.00,,---,0.00,VWS V14.01,2013-01-24 17:16:00,
2013-01-24 10:17:00,26.8,14.4,26.31,NNW,338,2.5,2.5,59,0.00,,---,0.00,VWS V14.01,2013-01-24 17:17:00,
2013-01-24 10:18:00,27.0,14.2,26.31,NNW,338,2.9,2.9,58,0.00,,---,0.00,VWS V14.01,2013-01-24 17:18:00,
2013-01-24 10:19:00,27.1,14.3,26.31,NNW,338,2.7,2.9,58,0.00,,---,0.00,VWS V14.01,2013-01-24 17:19:00,
2013-01-24 10:20:00,27.1,14.3,26.31,NNW,338,2.5,2.7,58,0.00,,---,0.00,VWS V14.01,2013-01-24 17:20:00,
2013-01-24 10:21:00,27.0,14.2,26.31,NNW,338,5.6,5.6,58,0.00,,---,0.00,VWS V14.01,2013-01-24 17:21:00,
2013-01-24 10:22:00,26.8,13.6,26.31,North,0,3.4,5.6,57,0.00,,---,0.00,VWS V14.01,2013-01-24 17:22:00,
2013-01-24 10:23:00,27.0,13.8,26.31,NNW,338,1.1,3.4,57,0.00,,---,0.00,VWS V14.01,2013-01-24 17:23:00,
2013-01-24 10:24:00,27.1,14.3,26.31,NNW,338,0.0,1.1,58,0.00,,---,0.00,VWS V14.01,2013-01-24 17:24:00,
2013-01-24 10:25:00,27.3,14.5,26.31,North,0,5.4,5.4,58,0.00,,---,0.00,VWS V14.01,2013-01-24 17:25:00,
2013-01-24 10:26:00,27.0,13.8,26.31,NNW,338,2.9,5.4,57,0.00,,---,0.00,VWS V14.01,2013-01-24 17:26:00,
2013-01-24 10:27:00,27.1,13.9,26.31,NNE,22,2.9,2.9,57,0.00,,---,0.00,VWS V14.01,2013-01-24 17:27:00,
2013-01-24 10:28:00,27.1,13.9,26.31,North,0,3.6,3.6,57,0.00,,---,0.00,VWS V14.01,2013-01-24 17:28:00,
2013-01-24 10:29:00,27.3,14.1,26.31,NNW,338,2.5,3.6,57,0.00,,---,0.00,VWS V14.01,2013-01-24 17:29:00,
2013-01-24 10:30:00,27.5,14.3,26.31,NNW,338,1.6,2.5,57,0.00,,---,0.00,VWS V14.01,2013-01-24 17:30:00,
2013-01-24 10:31:00,27.7,14.4,26.31,NNW,338,2.5,2.5,57,0.00,,---,0.00,VWS V14.01,2013-01-24 17:31:00,
2013-01-24 10:32:00,27.7,14.4,26.31,NNW,338,1.1,2.5,57,0.00,,---,0.00,VWS V14.01,2013-01-24 17:32:00,
2013-01-24 10:33:00,27.9,14.6,26.34,NW,315,1.3,1.3,57,0.00,,---,0.00,VWS V14.01,2013-01-24 17:33:00,
2013-01-24 10:34:00,28.0,14.8,26.34,NNW,338,3.8,3.8,57,0.00,,---,0.00,VWS V14.01,2013-01-24 17:34:00,
2013-01-24 10:35:00,28.0,14.8,26.34,NNW,338,2.9,3.8,57,0.00,,---,0.00,VWS V14.01,2013-01-24 17:35:00,
2013-01-24 10:36:00,28.0,14.8,26.34,North,0,4.3,4.3,57,0.00,,---,0.00,VWS V14.01,2013-01-24 17:36:00,
2013-01-24 10:37:00,28.2,15.0,26.34,NW,315,1.6,4.3,57,0.00,,---,0.00,VWS V14.01,2013-01-24 17:37:00,
2013-01-24 10:38:00,28.2,15.0,26.34,NW,315,3.1,3.1,57,0.00,,---,0.00,VWS V14.01,2013-01-24 17:38:00,
2013-01-24 10:39:00,28.8,15.1,26.34,North,0,2.5,3.1,56,0.00,,---,0.00,VWS V14.01,2013-01-24 17:39:00,
2013-01-24 10:40:00,28.8,15.1,26.34,NNW,338,4.0,4.0,56,0.00,,---,0.00,VWS V14.01,2013-01-24 17:40:00,
2013-01-24 10:41:00,29.1,15.4,26.34,NNW,338,1.3,4.0,56,0.00,,---,0.00,VWS V14.01,2013-01-24 17:41:00,
2013-01-24 10:42:00,29.3,15.6,26.34,NW,315,3.1,3.1,56,0.00,,---,0.00,VWS V14.01,2013-01-24 17:42:00,
2013-01-24 10:43:00,29.1,15.4,26.34,NW,315,2.9,3.1,56,0.00,,---,0.00,VWS V14.01,2013-01-24 17:43:00,
2013-01-24 10:44:00,28.9,15.2,26.34,NNW,338,2.7,2.9,56,0.00,,---,0.00,VWS V14.01,2013-01-24 17:44:00,
2013-01-24 10:45:00,29.5,15.7,26.34,NW,315,2.2,2.7,56,0.00,,---,0.00,VWS V14.01,2013-01-24 17:45:00,
2013-01-24 10:46:00,29.5,15.7,26.34,NNW,338,3.1,3.1,56,0.00,,---,0.00,VWS V14.01,2013-01-24 17:46:00,
2013-01-24 10:47:00,29.5,15.7,26.34,NNW,338,3.4,3.4,56,0.00,,---,0.00,VWS V14.01,2013-01-24 17:47:00,
2013-01-24 10:48:00,29.5,15.7,26.34,NNW,338,3.1,3.4,56,0.00,,---,0.00,VWS V14.01,2013-01-24 17:48:00,
2013-01-24 10:49:00,29.7,15.9,26.34,NE,45,2.2,3.1,56,0.00,,---,0.00,VWS V14.01,2013-01-24 17:49:00,
2013-01-24 10:50:00,29.7,15.9,26.34,North,0,3.6,3.6,56,0.00,,---,0.00,VWS V14.01,2013-01-24 17:50:00,
2013-01-24 10:51:00,29.7,15.5,26.34,NNW,338,3.1,3.6,55,0.00,,---,0.00,VWS V14.01,2013-01-24 17:51:00,
2013-01-24 10:52:00,29.7,15.5,26.34,NNW,338,2.5,3.1,55,0.00,,---,0.00,VWS V14.01,2013-01-24 17:52:00,
2013-01-24 10:53:00,29.7,15.5,26.34,NE,45,2.5,2.5,55,0.00,,---,0.00,VWS V14.01,2013-01-24 17:53:00,
2013-01-24 10:54:00,29.7,15.5,26.34,NNW,338,3.8,3.8,55,0.00,,---,0.00,VWS V14.01,2013-01-24 17:54:00,
2013-01-24 10:55:00,29.7,15.5,26.34,East,90,3.4,3.8,55,0.00,,---,0.00,VWS V14.01,2013-01-24 17:55:00,
2013-01-24 10:56:00,30.2,16.4,26.34,North,0,1.3,3.4,56,0.00,,---,0.00,VWS V14.01,2013-01-24 17:56:00,
2013-01-24 10:57:00,30.6,16.3,26.34,NNW,338,1.1,1.3,55,0.00,,---,0.00,VWS V14.01,2013-01-24 17:57:00,
2013-01-24 10:58:00,30.6,16.3,26.34,WNW,292,2.9,2.9,55,0.00,,---,0.00,VWS V14.01,2013-01-24 17:58:00,
2013-01-24 10:59:00,30.7,16.5,26.34,NW,315,2.0,2.9,55,0.00,,---,0.00,VWS V14.01,2013-01-24 17:59:00,
2013-01-24 11:00:00,30.7,16.5,26.34,NW,315,3.4,3.4,55,0.00,,---,0.00,VWS V14.01,2013-01-24 18:00:00,
2013-01-24 11:01:00,31.1,16.8,26.34,ENE,68,2.9,3.4,55,0.00,,---,0.00,VWS V14.01,2013-01-24 18:01:00,
2013-01-24 11:02:00,31.1,16.8,26.34,NW,315,0.0,2.9,55,0.00,,---,0.00,VWS V14.01,2013-01-24 18:02:00,
2013-01-24 11:03:00,31.5,17.2,26.31,NW,315,2.7,2.7,55,0.00,,---,0.00,VWS V14.01,2013-01-24 18:03:00,
2013-01-24 11:04:00,31.5,17.2,26.31,WNW,292,2.7,2.7,55,0.00,,---,0.00,VWS V14.01,2013-01-24 18:04:00,
2013-01-24 11:05:00,31.5,17.2,26.31,NW,315,3.6,3.6,55,0.00,,---,0.00,VWS V14.01,2013-01-24 18:05:00,
2013-01-24 11:06:00,31.6,17.3,26.31,NNW,338,0.9,3.6,55,0.00,,---,0.00,VWS V14.01,2013-01-24 18:06:00,
2013-01-24 11:07:00,32.0,17.7,26.31,North,0,2.2,2.2,55,0.00,,---,0.00,VWS V14.01,2013-01-24 18:07:00,
2013-01-24 11:08:00,32.2,17.8,26.31,NNW,338,2.0,2.2,55,0.00,,---,0.00,VWS V14.01,2013-01-24 18:08:00,
2013-01-24 11:09:00,32.5,18.2,26.31,North,0,2.2,2.2,55,0.00,,---,0.00,VWS V14.01,2013-01-24 18:09:00,
2013-01-24 11:10:00,32.7,18.4,26.31,North,0,2.7,2.7,55,0.00,,---,0.00,VWS V14.01,2013-01-24 18:10:00,
2013-01-24 11:11:00,32.9,18.5,26.31,ENE,68,2.9,2.9,55,0.00,,---,0.00,VWS V14.01,2013-01-24 18:11:00,
2013-01-24 11:12:00,33.1,18.7,26.31,NW,315,0.0,2.9,55,0.00,,---,0.00,VWS V14.01,2013-01-24 18:12:00,
2013-01-24 11:13:00,33.1,18.3,26.31,NNW,338,2.7,2.7,54,0.00,,---,0.00,VWS V14.01,2013-01-24 18:13:00,
2013-01-24 11:14:00,33.1,17.8,26.31,North,0,4.7,4.7,53,0.00,,---,0.00,VWS V14.01,2013-01-24 18:14:00,
2013-01-24 11:15:00,33.3,18.4,26.31,North,0,2.0,4.7,54,0.00,,---,0.00,VWS V14.01,2013-01-24 18:15:00,
2013-01-24 11:16:00,33.4,18.6,26.31,NE,45,3.6,3.6,54,0.00,,---,0.00,VWS V14.01,2013-01-24 18:16:00,
2013-01-24 11:17:00,33.6,18.3,26.31,NNW,338,3.8,3.8,53,0.00,,---,0.00,VWS V14.01,2013-01-24 18:17:00,
2013-01-24 11:18:00,33.8,18.5,26.31,NNW,338,3.6,3.8,53,0.00,,---,0.00,VWS V14.01,2013-01-24 18:18:00,
2013-01-24 11:19:00,33.4,18.2,26.31,NNW,338,2.9,3.6,53,0.00,,---,0.00,VWS V14.01,2013-01-24 18:19:00,
2013-01-24 11:20:00,33.4,18.2,26.31,NNW,338,2.7,2.9,53,0.00,,---,0.00,VWS V14.01,2013-01-24 18:20:00,
2013-01-24 11:21:00,33.6,17.9,26.31,NNW,338,3.8,3.8,52,0.00,,---,0.00,VWS V14.01,2013-01-24 18:21:00,
2013-01-24 11:22:00,33.8,18.0,26.31,NNW,338,2.7,3.8,52,0.00,,---,0.00,VWS V14.01,2013-01-24 18:22:00,
2013-01-24 11:23:00,33.8,18.0,26.31,NNW,338,1.1,2.7,52,0.00,,---,0.00,VWS V14.01,2013-01-24 18:23:00,
2013-01-24 11:24:00,34.0,18.2,26.31,NNE,22,3.1,3.1,52,0.00,,---,0.00,VWS V14.01,2013-01-24 18:24:00,
2013-01-24 11:25:00,34.0,18.2,26.31,NNE,22,2.7,3.1,52,0.00,,---,0.00,VWS V14.01,2013-01-24 18:25:00,
2013-01-24 11:26:00,34.0,17.8,26.31,North,0,3.4,3.4,51,0.00,,---,0.00,VWS V14.01,2013-01-24 18:26:00,
2013-01-24 11:27:00,34.5,18.7,26.31,NE,45,3.1,3.4,52,0.00,,---,0.00,VWS V14.01,2013-01-24 18:27:00,
2013-01-24 11:28:00,34.7,18.9,26.31,NW,315,1.6,3.1,52,0.00,,---,0.00,VWS V14.01,2013-01-24 18:28:00,
2013-01-24 11:29:00,34.9,19.1,26.31,NNE,22,2.7,2.7,52,0.00,,---,0.00,VWS V14.01,2013-01-24 18:29:00,
2013-01-24 11:30:00,35.1,19.2,26.31,North,0,3.4,3.4,52,0.00,,---,0.00,VWS V14.01,2013-01-24 18:30:00,
2013-01-24 11:31:00,35.2,18.9,26.31,NNW,338,3.4,3.4,51,0.00,,---,0.00,VWS V14.01,2013-01-24 18:31:00,
2013-01-24 11:32:00,35.2,18.9,26.31,North,0,2.5,3.4,51,0.00,,---,0.00,VWS V14.01,2013-01-24 18:32:00,
2013-01-24 11:33:00,35.4,19.1,26.31,NNW,338,2.0,2.5,51,0.00,,---,0.00,VWS V14.01,2013-01-24 18:33:00,
2013-01-24 11:34:00,35.8,19.0,26.31,West,270,2.5,2.5,50,0.00,,---,0.00,VWS V14.01,2013-01-24 18:34:00,
2013-01-24 11:35:00,35.8,19.0,26.31,NW,315,2.2,2.5,50,0.00,,---,0.00,VWS V14.01,2013-01-24 18:35:00,
2013-01-24 11:36:00,35.6,18.8,26.31,NNW,338,3.8,3.8,50,0.00,,---,0.00,VWS V14.01,2013-01-24 18:36:00,
2013-01-24 11:37:00,36.0,19.1,26.31,North,0,2.9,3.8,50,0.00,,---,0.00,VWS V14.01,2013-01-24 18:37:00,
2013-01-24 11:38:00,36.1,19.3,26.31,NNW,338,2.5,2.9,50,0.00,,---,0.00,VWS V14.01,2013-01-24 18:38:00,
2013-01-24 11:39:00,36.5,19.6,26.31,NNW,338,2.0,2.5,50,0.00,,---,0.00,VWS V14.01,2013-01-24 18:39:00,
2013-01-24 11:40:00,36.9,20.4,26.31,SE,135,0.9,2.0,51,0.00,,---,0.00,VWS V14.01,2013-01-24 18:40:00,
2013-01-24 11:41:00,37.0,20.1,26.31,NW,315,3.1,3.1,50,0.00,,---,0.00,VWS V14.01,2013-01-24 18:41:00,
2013-01-24 11:42:00,37.4,20.0,26.31,North,0,1.3,3.1,49,0.00,,---,0.00,VWS V14.01,2013-01-24 18:42:00,
2013-01-24 11:43:00,37.8,20.8,26.31,North,0,2.5,2.5,50,0.00,,---,0.00,VWS V14.01,2013-01-24 18:43:00,
2013-01-24 11:44:00,37.8,20.3,26.31,NW,315,3.8,3.8,49,0.00,,---,0.00,VWS V14.01,2013-01-24 18:44:00,
2013-01-24 11:45:00,37.9,20.5,26.31,North,0,2.5,3.8,49,0.00,,---,0.00,VWS V14.01,2013-01-24 18:45:00,
2013-01-24 11:47:00,38.5,21.0,26.31,North,0,3.1,3.1,49,0.00,,---,0.00,VWS V14.01,2013-01-24 18:47:00,
2013-01-24 11:48:00,39.0,21.5,26.31,North,0,3.6,3.6,49,0.00,,---,0.00,VWS V14.01,2013-01-24 18:48:00,
2013-01-24 11:49:00,39.7,21.7,26.31,SE,135,1.1,3.6,48,0.00,,---,0.00,VWS V14.01,2013-01-24 18:49:00,
2013-01-24 11:50:00,40.1,22.5,26.31,NE,45,1.3,1.3,49,0.00,,---,0.00,VWS V14.01,2013-01-24 18:50:00,
2013-01-24 11:51:00,40.3,22.2,26.31,NE,45,2.9,2.9,48,0.00,,---,0.00,VWS V14.01,2013-01-24 18:51:00,
2013-01-24 11:52:00,40.5,22.3,26.31,East,90,1.1,2.9,48,0.00,,---,0.00,VWS V14.01,2013-01-24 18:52:00,
2013-01-24 11:53:00,40.8,23.1,26.31,North,0,2.0,2.0,49,0.00,,---,0.00,VWS V14.01,2013-01-24 18:53:00,
2013-01-24 11:54:00,41.0,22.8,26.31,NNW,338,1.1,2.0,48,0.00,,---,0.00,VWS V14.01,2013-01-24 18:54:00,
2013-01-24 11:55:00,41.0,22.3,26.31,South,180,1.3,1.3,47,0.00,,---,0.00,VWS V14.01,2013-01-24 18:55:00,
2013-01-24 11:56:00,41.2,22.5,26.31,ESE,112,2.5,2.5,47,0.00,,---,0.00,VWS V14.01,2013-01-24 18:56:00,
2013-01-24 11:57:00,41.2,22.5,26.31,ESE,112,2.9,2.9,47,0.00,,---,0.00,VWS V14.01,2013-01-24 18:57:00,
2013-01-24 11:58:00,41.5,23.3,26.31,SE,135,0.0,2.9,48,0.00,,---,0.00,VWS V14.01,2013-01-24 18:58:00,
2013-01-24 11:59:00,41.5,22.8,26.31,West,270,0.9,0.9,47,0.00,,---,0.00,VWS V14.01,2013-01-24 18:59:00,
2013-01-24 12:00:00,41.4,22.7,26.31,ENE,68,4.0,4.0,47,0.00,,---,0.00,VWS V14.01,2013-01-24 19:00:00,
2013-01-24 12:01:00,41.4,22.7,26.31,NW,315,0.0,4.0,47,0.00,,---,0.00,VWS V14.01,2013-01-24 19:01:00,
2013-01-24 12:02:00,41.5,22.8,26.31,East,90,2.5,2.5,47,0.00,,---,0.00,VWS V14.01,2013-01-24 19:02:00,
2013-01-24 12:03:00,46.0,24.8,26.28,NW,315,0.0,0.0,43,0.00,,---,0.00,VWS V14.01,2013-01-24 19:03:00,
2013-01-24 12:04:00,41.5,22.3,26.28,SE,135,3.1,3.1,46,0.00,,---,0.00,VWS V14.01,2013-01-24 19:04:00,
2013-01-24 12:05:00,41.5,22.3,26.28,SE,135,2.5,3.1,46,0.00,,---,0.00,VWS V14.01,2013-01-24 19:05:00,
2013-01-24 12:06:00,41.7,22.5,26.28,NE,45,2.5,2.5,46,0.00,,---,0.00,VWS V14.01,2013-01-24 19:06:00,
2013-01-24 12:07:00,41.7,22.5,26.28,NE,45,3.6,3.6,46,0.00,,---,0.00,VWS V14.01,2013-01-24 19:07:00,
2013-01-24 12:08:00,46.4,25.1,26.28,NW,315,4.3,4.3,43,0.00,,---,0.00,VWS V14.01,2013-01-24 19:08:00,
2013-01-24 12:09:00,41.9,22.6,26.28,SE,135,2.5,3.6,46,0.00,,---,0.00,VWS V14.01,2013-01-24 19:09:00,
2013-01-24 12:10:00,42.3,23.0,26.28,SE,135,0.0,2.5,46,0.00,,---,0.00,VWS V14.01,2013-01-24 19:10:00,
2013-01-24 12:11:00,42.6,23.3,26.28,East,90,2.0,2.0,46,0.00,,---,0.00,VWS V14.01,2013-01-24 19:11:00,
2013-01-24 12:12:00,46.6,25.3,26.28,NW,315,0.0,3.1,43,0.00,,---,0.00,VWS V14.01,2013-01-24 19:12:00,
2013-01-24 12:13:00,42.8,23.5,26.28,NE,45,1.6,2.0,46,0.00,,---,0.00,VWS V14.01,2013-01-24 19:13:00,
2013-01-24 12:14:00,42.6,22.8,26.28,NE,45,4.0,4.0,45,0.00,,---,0.00,VWS V14.01,2013-01-24 19:14:00,
2013-01-24 12:15:00,42.8,23.0,26.28,NNW,338,2.9,4.0,45,0.00,,---,0.00,VWS V14.01,2013-01-24 19:15:00,
2013-01-24 12:16:00,42.6,22.8,26.28,SE,135,1.6,2.9,45,0.00,,---,0.00,VWS V14.01,2013-01-24 19:16:00,
2013-01-24 12:17:00,43.0,23.1,26.28,SE,135,3.4,3.4,45,0.00,,---,0.00,VWS V14.01,2013-01-24 19:17:00,
2013-01-24 12:18:00,43.2,23.3,26.31,SE,135,0.0,3.4,45,0.00,,---,0.00,VWS V14.01,2013-01-24 19:18:00,
2013-01-24 12:19:00,43.3,23.4,26.31,SSW,202,1.3,1.3,45,0.00,,---,0.00,VWS V14.01,2013-01-24 19:19:00,
2013-01-24 12:20:00,43.2,23.3,26.31,West,270,2.0,2.0,45,0.00,,---,0.00,VWS V14.01,2013-01-24 19:20:00,
2013-01-24 12:21:00,43.0,23.1,26.31,WSW,248,1.3,2.0,45,0.00,,---,0.00,VWS V14.01,2013-01-24 19:21:00,
2013-01-24 12:22:00,43.0,23.1,26.31,WSW,248,1.1,1.3,45,0.00,,---,0.00,VWS V14.01,2013-01-24 19:22:00,
2013-01-24 12:23:00,43.0,23.1,26.31,ESE,112,0.0,1.1,45,0.00,,---,0.00,VWS V14.01,2013-01-24 19:23:00,
2013-01-24 12:24:00,43.3,23.4,26.31,South,180,2.0,2.0,45,0.00,,---,0.00,VWS V14.01,2013-01-24 19:24:00,
2013-01-24 12:25:00,43.5,23.6,26.31,South,180,3.4,3.4,45,0.00,,---,0.00,VWS V14.01,2013-01-24 19:25:00,
2013-01-24 12:26:00,43.2,23.3,26.31,NNW,338,3.6,3.6,45,0.00,,---,0.00,VWS V14.01,2013-01-24 19:26:00,
2013-01-24 12:27:00,43.3,23.4,26.31,NNE,22,1.1,3.6,45,0.00,,---,0.00,VWS V14.01,2013-01-24 19:27:00,
2013-01-24 12:28:00,43.3,23.4,26.31,NE,45,0.0,1.1,45,0.00,,---,0.00,VWS V14.01,2013-01-24 19:28:00,
2013-01-24 12:29:00,43.7,23.8,26.31,NE,45,1.3,1.3,45,0.00,,---,0.00,VWS V14.01,2013-01-24 19:29:00,
2013-01-24 12:30:00,43.7,23.2,26.31,North,0,1.6,1.6,44,0.00,,---,0.00,VWS V14.01,2013-01-24 19:30:00,
2013-01-24 12:31:00,44.1,24.1,26.31,NNW,338,2.2,2.2,45,0.00,,---,0.00,VWS V14.01,2013-01-24 19:31:00,
2013-01-24 12:32:00,44.2,24.3,26.31,NNE,22,2.7,2.7,45,0.00,,---,0.00,VWS V14.01,2013-01-24 19:32:00,
2013-01-24 12:33:00,44.2,24.3,26.31,NNW,338,1.3,2.7,45,0.00,,---,0.00,VWS V14.01,2013-01-24 19:33:00,
2013-01-24 12:34:00,44.4,24.4,26.31,SE,135,2.9,2.9,45,0.00,,---,0.00,VWS V14.01,2013-01-24 19:34:00,
2013-01-24 12:35:00,44.8,24.2,26.31,North,0,1.1,2.9,44,0.00,,---,0.00,VWS V14.01,2013-01-24 19:35:00,
2013-01-24 12:36:00,45.1,24.5,26.31,NNW,338,2.5,2.5,44,0.00,,---,0.00,VWS V14.01,2013-01-24 19:36:00,
2013-01-24 12:37:00,45.3,24.7,26.31,East,90,2.0,2.5,44,0.00,,---,0.00,VWS V14.01,2013-01-24 19:37:00,
2013-01-24 12:38:00,45.1,24.5,26.31,NW,315,2.9,2.9,44,0.00,,---,0.00,VWS V14.01,2013-01-24 19:38:00,
2013-01-24 12:39:00,44.6,24.0,26.31,North,0,2.0,2.9,44,0.00,,---,0.00,VWS V14.01,2013-01-24 19:39:00,
2013-01-24 12:40:00,44.8,24.2,26.31,NNW,338,1.3,2.0,44,0.00,,---,0.00,VWS V14.01,2013-01-24 19:40:00,
2013-01-24 12:41:00,45.1,24.5,26.31,NNW,338,2.0,2.0,44,0.00,,---,0.00,VWS V14.01,2013-01-24 19:41:00,
2013-01-24 12:42:00,45.7,25.0,26.31,NW,315,0.9,2.0,44,0.00,,---,0.00,VWS V14.01,2013-01-24 19:42:00,
2013-01-24 12:43:00,45.7,25.0,26.31,NNW,338,0.0,0.9,44,0.00,,---,0.00,VWS V14.01,2013-01-24 19:43:00,
2013-01-24 12:44:00,46.0,25.4,26.31,NNE,22,0.0,0.0,44,0.00,,---,0.00,VWS V14.01,2013-01-24 19:44:00,
2013-01-24 12:45:00,45.9,25.2,26.31,NW,315,1.3,1.3,44,0.00,,---,0.00,VWS V14.01,2013-01-24 19:45:00,
2013-01-24 12:46:00,47.7,25.7,26.28,NW,315,1.3,3.1,42,0.00,,---,0.00,VWS V14.01,2013-01-24 19:46:00,
2013-01-24 12:47:00,45.5,24.9,26.31,ENE,68,3.8,3.8,44,0.00,,---,0.00,VWS V14.01,2013-01-24 19:47:00,
2013-01-24 12:48:00,45.0,23.8,26.31,NE,45,2.7,3.8,43,0.00,,---,0.00,VWS V14.01,2013-01-24 19:48:00,
2013-01-24 12:49:00,45.1,24.5,26.31,East,90,2.7,2.7,44,0.00,,---,0.00,VWS V14.01,2013-01-24 19:49:00,
2013-01-24 12:50:00,44.8,23.7,26.31,ESE,112,2.0,2.7,43,0.00,,---,0.00,VWS V14.01,2013-01-24 19:50:00,
2013-01-24 12:51:00,45.1,24.5,26.31,NNW,338,0.0,2.0,44,0.00,,---,0.00,VWS V14.01,2013-01-24 19:51:00,
2013-01-24 12:52:00,45.3,24.7,26.31,WNW,292,1.6,1.6,44,0.00,,---,0.00,VWS V14.01,2013-01-24 19:52:00,
2013-01-24 12:53:00,45.5,24.9,26.31,NNE,22,1.6,1.6,44,0.00,,---,0.00,VWS V14.01,2013-01-24 19:53:00,
2013-01-24 12:54:00,45.9,25.2,26.31,NNW,338,1.3,1.6,44,0.00,,---,0.00,VWS V14.01,2013-01-24 19:54:00,
2013-01-24 12:55:00,45.9,25.2,26.31,North,0,1.6,1.6,44,0.00,,---,0.00,VWS V14.01,2013-01-24 19:55:00,
2013-01-24 12:56:00,46.0,25.4,26.31,North,0,1.1,1.6,44,0.00,,---,0.00,VWS V14.01,2013-01-24 19:56:00,
2013-01-24 12:57:00,46.0,25.4,26.31,NW,315,0.0,1.1,44,0.00,,---,0.00,VWS V14.01,2013-01-24 19:57:00,
2013-01-24 12:58:00,45.7,24.5,26.31,NW,315,1.3,1.3,43,0.00,,---,0.00,VWS V14.01,2013-01-24 19:58:00,
2013-01-24 12:59:00,45.1,24.0,26.31,North,0,3.4,3.4,43,0.00,,---,0.00,VWS V14.01,2013-01-24 19:59:00,
2013-01-24 13:00:00,45.1,24.0,26.31,North,0,0.9,3.4,43,0.00,,---,0.00,VWS V14.01,2013-01-24 20:00:00,
2013-01-24 13:01:00,45.7,24.5,26.31,North,0,0.9,0.9,43,0.00,,---,0.00,VWS V14.01,2013-01-24 20:01:00,
2013-01-24 13:02:00,46.0,24.8,26.31,NW,315,0.0,0.9,43,0.00,,---,0.00,VWS V14.01,2013-01-24 20:02:00,
2013-01-24 13:03:00,46.0,24.8,26.28,NW,315,0.0,0.0,43,0.00,,---,0.00,VWS V14.01,2013-01-24 20:03:00,
2013-01-24 13:05:00,46.8,25.5,26.28,NW,315,0.0,0.0,43,0.00,,---,0.00,VWS V14.01,2013-01-24 20:05:00,
2013-01-24 13:06:00,46.8,25.5,26.28,NNW,338,2.5,2.5,43,0.00,,---,0.00,VWS V14.01,2013-01-24 20:06:00,
2013-01-24 13:07:00,46.6,25.3,26.28,NNW,338,1.6,2.5,43,0.00,,---,0.00,VWS V14.01,2013-01-24 20:07:00,
2013-01-24 13:08:00,46.4,25.1,26.28,NW,315,4.3,4.3,43,0.00,,---,0.00,VWS V14.01,2013-01-24 20:08:00,
2013-01-24 13:09:00,46.4,25.1,26.28,NW,315,0.9,4.3,43,0.00,,---,0.00,VWS V14.01,2013-01-24 20:09:00,
2013-01-24 13:10:00,46.2,25.0,26.28,NNW,338,1.6,1.6,43,0.00,,---,0.00,VWS V14.01,2013-01-24 20:10:00,
2013-01-24 13:11:00,46.4,25.1,26.28,NNW,338,3.1,3.1,43,0.00,,---,0.00,VWS V14.01,2013-01-24 20:11:00,
2013-01-24 13:12:00,46.6,25.3,26.28,NW,315,0.0,3.1,43,0.00,,---,0.00,VWS V14.01,2013-01-24 20:12:00,
2013-01-24 13:13:00,46.8,25.5,26.28,NW,315,0.0,0.0,43,0.00,,---,0.00,VWS V14.01,2013-01-24 20:13:00,
2013-01-24 13:14:00,46.9,25.6,26.28,NNE,22,0.0,0.0,43,0.00,,---,0.00,VWS V14.01,2013-01-24 20:14:00,
2013-01-24 13:15:00,47.1,25.8,26.28,East,90,2.5,2.5,43,0.00,,---,0.00,VWS V14.01,2013-01-24 20:15:00,
2013-01-24 13:16:00,46.9,25.6,26.28,East,90,3.1,3.1,43,0.00,,---,0.00,VWS V14.01,2013-01-24 20:16:00,
2013-01-24 13:17:00,46.8,25.5,26.28,SE,135,1.1,3.1,43,0.00,,---,0.00,VWS V14.01,2013-01-24 20:17:00,
2013-01-24 13:18:00,46.8,25.5,26.28,NW,315,2.0,2.0,43,0.00,,---,0.00,VWS V14.01,2013-01-24 20:18:00,
2013-01-24 13:19:00,46.8,25.5,26.28,NNE,22,1.3,2.0,43,0.00,,---,0.00,VWS V14.01,2013-01-24 20:19:00,
2013-01-24 13:20:00,46.8,25.5,26.28,NNW,338,2.7,2.7,43,0.00,,---,0.00,VWS V14.01,2013-01-24 20:20:00,
2013-01-24 13:21:00,46.8,24.9,26.28,NE,45,1.6,2.7,42,0.00,,---,0.00,VWS V14.01,2013-01-24 20:21:00,
2013-01-24 13:22:00,46.9,25.6,26.28,NE,45,0.0,1.6,43,0.00,,---,0.00,VWS V14.01,2013-01-24 20:22:00,
2013-01-24 13:23:00,47.1,25.8,26.28,NW,315,1.6,1.6,43,0.00,,---,0.00,VWS V14.01,2013-01-24 20:23:00,
2013-01-24 13:24:00,47.1,25.8,26.28,NE,45,1.6,1.6,43,0.00,,---,0.00,VWS V14.01,2013-01-24 20:24:00,
2013-01-24 13:25:00,47.1,25.2,26.28,NNW,338,0.9,1.6,42,0.00,,---,0.00,VWS V14.01,2013-01-24 20:25:00,
2013-01-24 13:26:00,47.1,25.2,26.28,NE,45,4.0,4.0,42,0.00,,---,0.00,VWS V14.01,2013-01-24 20:26:00,
2013-01-24 13:27:00,47.1,25.2,26.28,NW,315,1.3,4.0,42,0.00,,---,0.00,VWS V14.01,2013-01-24 20:27:00,
2013-01-24 13:28:00,47.1,25.2,26.28,NE,45,2.7,2.7,42,0.00,,---,0.00,VWS V14.01,2013-01-24 20:28:00,
2013-01-24 13:29:00,47.3,25.4,26.28,North,0,2.9,2.9,42,0.00,,---,0.00,VWS V14.01,2013-01-24 20:29:00,
2013-01-24 13:30:00,47.1,25.2,26.28,NE,45,3.1,3.1,42,0.00,,---,0.00,VWS V14.01,2013-01-24 20:30:00,
2013-01-24 13:31:00,47.3,25.4,26.28,NNW,338,0.0,3.1,42,0.00,,---,0.00,VWS V14.01,2013-01-24 20:31:00,
2013-01-24 13:32:00,47.3,25.4,26.28,NNE,22,1.3,1.3,42,0.00,,---,0.00,VWS V14.01,2013-01-24 20:32:00,
2013-01-24 13:33:00,47.5,25.5,26.28,North,0,2.0,2.0,42,0.00,,---,0.00,VWS V14.01,2013-01-24 20:33:00,
2013-01-24 13:34:00,47.7,25.7,26.28,NNW,338,2.0,2.0,42,0.00,,---,0.00,VWS V14.01,2013-01-24 20:34:00,
2013-01-24 13:35:00,48.0,26.0,26.28,WNW,292,2.9,2.9,42,0.00,,---,0.00,VWS V14.01,2013-01-24 20:35:00,
2013-01-24 13:36:00,47.8,25.9,26.28,NNW,338,2.9,2.9,42,0.00,,---,0.00,VWS V14.01,2013-01-24 20:36:00,
2013-01-24 13:37:00,48.2,26.2,26.28,NW,315,1.1,2.9,42,0.00,,---,0.00,VWS V14.01,2013-01-24 20:37:00,
2013-01-24 13:38:00,48.6,26.5,26.28,ENE,68,2.7,2.7,42,0.00,,---,0.00,VWS V14.01,2013-01-24 20:38:00,
2013-01-24 13:39:00,42.6,22.2,26.31,North,0,0.0,1.6,44,0.00,,---,0.00,VWS V14.01,2013-01-24 20:39:00,
2013-01-24 13:40:00,48.6,26.5,26.28,NNW,338,3.1,3.1,42,0.00,,---,0.00,VWS V14.01,2013-01-24 20:40:00,
2013-01-24 13:41:00,48.2,26.2,26.28,NNW,338,2.2,3.1,42,0.00,,---,0.00,VWS V14.01,2013-01-24 20:41:00,
2013-01-24 13:42:00,47.8,25.9,26.28,NNW,338,2.9,2.9,42,0.00,,---,0.00,VWS V14.01,2013-01-24 20:42:00,
2013-01-24 13:43:00,48.0,26.0,26.28,North,0,1.6,2.9,42,0.00,,---,0.00,VWS V14.01,2013-01-24 20:43:00,
2013-01-24 13:44:00,47.8,25.9,26.28,North,0,3.1,3.1,42,0.00,,---,0.00,VWS V14.01,2013-01-24 20:44:00,
2013-01-24 13:45:00,48.0,26.0,26.28,NW,315,3.1,3.1,42,0.00,,---,0.00,VWS V14.01,2013-01-24 20:45:00,
2013-01-24 13:46:00,47.7,25.7,26.28,NW,315,1.3,3.1,42,0.00,,---,0.00,VWS V14.01,2013-01-24 20:46:00,
2013-01-24 13:47:00,47.5,25.5,26.28,NNW,338,1.6,1.6,42,0.00,,---,0.00,VWS V14.01,2013-01-24 20:47:00,
2013-01-24 13:48:00,47.3,25.4,26.31,NNW,338,3.4,3.4,42,0.00,,---,0.00,VWS V14.01,2013-01-24 20:48:00,
2013-01-24 13:49:00,46.9,25.1,26.31,North,0,3.4,3.4,42,0.00,,---,0.00,VWS V14.01,2013-01-24 20:49:00,
2013-01-24 13:50:00,47.1,25.2,26.31,North,0,3.4,3.4,42,0.00,,---,0.00,VWS V14.01,2013-01-24 20:50:00,
2013-01-24 13:51:00,47.1,25.2,26.31,NNE,22,1.3,3.4,42,0.00,,---,0.00,VWS V14.01,2013-01-24 20:51:00,
2013-01-24 13:52:00,47.1,25.2,26.31,NNE,22,2.7,2.7,42,0.00,,---,0.00,VWS V14.01,2013-01-24 20:52:00,
2013-01-24 13:53:00,47.1,25.2,26.31,NE,45,3.1,3.1,42,0.00,,---,0.00,VWS V14.01,2013-01-24 20:53:00,
2013-01-24 13:54:00,47.1,25.2,26.31,North,0,2.9,3.1,42,0.00,,---,0.00,VWS V14.01,2013-01-24 20:54:00,
2013-01-24 13:55:00,47.1,25.2,26.31,NNW,338,3.1,3.1,42,0.00,,---,0.00,VWS V14.01,2013-01-24 20:55:00,
2013-01-24 13:56:00,46.9,25.1,26.31,North,0,2.7,3.1,42,0.00,,---,0.00,VWS V14.01,2013-01-24 20:56:00,
2013-01-24 13:57:00,46.9,25.1,26.31,NNW,338,2.9,2.9,42,0.00,,---,0.00,VWS V14.01,2013-01-24 20:57:00,
2013-01-24 13:58:00,46.2,25.0,26.31,NNE,22,2.0,2.9,43,0.00,,---,0.00,VWS V14.01,2013-01-24 20:58:00,
2013-01-24 13:59:00,46.2,25.0,26.31,NNW,338,1.3,2.0,43,0.00,,---,0.00,VWS V14.01,2013-01-24 20:59:00,
2013-01-24 14:00:00,46.0,24.8,26.31,NNE,22,2.0,2.0,43,0.00,,---,0.00,VWS V14.01,2013-01-24 21:00:00,
2013-01-24 14:01:00,45.9,24.6,26.31,NE,45,4.3,4.3,43,0.00,,---,0.00,VWS V14.01,2013-01-24 21:01:00,
2013-01-24 14:02:00,45.9,24.6,26.31,NNW,338,1.6,4.3,43,0.00,,---,0.00,VWS V14.01,2013-01-24 21:02:00,
2013-01-24 14:03:00,45.5,24.3,26.31,North,0,1.3,1.6,43,0.00,,---,0.00,VWS V14.01,2013-01-24 21:03:00,
2013-01-24 14:05:00,45.1,24.0,26.31,NNW,338,2.5,2.5,43,0.00,,---,0.00,VWS V14.01,2013-01-24 21:05:00,
2013-01-24 14:06:00,44.6,23.5,26.31,NNW,338,1.6,2.5,43,0.00,,---,0.00,VWS V14.01,2013-01-24 21:06:00,
2013-01-24 14:07:00,44.2,23.2,26.31,North,0,2.5,2.5,43,0.00,,---,0.00,VWS V14.01,2013-01-24 21:07:00,
2013-01-24 14:08:00,44.2,23.2,26.31,NE,45,2.9,2.9,43,0.00,,---,0.00,VWS V14.01,2013-01-24 21:08:00,
2013-01-24 14:09:00,44.1,23.0,26.31,WNW,292,3.1,3.1,43,0.00,,---,0.00,VWS V14.01,2013-01-24 21:09:00,
2013-01-24 14:10:00,43.9,22.9,26.31,North,0,2.5,3.1,43,0.00,,---,0.00,VWS V14.01,2013-01-24 21:10:00,
2013-01-24 14:11:00,43.9,22.9,26.31,NNW,338,2.9,2.9,43,0.00,,---,0.00,VWS V14.01,2013-01-24 21:11:00,
2013-01-24 14:12:00,44.1,23.0,26.31,NW,315,2.5,2.9,43,0.00,,---,0.00,VWS V14.01,2013-01-24 21:12:00,
2013-01-24 14:13:00,44.1,23.0,26.31,NNW,338,2.2,2.5,43,0.00,,---,0.00,VWS V14.01,2013-01-24 21:13:00,
2013-01-24 14:14:00,44.1,23.0,26.31,NNW,338,1.6,2.2,43,0.00,,---,0.00,VWS V14.01,2013-01-24 21:14:00,
2013-01-24 14:15:00,44.1,23.0,26.31,North,0,2.2,2.2,43,0.00,,---,0.00,VWS V14.01,2013-01-24 21:15:00,
2013-01-24 14:16:00,44.2,23.2,26.31,North,0,2.0,2.2,43,0.00,,---,0.00,VWS V14.01,2013-01-24 21:16:00,
2013-01-24 14:17:00,44.1,23.0,26.31,North,0,3.4,3.4,43,0.00,,---,0.00,VWS V14.01,2013-01-24 21:17:00,
2013-01-24 14:18:00,44.1,23.0,26.31,North,0,2.5,3.4,43,0.00,,---,0.00,VWS V14.01,2013-01-24 21:18:00,
2013-01-24 14:19:00,44.1,23.0,26.31,NNE,22,2.5,2.5,43,0.00,,---,0.00,VWS V14.01,2013-01-24 21:19:00,
2013-01-24 14:20:00,43.9,22.9,26.31,North,0,2.5,2.5,43,0.00,,---,0.00,VWS V14.01,2013-01-24 21:20:00,
2013-01-24 14:21:00,43.5,22.5,26.31,North,0,2.7,2.7,43,0.00,,---,0.00,VWS V14.01,2013-01-24 21:21:00,
2013-01-24 14:22:00,43.3,22.4,26.31,NNW,338,1.3,2.7,43,0.00,,---,0.00,VWS V14.01,2013-01-24 21:22:00,
2013-01-24 14:23:00,43.3,22.4,26.31,NNE,22,1.3,1.3,43,0.00,,---,0.00,VWS V14.01,2013-01-24 21:23:00,
2013-01-24 14:24:00,43.2,22.2,26.31,NNW,338,2.0,2.0,43,0.00,,---,0.00,VWS V14.01,2013-01-24 21:24:00,
2013-01-24 14:25:00,43.0,22.0,26.31,NNW,338,1.6,2.0,43,0.00,,---,0.00,VWS V14.01,2013-01-24 21:25:00,
2013-01-24 14:26:00,42.8,21.9,26.31,North,0,2.2,2.2,43,0.00,,---,0.00,VWS V14.01,2013-01-24 21:26:00,
2013-01-24 14:27:00,42.8,21.9,26.31,NNW,338,2.5,2.5,43,0.00,,---,0.00,VWS V14.01,2013-01-24 21:27:00,
2013-01-24 14:28:00,42.8,21.9,26.31,NNW,338,1.3,2.5,43,0.00,,---,0.00,VWS V14.01,2013-01-24 21:28:00,
2013-01-24 14:29:00,42.8,21.9,26.31,North,0,1.6,1.6,43,0.00,,---,0.00,VWS V14.01,2013-01-24 21:29:00,
2013-01-24 14:30:00,42.8,21.9,26.31,North,0,0.0,1.6,43,0.00,,---,0.00,VWS V14.01,2013-01-24 21:30:00,
2013-01-24 14:31:00,42.8,21.9,26.31,NNE,22,1.1,1.1,43,0.00,,---,0.00,VWS V14.01,2013-01-24 21:31:00,
2013-01-24 14:32:00,42.8,21.9,26.31,NE,45,2.0,2.0,43,0.00,,---,0.00,VWS V14.01,2013-01-24 21:32:00,
2013-01-24 14:33:00,42.8,21.9,26.31,NE,45,2.5,2.5,43,0.00,,---,0.00,VWS V14.01,2013-01-24 21:33:00,
2013-01-24 14:34:00,42.6,22.2,26.31,NW,315,2.2,2.5,44,0.00,,---,0.00,VWS V14.01,2013-01-24 21:34:00,
2013-01-24 14:35:00,42.4,22.1,26.31,NW,315,0.0,2.2,44,0.00,,---,0.00,VWS V14.01,2013-01-24 21:35:00,
2013-01-24 14:36:00,39.7,20.1,26.37,NNW,338,1.1,1.1,45,0.00,,---,0.00,VWS V14.01,2013-01-24 21:36:00,
2013-01-24 14:37:00,42.6,22.2,26.31,North,0,0.0,0.0,44,0.00,,---,0.00,VWS V14.01,2013-01-24 21:37:00,
2013-01-24 14:38:00,42.6,22.2,26.31,North,0,1.6,1.6,44,0.00,,---,0.00,VWS V14.01,2013-01-24 21:38:00,
2013-01-24 14:39:00,42.6,22.2,26.31,North,0,0.0,1.6,44,0.00,,---,0.00,VWS V14.01,2013-01-24 21:39:00,
2013-01-24 14:40:00,42.6,22.2,26.31,NNW,338,2.0,2.0,44,0.00,,---,0.00,VWS V14.01,2013-01-24 21:40:00,
2013-01-24 14:41:00,42.6,22.2,26.31,NE,45,2.0,2.0,44,0.00,,---,0.00,VWS V14.01,2013-01-24 21:41:00,
2013-01-24 14:42:00,42.6,22.2,26.31,North,0,1.3,2.0,44,0.00,,---,0.00,VWS V14.01,2013-01-24 21:42:00,
2013-01-24 14:43:00,42.6,22.2,26.31,NW,315,2.0,2.0,44,0.00,,---,0.00,VWS V14.01,2013-01-24 21:43:00,
2013-01-24 14:44:00,42.8,22.4,26.31,NW,315,1.3,2.0,44,0.00,,---,0.00,VWS V14.01,2013-01-24 21:44:00,
2013-01-24 14:45:00,42.8,22.4,26.31,NNE,22,3.6,3.6,44,0.00,,---,0.00,VWS V14.01,2013-01-24 21:45:00,
2013-01-24 14:46:00,42.8,22.4,26.31,North,0,1.1,3.6,44,0.00,,---,0.00,VWS V14.01,2013-01-24 21:46:00,
2013-01-24 14:47:00,42.8,22.4,26.31,East,90,2.9,2.9,44,0.00,,---,0.00,VWS V14.01,2013-01-24 21:47:00,
2013-01-24 14:48:00,42.8,21.9,26.31,NNW,338,2.7,2.9,43,0.00,,---,0.00,VWS V14.01,2013-01-24 21:48:00,
2013-01-24 14:49:00,42.6,22.2,26.31,NNW,338,2.5,2.7,44,0.00,,---,0.00,VWS V14.01,2013-01-24 21:49:00,
2013-01-24 14:50:00,42.4,22.1,26.31,North,0,2.9,2.9,44,0.00,,---,0.00,VWS V14.01,2013-01-24 21:50:00,
2013-01-24 14:51:00,42.1,21.8,26.31,North,0,2.7,2.9,44,0.00,,---,0.00,VWS V14.01,2013-01-24 21:51:00,
2013-01-24 14:52:00,42.1,21.8,26.31,NNW,338,2.7,2.7,44,0.00,,---,0.00,VWS V14.01,2013-01-24 21:52:00,
2013-01-24 14:53:00,41.7,21.4,26.31,NNW,338,2.7,2.7,44,0.00,,---,0.00,VWS V14.01,2013-01-24 21:53:00,
2013-01-24 14:54:00,41.7,21.4,26.31,NNW,338,2.0,2.7,44,0.00,,---,0.00,VWS V14.01,2013-01-24 21:54:00,
2013-01-24 14:55:00,41.5,21.3,26.31,NNW,338,2.5,2.5,44,0.00,,---,0.00,VWS V14.01,2013-01-24 21:55:00,
2013-01-24 14:56:00,41.2,20.9,26.31,NW,315,2.0,2.5,44,0.00,,---,0.00,VWS V14.01,2013-01-24 21:56:00,
2013-01-24 14:57:00,41.2,20.9,26.31,North,0,1.6,2.0,44,0.00,,---,0.00,VWS V14.01,2013-01-24 21:57:00,
2013-01-24 14:58:00,41.0,20.8,26.31,NNW,338,1.6,1.6,44,0.00,,---,0.00,VWS V14.01,2013-01-24 21:58:00,
2013-01-24 14:59:00,40.8,20.6,26.31,North,0,3.4,3.4,44,0.00,,---,0.00,VWS V14.01,2013-01-24 21:59:00,
2013-01-24 15:00:00,40.8,20.6,26.31,NE,45,2.5,3.4,44,0.00,,---,0.00,VWS V14.01,2013-01-24 22:00:00,
2013-01-24 15:01:00,40.6,20.5,26.31,NNW,338,1.3,2.5,44,0.00,,---,0.00,VWS V14.01,2013-01-24 22:01:00,
2013-01-24 15:02:00,40.6,20.5,26.31,West,270,1.6,1.6,44,0.00,,---,0.00,VWS V14.01,2013-01-24 22:02:00,
2013-01-24 15:03:00,40.6,20.5,26.34,NW,315,2.0,2.0,44,0.00,,---,0.00,VWS V14.01,2013-01-24 22:03:00,
2013-01-24 15:04:00,39.0,20.0,26.37,NNW,338,0.0,0.0,46,0.00,,---,0.00,VWS V14.01,2013-01-24 22:04:00,
2013-01-24 15:05:00,40.5,20.3,26.34,NNW,338,2.0,2.0,44,0.00,,---,0.00,VWS V14.01,2013-01-24 22:05:00,
2013-01-24 15:06:00,40.5,20.3,26.34,North,0,1.6,2.0,44,0.00,,---,0.00,VWS V14.01,2013-01-24 22:06:00,
2013-01-24 15:07:00,40.5,20.3,26.34,NNW,338,3.4,3.4,44,0.00,,---,0.00,VWS V14.01,2013-01-24 22:07:00,
2013-01-24 15:08:00,40.5,20.8,26.34,NNW,338,2.0,3.4,45,0.00,,---,0.00,VWS V14.01,2013-01-24 22:08:00,
2013-01-24 15:09:00,40.5,20.8,26.34,NNW,338,1.1,2.0,45,0.00,,---,0.00,VWS V14.01,2013-01-24 22:09:00,
2013-01-24 15:10:00,40.5,20.8,26.34,NE,45,0.0,1.1,45,0.00,,---,0.00,VWS V14.01,2013-01-24 22:10:00,
2013-01-24 15:11:00,40.5,20.8,26.34,North,0,0.0,0.0,45,0.00,,---,0.00,VWS V14.01,2013-01-24 22:11:00,
2013-01-24 15:12:00,40.5,20.8,26.34,NNW,338,1.6,1.6,45,0.00,,---,0.00,VWS V14.01,2013-01-24 22:12:00,
2013-01-24 15:13:00,40.5,20.8,26.34,NNW,338,2.9,2.9,45,0.00,,---,0.00,VWS V14.01,2013-01-24 22:13:00,
2013-01-24 15:14:00,40.3,20.6,26.34,NNE,22,1.6,2.9,45,0.00,,---,0.00,VWS V14.01,2013-01-24 22:14:00,
2013-01-24 15:15:00,40.3,20.6,26.34,NNW,338,1.3,1.6,45,0.00,,---,0.00,VWS V14.01,2013-01-24 22:15:00,
2013-01-24 15:16:00,40.3,20.6,26.34,NNW,338,1.1,1.3,45,0.00,,---,0.00,VWS V14.01,2013-01-24 22:16:00,
2013-01-24 15:17:00,40.3,20.6,26.34,North,0,0.0,1.1,45,0.00,,---,0.00,VWS V14.01,2013-01-24 22:17:00,
2013-01-24 15:18:00,40.1,20.5,26.34,North,0,1.6,1.6,45,0.00,,---,0.00,VWS V14.01,2013-01-24 22:18:00,
2013-01-24 15:19:00,40.1,20.5,26.34,North,0,1.6,1.6,45,0.00,,---,0.00,VWS V14.01,2013-01-24 22:19:00,
2013-01-24 15:20:00,40.1,20.5,26.34,North,0,0.0,1.6,45,0.00,,---,0.00,VWS V14.01,2013-01-24 22:20:00,
2013-01-24 15:21:00,39.9,20.3,26.34,North,0,0.0,0.0,45,0.00,,---,0.00,VWS V14.01,2013-01-24 22:21:00,
2013-01-24 15:22:00,39.9,20.3,26.34,North,0,0.9,0.9,45,0.00,,---,0.00,VWS V14.01,2013-01-24 22:22:00,
2013-01-24 15:23:00,39.9,20.3,26.34,North,0,0.0,0.9,45,0.00,,---,0.00,VWS V14.01,2013-01-24 22:23:00,
2013-01-24 15:24:00,40.1,20.5,26.34,North,0,0.0,0.0,45,0.00,,---,0.00,VWS V14.01,2013-01-24 22:24:00,
2013-01-24 15:25:00,40.1,20.5,26.34,North,0,0.0,0.0,45,0.00,,---,0.00,VWS V14.01,2013-01-24 22:25:00,
2013-01-24 15:26:00,40.1,20.5,26.34,North,0,1.1,1.1,45,0.00,,---,0.00,VWS V14.01,2013-01-24 22:26:00,
2013-01-24 15:27:00,39.9,20.3,26.34,North,0,0.9,1.1,45,0.00,,---,0.00,VWS V14.01,2013-01-24 22:27:00,
2013-01-24 15:28:00,39.9,20.3,26.34,North,0,0.9,0.9,45,0.00,,---,0.00,VWS V14.01,2013-01-24 22:28:00,
2013-01-24 15:29:00,39.9,20.3,26.34,North,0,0.9,0.9,45,0.00,,---,0.00,VWS V14.01,2013-01-24 22:29:00,
2013-01-24 15:30:00,39.9,20.3,26.34,North,0,0.9,0.9,45,0.00,,---,0.00,VWS V14.01,2013-01-24 22:30:00,
2013-01-24 15:31:00,39.9,20.3,26.34,North,0,0.9,0.9,45,0.00,,---,0.00,VWS V14.01,2013-01-24 22:31:00,
2013-01-24 15:32:00,39.9,20.3,26.34,North,0,0.0,0.9,45,0.00,,---,0.00,VWS V14.01,2013-01-24 22:32:00,
2013-01-24 15:33:00,39.9,20.3,26.37,North,0,0.0,0.0,45,0.00,,---,0.00,VWS V14.01,2013-01-24 22:33:00,
2013-01-24 15:34:00,39.7,20.1,26.37,North,0,0.0,0.0,45,0.00,,---,0.00,VWS V14.01,2013-01-24 22:34:00,
2013-01-24 15:35:00,39.7,20.1,26.37,North,0,0.0,0.0,45,0.00,,---,0.00,VWS V14.01,2013-01-24 22:35:00,
2013-01-24 15:36:00,39.7,20.1,26.37,NNW,338,1.1,1.1,45,0.00,,---,0.00,VWS V14.01,2013-01-24 22:36:00,
2013-01-24 15:37:00,39.6,20.0,26.37,NNW,338,1.1,1.1,45,0.00,,---,0.00,VWS V14.01,2013-01-24 22:37:00,
2013-01-24 15:38:00,39.6,20.0,26.37,NNW,338,1.1,1.1,45,0.00,,---,0.00,VWS V14.01,2013-01-24 22:38:00,
2013-01-24 15:39:00,39.6,20.0,26.37,NNW,338,0.0,1.1,45,0.00,,---,0.00,VWS V14.01,2013-01-24 22:39:00,
2013-01-24 15:40:00,39.6,20.0,26.37,NW,315,2.2,2.2,45,0.00,,---,0.00,VWS V14.01,2013-01-24 22:40:00,
2013-01-24 15:41:00,39.4,19.8,26.37,NW,315,2.2,2.2,45,0.00,,---,0.00,VWS V14.01,2013-01-24 22:41:00,
2013-01-24 15:42:00,39.4,19.8,26.37,NW,315,2.2,2.2,45,0.00,,---,0.00,VWS V14.01,2013-01-24 22:42:00,
2013-01-24 15:43:00,39.4,19.8,26.37,NW,315,0.0,2.2,45,0.00,,---,0.00,VWS V14.01,2013-01-24 22:43:00,
2013-01-24 15:44:00,39.4,19.8,26.37,NW,315,0.0,0.0,45,0.00,,---,0.00,VWS V14.01,2013-01-24 22:44:00,
2013-01-24 15:45:00,39.2,19.7,26.37,NW,315,0.0,0.0,45,0.00,,---,0.00,VWS V14.01,2013-01-24 22:45:00,
2013-01-24 15:46:00,39.2,19.7,26.37,NW,315,0.0,0.0,45,0.00,,---,0.00,VWS V14.01,2013-01-24 22:46:00,
2013-01-24 15:47:00,39.2,19.7,26.37,NW,315,0.0,0.0,45,0.00,,---,0.00,VWS V14.01,2013-01-24 22:47:00,
2013-01-24 15:48:00,39.2,20.2,26.37,NW,315,0.9,0.9,46,0.00,,---,0.00,VWS V14.01,2013-01-24 22:48:00,
2013-01-24 15:49:00,39.4,20.3,26.37,NW,315,0.0,0.9,46,0.00,,---,0.00,VWS V14.01,2013-01-24 22:49:00,
2013-01-24 15:50:00,39.4,20.3,26.37,NW,315,0.0,0.0,46,0.00,,---,0.00,VWS V14.01,2013-01-24 22:50:00,
2013-01-24 15:51:00,39.4,20.3,26.37,NNW,338,0.9,0.9,46,0.00,,---,0.00,VWS V14.01,2013-01-24 22:51:00,
2013-01-24 15:52:00,39.4,20.3,26.37,NNW,338,0.0,0.9,46,0.00,,---,0.00,VWS V14.01,2013-01-24 22:52:00,
2013-01-24 15:53:00,39.4,20.3,26.37,NNE,22,1.3,1.3,46,0.00,,---,0.00,VWS V14.01,2013-01-24 22:53:00,
2013-01-24 15:54:00,39.4,20.3,26.37,NNW,338,0.0,1.3,46,0.00,,---,0.00,VWS V14.01,2013-01-24 22:54:00,
2013-01-24 15:55:00,39.2,20.2,26.37,NNW,338,0.0,0.0,46,0.00,,---,0.00,VWS V14.01,2013-01-24 22:55:00,
2013-01-24 15:56:00,39.2,20.2,26.37,NNW,338,0.0,0.0,46,0.00,,---,0.00,VWS V14.01,2013-01-24 22:56:00,
2013-01-24 15:57:00,39.2,20.2,26.37,NNW,338,1.1,1.1,46,0.00,,---,0.00,VWS V14.01,2013-01-24 22:57:00,
2013-01-24 15:58:00,39.2,20.2,26.37,NNW,338,0.0,1.1,46,0.00,,---,0.00,VWS V14.01,2013-01-24 22:58:00,
2013-01-24 15:59:00,39.2,20.2,26.37,NNW,338,0.0,0.0,46,0.00,,---,0.00,VWS V14.01,2013-01-24 22:59:00,
2013-01-24 16:00:00,39.2,20.2,26.37,NNW,338,0.0,0.0,46,0.00,,---,0.00,VWS V14.01,2013-01-24 23:00:00,
2013-01-24 16:01:00,39.0,20.0,26.37,NNW,338,0.0,0.0,46,0.00,,---,0.00,VWS V14.01,2013-01-24 23:01:00,
2013-01-24 16:02:00,39.0,20.0,26.37,NNW,338,0.0,0.0,46,0.00,,---,0.00,VWS V14.01,2013-01-24 23:02:00,
2013-01-24 16:03:00,39.0,20.0,26.37,NNW,338,0.0,0.0,46,0.00,,---,0.00,VWS V14.01,2013-01-24 23:03:00,
2013-01-24 16:04:00,39.0,20.0,26.37,NNW,338,0.0,0.0,46,0.00,,---,0.00,VWS V14.01,2013-01-24 23:04:00,
2013-01-24 16:05:00,39.0,20.5,26.37,NNW,338,0.0,0.0,47,0.00,,---,0.00,VWS V14.01,2013-01-24 23:05:00,
2013-01-24 16:06:00,39.0,20.5,26.37,NNW,338,0.0,0.0,47,0.00,,---,0.00,VWS V14.01,2013-01-24 23:06:00,
2013-01-24 16:07:00,39.0,20.5,26.37,NNW,338,0.0,0.0,47,0.00,,---,0.00,VWS V14.01,2013-01-24 23:07:00,
2013-01-24 16:08:00,38.8,20.4,26.37,NE,45,1.6,1.6,47,0.00,,---,0.00,VWS V14.01,2013-01-24 23:08:00,
2013-01-24 16:09:00,39.0,20.5,26.37,NNW,338,0.9,1.6,47,0.00,,---,0.00,VWS V14.01,2013-01-24 23:09:00,
2013-01-24 16:10:00,39.0,20.5,26.37,NNW,338,0.9,0.9,47,0.00,,---,0.00,VWS V14.01,2013-01-24 23:10:00,
2013-01-24 16:11:00,39.0,20.5,26.37,NNW,338,0.9,0.9,47,0.00,,---,0.00,VWS V14.01,2013-01-24 23:11:00,
2013-01-24 16:12:00,39.0,20.5,26.37,North,0,0.0,0.9,47,0.00,,---,0.00,VWS V14.01,2013-01-24 23:12:00,
2013-01-24 16:13:00,39.0,20.5,26.37,NNW,338,2.2,2.2,47,0.00,,---,0.00,VWS V14.01,2013-01-24 23:13:00,
2013-01-24 16:14:00,39.0,20.5,26.37,NW,315,2.0,2.2,47,0.00,,---,0.00,VWS V14.01,2013-01-24 23:14:00,
2013-01-24 16:15:00,39.0,20.5,26.37,NW,315,1.6,2.0,47,0.00,,---,0.00,VWS V14.01,2013-01-24 23:15:00,
2013-01-24 16:16:00,39.0,20.5,26.37,NNW,338,2.9,2.9,47,0.00,,---,0.00,VWS V14.01,2013-01-24 23:16:00,
2013-01-24 16:17:00,39.0,20.5,26.37,NNW,338,1.3,2.9,47,0.00,,---,0.00,VWS V14.01,2013-01-24 23:17:00,
2013-01-24 16:18:00,39.0,20.5,26.37,NNW,338,1.3,1.3,47,0.00,,---,0.00,VWS V14.01,2013-01-24 23:18:00,
2013-01-24 16:19:00,39.0,20.5,26.37,NNW,338,1.1,1.3,47,0.00,,---,0.00,VWS V14.01,2013-01-24 23:19:00,
2013-01-24 16:20:00,39.0,20.5,26.37,NE,45,2.2,2.2,47,0.00,,---,0.00,VWS V14.01,2013-01-24 23:20:00,
2013-01-24 16:21:00,39.0,20.5,26.37,NNW,338,2.0,2.2,47,0.00,,---,0.00,VWS V14.01,2013-01-24 23:21:00,
2013-01-24 16:22:00,39.0,21.0,26.37,NNW,338,1.6,2.0,48,0.00,,---,0.00,VWS V14.01,2013-01-24 23:22:00,
2013-01-24 16:23:00,39.0,21.0,26.37,NNW,338,1.3,1.6,48,0.00,,---,0.00,VWS V14.01,2013-01-24 23:23:00,
2013-01-24 16:24:00,39.0,21.0,26.37,NNW,338,0.0,1.3,48,0.00,,---,0.00,VWS V14.01,2013-01-24 23:24:00,
2013-01-24 16:25:00,39.0,21.0,26.37,North,0,2.7,2.7,48,0.00,,---,0.00,VWS V14.01,2013-01-24 23:25:00,
2013-01-24 16:26:00,39.0,21.0,26.37,North,0,4.0,4.0,48,0.00,,---,0.00,VWS V14.01,2013-01-24 23:26:00,
2013-01-24 16:27:00,39.0,21.0,26.37,NNW,338,1.3,4.0,48,0.00,,---,0.00,VWS V14.01,2013-01-24 23:27:00,
2013-01-24 16:28:00,38.8,20.8,26.37,NNW,338,2.7,2.7,48,0.00,,---,0.00,VWS V14.01,2013-01-24 23:28:00,
2013-01-24 16:29:00,38.8,20.8,26.37,NNW,338,1.6,2.7,48,0.00,,---,0.00,VWS V14.01,2013-01-24 23:29:00,
2013-01-24 16:30:00,38.8,20.8,26.37,NNW,338,1.1,1.6,48,0.00,,---,0.00,VWS V14.01,2013-01-24 23:30:00,
2013-01-24 16:31:00,38.8,20.8,26.37,North,0,0.9,1.1,48,0.00,,---,0.00,VWS V14.01,2013-01-24 23:31:00,
2013-01-24 16:32:00,38.8,20.8,26.37,NW,315,1.3,1.3,48,0.00,,---,0.00,VWS V14.01,2013-01-24 23:32:00,
2013-01-24 16:33:00,38.8,20.8,26.37,NW,315,3.4,3.4,48,0.00,,---,0.00,VWS V14.01,2013-01-24 23:33:00,
2013-01-24 16:34:00,38.8,20.8,26.37,NNW,338,2.5,3.4,48,0.00,,---,0.00,VWS V14.01,2013-01-24 23:34:00,
2013-01-24 16:35:00,39.0,21.0,26.37,NNW,338,2.5,2.5,48,0.00,,---,0.00,VWS V14.01,2013-01-24 23:35:00,
2013-01-24 16:36:00,39.0,21.0,26.37,NNW,338,2.5,2.5,48,0.00,,---,0.00,VWS V14.01,2013-01-24 23:36:00,
2013-01-24 16:37:00,38.8,20.8,26.37,NNW,338,2.5,2.5,48,0.00,,---,0.00,VWS V14.01,2013-01-24 23:37:00,
2013-01-24 16:38:00,38.8,20.8,26.37,NNW,338,2.5,2.5,48,0.00,,---,0.00,VWS V14.01,2013-01-24 23:38:00,
2013-01-24 16:39:00,38.8,20.8,26.37,NNW,338,2.5,2.5,48,0.00,,---,0.00,VWS V14.01,2013-01-24 23:39:00,
2013-01-24 16:40:00,38.8,20.8,26.37,NNW,338,2.5,2.5,48,0.00,,---,0.00,VWS V14.01,2013-01-24 23:40:00,
2013-01-24 16:41:00,38.8,20.8,26.37,NNW,338,2.5,2.5,48,0.00,,---,0.00,VWS V14.01,2013-01-24 23:41:00,
2013-01-24 16:42:00,38.7,20.7,26.37,NNW,338,2.5,2.5,48,0.00,,---,0.00,VWS V14.01,2013-01-24 23:42:00,
2013-01-24 16:43:00,38.7,20.7,26.37,NNW,338,2.5,2.5,48,0.00,,---,0.00,VWS V14.01,2013-01-24 23:43:00,
2013-01-24 16:44:00,38.7,20.7,26.37,NNW,338,2.5,2.5,48,0.00,,---,0.00,VWS V14.01,2013-01-24 23:44:00,
2013-01-24 16:45:00,38.7,20.7,26.37,NNW,338,2.5,2.5,48,0.00,,---,0.00,VWS V14.01,2013-01-24 23:45:00,
2013-01-24 16:46:00,38.5,20.5,26.37,NNW,338,2.5,2.5,48,0.00,,---,0.00,VWS V14.01,2013-01-24 23:46:00,
2013-01-24 16:47:00,38.5,20.5,26.37,NNW,338,2.5,2.5,48,0.00,,---,0.00,VWS V14.01,2013-01-24 23:47:00,
2013-01-24 16:48:00,38.5,20.5,26.37,NNW,338,2.5,2.5,48,0.00,,---,0.00,VWS V14.01,2013-01-24 23:48:00,
2013-01-24 16:49:00,38.5,20.5,26.37,NNW,338,2.5,2.5,48,0.00,,---,0.00,VWS V14.01,2013-01-24 23:49:00,
2013-01-24 16:50:00,38.5,21.0,26.37,NNW,338,2.5,2.5,49,0.00,,---,0.00,VWS V14.01,2013-01-24 23:50:00,
2013-01-24 16:51:00,38.5,21.0,26.37,NNW,338,2.5,2.5,49,0.00,,---,0.00,VWS V14.01,2013-01-24 23:51:00,
2013-01-24 16:52:00,38.5,21.0,26.37,NNW,338,2.5,2.5,49,0.00,,---,0.00,VWS V14.01,2013-01-24 23:52:00,
2013-01-24 16:53:00,38.3,20.8,26.37,North,0,0.0,2.5,49,0.00,,---,0.00,VWS V14.01,2013-01-24 23:53:00,
2013-01-24 16:54:00,38.3,20.8,26.37,North,0,0.0,0.0,49,0.00,,---,0.00,VWS V14.01,2013-01-24 23:54:00,
2013-01-24 16:55:00,38.3,20.8,26.37,North,0,0.0,0.0,49,0.00,,---,0.00,VWS V14.01,2013-01-24 23:55:00,
2013-01-24 16:56:00,38.3,20.8,26.37,North,0,0.0,0.0,49,0.00,,---,0.00,VWS V14.01,2013-01-24 23:56:00,
2013-01-24 16:57:00,38.3,20.8,26.37,North,0,0.0,0.0,49,0.00,,---,0.00,VWS V14.01,2013-01-24 23:57:00,
2013-01-24 16:58:00,38.1,20.7,26.37,North,0,0.0,0.0,49,0.00,,---,0.00,VWS V14.01,2013-01-24 23:58:00,
2013-01-24 16:59:00,38.1,20.7,26.37,North,0,0.0,0.0,49,0.00,,---,0.00,VWS V14.01,2013-01-24 23:59:00,
2013-01-24 17:00:00,38.1,20.7,26.37,North,0,0.0,0.0,49,0.00,,---,0.00,VWS V14.01,2013-01-25 00:00:00,
2013-01-24 17:01:00,38.1,20.7,26.37,North,0,0.0,0.0,49,0.00,,---,0.00,VWS V14.01,2013-01-25 00:01:00,
2013-01-24 17:02:00,38.3,21.3,26.37,NNW,338,0.0,0.0,50,0.00,,---,0.00,VWS V14.01,2013-01-25 00:02:00,
2013-01-24 17:03:00,38.5,21.5,26.37,NNW,338,0.0,0.0,50,0.00,,---,0.00,VWS V14.01,2013-01-25 00:03:00,
2013-01-24 17:04:00,38.5,21.5,26.37,NNW,338,0.0,0.0,50,0.00,,---,0.00,VWS V14.01,2013-01-25 00:04:00,
2013-01-24 17:05:00,38.7,21.6,26.37,NW,315,1.6,1.6,50,0.00,,---,0.00,VWS V14.01,2013-01-25 00:05:00,
2013-01-24 17:06:00,38.8,21.8,26.37,NNW,338,0.9,1.6,50,0.00,,---,0.00,VWS V14.01,2013-01-25 00:06:00,
2013-01-24 17:07:00,39.2,22.6,26.37,NNW,338,0.9,0.9,51,0.00,,---,0.00,VWS V14.01,2013-01-25 00:07:00,
2013-01-24 17:08:00,39.4,22.8,26.37,NNW,338,0.9,0.9,51,0.00,,---,0.00,VWS V14.01,2013-01-25 00:08:00,
2013-01-24 17:09:00,39.6,22.9,26.37,NNW,338,0.9,0.9,51,0.00,,---,0.00,VWS V14.01,2013-01-25 00:09:00,
2013-01-24 17:10:00,39.7,23.1,26.37,NNW,338,0.9,0.9,51,0.00,,---,0.00,VWS V14.01,2013-01-25 00:10:00,
2013-01-24 17:11:00,39.9,23.3,26.37,NNW,338,0.9,0.9,51,0.00,,---,0.00,VWS V14.01,2013-01-25 00:11:00,
2013-01-24 17:12:00,40.1,23.4,26.37,NNW,338,0.9,0.9,51,0.00,,---,0.00,VWS V14.01,2013-01-25 00:12:00,
2013-01-24 17:13:00,40.3,24.1,26.37,NNW,338,2.5,2.5,52,0.00,,---,0.00,VWS V14.01,2013-01-25 00:13:00,
2013-01-24 17:14:00,40.6,24.4,26.37,NNW,338,2.5,2.5,52,0.00,,---,0.00,VWS V14.01,2013-01-25 00:14:00,
2013-01-24 17:15:00,41.0,24.3,26.37,NNW,338,2.5,2.5,51,0.00,,---,0.00,VWS V14.01,2013-01-25 00:15:00,
2013-01-24 17:16:00,41.0,24.3,26.37,NNW,338,0.0,2.5,51,0.00,,---,0.00,VWS V14.01,2013-01-25 00:16:00,
2013-01-24 17:17:00,41.0,24.3,26.37,NNW,338,0.0,0.0,51,0.00,,---,0.00,VWS V14.01,2013-01-25 00:17:00,
2013-01-24 17:18:00,41.0,24.3,26.40,NNW,338,0.0,0.0,51,0.00,,---,0.00,VWS V14.01,2013-01-25 00:18:00,
2013-01-24 17:19:00,41.2,24.4,26.40,NNW,338,0.0,0.0,51,0.00,,---,0.00,VWS V14.01,2013-01-25 00:19:00,
2013-01-24 17:20:00,41.2,24.4,26.40,NNW,338,0.0,0.0,51,0.00,,---,0.00,VWS V14.01,2013-01-25 00:20:00,
2013-01-24 17:21:00,41.2,24.4,26.40,NNW,338,0.0,0.0,51,0.00,,---,0.00,VWS V14.01,2013-01-25 00:21:00,
2013-01-24 17:22:00,41.2,24.4,26.40,NNW,338,0.0,0.0,51,0.00,,---,0.00,VWS V14.01,2013-01-25 00:22:00,
2013-01-24 17:23:00,41.2,24.4,26.40,NNW,338,0.0,0.0,51,0.00,,---,0.00,VWS V14.01,2013-01-25 00:23:00,
2013-01-24 17:24:00,41.4,24.1,26.40,NNW,338,0.0,0.0,50,0.00,,---,0.00,VWS V14.01,2013-01-25 00:24:00,
2013-01-24 17:25:00,41.4,24.1,26.40,NNW,338,0.0,0.0,50,0.00,,---,0.00,VWS V14.01,2013-01-25 00:25:00,
2013-01-24 17:26:00,41.4,24.1,26.40,NNW,338,0.0,0.0,50,0.00,,---,0.00,VWS V14.01,2013-01-25 00:26:00,
2013-01-24 17:27:00,41.4,24.1,26.40,NNW,338,0.0,0.0,50,0.00,,---,0.00,VWS V14.01,2013-01-25 00:27:00,
2013-01-24 17:28:00,41.4,24.1,26.40,NNW,338,0.0,0.0,50,0.00,,---,0.00,VWS V14.01,2013-01-25 00:28:00,
2013-01-24 17:29:00,41.4,24.1,26.40,NNW,338,0.0,0.0,50,0.00,,---,0.00,VWS V14.01,2013-01-25 00:29:00,
2013-01-24 17:30:00,41.4,24.1,26.40,NNW,338,0.0,0.0,50,0.00,,---,0.00,VWS V14.01,2013-01-25 00:30:00,
2013-01-24 17:31:00,41.4,24.1,26.40,NNW,338,0.0,0.0,50,0.00,,---,0.00,VWS V14.01,2013-01-25 00:31:00,
2013-01-24 17:32:00,41.5,23.8,26.40,NNW,338,0.0,0.0,49,0.00,,---,0.00,VWS V14.01,2013-01-25 00:32:00,
2013-01-24 17:33:00,41.5,23.8,26.40,NNW,338,0.0,0.0,49,0.00,,---,0.00,VWS V14.01,2013-01-25 00:33:00,
2013-01-24 17:34:00,41.4,23.6,26.40,NNW,338,0.0,0.0,49,0.00,,---,0.00,VWS V14.01,2013-01-25 00:34:00,
2013-01-24 17:35:00,41.4,23.6,26.40,NNW,338,2.5,2.5,49,0.00,,---,0.00,VWS V14.01,2013-01-25 00:35:00,
2013-01-24 17:36:00,41.4,23.6,26.40,NNW,338,2.5,2.5,49,0.00,,---,0.00,VWS V14.01,2013-01-25 00:36:00,
2013-01-24 17:37:00,41.4,23.6,26.40,NNW,338,2.9,2.9,49,0.00,,---,0.00,VWS V14.01,2013-01-25 00:37:00,
2013-01-24 17:38:00,41.4,23.6,26.40,NNW,338,1.6,2.9,49,0.00,,---,0.00,VWS V14.01,2013-01-25 00:38:00,
2013-01-24 17:39:00,41.5,23.8,26.40,NNW,338,1.6,1.6,49,0.00,,---,0.00,VWS V14.01,2013-01-25 00:39:00,
2013-01-24 17:40:00,41.5,23.8,26.40,NNW,338,2.0,2.0,49,0.00,,---,0.00,VWS V14.01,2013-01-25 00:40:00,
2013-01-24 17:41:00,41.5,23.8,26.40,NNW,338,2.0,2.0,49,0.00,,---,0.00,VWS V14.01,2013-01-25 00:41:00,
2013-01-24 17:42:00,41.5,23.8,26.40,NE,45,4.3,4.3,49,0.00,,---,0.00,VWS V14.01,2013-01-25 00:42:00,
2013-01-24 17:43:00,41.5,23.8,26.40,NW,315,3.6,4.3,49,0.00,,---,0.00,VWS V14.01,2013-01-25 00:43:00,
2013-01-24 17:44:00,41.5,23.8,26.40,NNE,22,2.9,3.6,49,0.00,,---,0.00,VWS V14.01,2013-01-25 00:44:00,
2013-01-24 17:45:00,41.7,24.0,26.40,NNE,22,2.9,2.9,49,0.00,,---,0.00,VWS V14.01,2013-01-25 00:45:00,
2013-01-24 17:46:00,41.7,24.0,26.40,NNE,22,2.9,2.9,49,0.00,,---,0.00,VWS V14.01,2013-01-25 00:46:00,
2013-01-24 17:47:00,41.7,24.0,26.40,NW,315,3.6,3.6,49,0.00,,---,0.00,VWS V14.01,2013-01-25 00:47:00,
2013-01-24 17:48:00,41.7,24.0,26.40,NNW,338,4.7,4.7,49,0.00,,---,0.00,VWS V14.01,2013-01-25 00:48:00,
2013-01-24 17:49:00,41.7,24.0,26.40,North,0,3.1,4.7,49,0.00,,---,0.00,VWS V14.01,2013-01-25 00:49:00,
2013-01-24 17:50:00,41.7,23.5,26.40,WNW,292,2.9,3.1,48,0.00,,---,0.00,VWS V14.01,2013-01-25 00:50:00,
2013-01-24 17:51:00,41.7,23.5,26.40,NNW,338,5.4,5.4,48,0.00,,---,0.00,VWS V14.01,2013-01-25 00:51:00,
2013-01-24 17:52:00,41.9,23.7,26.40,North,0,3.4,5.4,48,0.00,,---,0.00,VWS V14.01,2013-01-25 00:52:00,
2013-01-24 17:53:00,42.1,23.8,26.40,North,0,2.0,3.4,48,0.00,,---,0.00,VWS V14.01,2013-01-25 00:53:00,
2013-01-24 17:54:00,42.1,23.8,26.40,WNW,292,2.7,2.7,48,0.00,,---,0.00,VWS V14.01,2013-01-25 00:54:00,
2013-01-24 17:55:00,42.3,24.0,26.40,WNW,292,2.7,2.7,48,0.00,,---,0.00,VWS V14.01,2013-01-25 00:55:00,
2013-01-24 17:56:00,42.3,24.0,26.40,NNW,338,2.7,2.7,48,0.00,,---,0.00,VWS V14.01,2013-01-25 00:56:00,
2013-01-24 17:57:00,42.3,24.0,26.40,NNW,338,3.4,3.4,48,0.00,,---,0.00,VWS V14.01,2013-01-25 00:57:00,
2013-01-24 17:58:00,42.3,24.0,26.40,North,0,3.4,3.4,48,0.00,,---,0.00,VWS V14.01,2013-01-25 00:58:00,
2013-01-24 17:59:00,42.3,24.0,26.40,NNW,338,5.8,5.8,48,0.00,,---,0.00,VWS V14.01,2013-01-25 00:59:00,
2013-01-24 18:00:00,42.3,24.0,26.40,NW,315,2.7,5.8,48,0.00,,---,0.00,VWS V14.01,2013-01-25 01:00:00,
2013-01-24 18:01:00,42.3,24.0,26.40,NNE,22,4.3,4.3,48,0.00,,---,0.00,VWS V14.01,2013-01-25 01:01:00,
2013-01-24 18:02:00,42.3,24.0,26.40,NW,315,5.6,5.6,48,0.00,,---,0.00,VWS V14.01,2013-01-25 01:02:00,
2013-01-24 18:03:00,42.3,24.0,26.43,NNW,338,2.0,5.6,48,0.00,,---,0.00,VWS V14.01,2013-01-25 01:03:00,
2013-01-24 18:04:00,42.3,24.0,26.43,NNW,338,2.0,2.0,48,0.00,,---,0.00,VWS V14.01,2013-01-25 01:04:00,
2013-01-24 18:05:00,42.3,24.0,26.43,NNW,338,4.3,4.3,48,0.00,,---,0.00,VWS V14.01,2013-01-25 01:05:00,
2013-01-24 18:06:00,42.3,23.5,26.43,NNW,338,4.3,4.3,47,0.00,,---,0.00,VWS V14.01,2013-01-25 01:06:00,
2013-01-24 18:07:00,42.3,23.5,26.43,NNW,338,4.3,4.3,47,0.00,,---,0.00,VWS V14.01,2013-01-25 01:07:00,
2013-01-24 18:08:00,42.1,23.3,26.43,NNW,338,4.3,4.3,47,0.00,,---,0.00,VWS V14.01,2013-01-25 01:08:00,
2013-01-24 18:09:00,42.1,23.3,26.43,NNW,338,2.9,4.3,47,0.00,,---,0.00,VWS V14.01,2013-01-25 01:09:00,
2013-01-24 18:10:00,42.1,23.3,26.43,North,0,2.9,2.9,47,0.00,,---,0.00,VWS V14.01,2013-01-25 01:10:00,
2013-01-24 18:11:00,41.9,23.2,26.43,NW,315,3.6,3.6,47,0.00,,---,0.00,VWS V14.01,2013-01-25 01:11:00,
2013-01-24 18:12:00,41.9,23.2,26.43,NW,315,3.4,3.6,47,0.00,,---,0.00,VWS V14.01,2013-01-25 01:12:00,
2013-01-24 18:13:00,41.7,23.0,26.43,East,90,5.6,5.6,47,0.00,,---,0.00,VWS V14.01,2013-01-25 01:13:00,
2013-01-24 18:14:00,41.7,23.0,26.43,NNW,338,3.6,5.6,47,0.00,,---,0.00,VWS V14.01,2013-01-25 01:14:00,
2013-01-24 18:15:00,41.5,22.8,26.43,NNW,338,6.0,6.0,47,0.00,,---,0.00,VWS V14.01,2013-01-25 01:15:00,
2013-01-24 18:16:00,41.4,22.7,26.43,NNW,338,6.0,6.0,47,0.00,,---,0.00,VWS V14.01,2013-01-25 01:16:00,
2013-01-24 18:17:00,41.2,22.5,26.43,NNW,338,6.0,6.0,47,0.00,,---,0.00,VWS V14.01,2013-01-25 01:17:00,
2013-01-24 18:18:00,41.2,22.5,26.43,NNW,338,6.0,6.0,47,0.00,,---,0.00,VWS V14.01,2013-01-25 01:18:00,
2013-01-24 18:19:00,41.2,22.5,26.43,NNW,338,6.0,6.0,47,0.00,,---,0.00,VWS V14.01,2013-01-25 01:19:00,
2013-01-24 18:20:00,41.0,22.8,26.43,NNW,338,6.0,6.0,48,0.00,,---,0.00,VWS V14.01,2013-01-25 01:20:00,
2013-01-24 18:21:00,41.0,22.8,26.43,NNW,338,6.0,6.0,48,0.00,,---,0.00,VWS V14.01,2013-01-25 01:21:00,
2013-01-24 18:22:00,41.0,22.8,26.43,NW,315,7.4,7.4,48,0.00,,---,0.00,VWS V14.01,2013-01-25 01:22:00,
2013-01-24 18:23:00,40.8,22.7,26.43,NW,315,7.4,7.4,48,0.00,,---,0.00,VWS V14.01,2013-01-25 01:23:00,
2013-01-24 18:24:00,40.8,22.7,26.43,NW,315,5.8,7.4,48,0.00,,---,0.00,VWS V14.01,2013-01-25 01:24:00,
2013-01-24 18:25:00,40.6,22.5,26.43,NW,315,3.1,5.8,48,0.00,,---,0.00,VWS V14.01,2013-01-25 01:25:00,
2013-01-24 18:26:00,40.6,22.5,26.43,NW,315,3.1,3.1,48,0.00,,---,0.00,VWS V14.01,2013-01-25 01:26:00,
2013-01-24 18:27:00,40.6,22.5,26.43,NNE,22,4.0,4.0,48,0.00,,---,0.00,VWS V14.01,2013-01-25 01:27:00,
2013-01-24 18:28:00,40.6,22.5,26.43,NNE,22,4.0,4.0,48,0.00,,---,0.00,VWS V14.01,2013-01-25 01:28:00,
2013-01-24 18:29:00,40.6,22.5,26.43,NNW,338,6.3,6.3,48,0.00,,---,0.00,VWS V14.01,2013-01-25 01:29:00,
2013-01-24 18:30:00,40.6,22.5,26.43,NW,315,2.9,6.3,48,0.00,,---,0.00,VWS V14.01,2013-01-25 01:30:00,
2013-01-24 18:31:00,40.5,22.8,26.43,North,0,6.0,6.0,49,0.00,,---,0.00,VWS V14.01,2013-01-25 01:31:00,
2013-01-24 18:32:00,40.3,22.7,26.43,NW,315,5.6,6.0,49,0.00,,---,0.00,VWS V14.01,2013-01-25 01:32:00,
2013-01-24 18:33:00,40.3,22.7,26.43,NW,315,5.6,5.6,49,0.00,,---,0.00,VWS V14.01,2013-01-25 01:33:00,
2013-01-24 18:34:00,40.3,22.7,26.43,NNW,338,6.9,6.9,49,0.00,,---,0.00,VWS V14.01,2013-01-25 01:34:00,
2013-01-24 18:35:00,40.3,22.7,26.43,NNW,338,6.9,6.9,49,0.00,,---,0.00,VWS V14.01,2013-01-25 01:35:00,
2013-01-24 18:36:00,40.1,22.5,26.43,NNW,338,6.9,6.9,49,0.00,,---,0.00,VWS V14.01,2013-01-25 01:36:00,
2013-01-24 18:37:00,40.1,22.5,26.43,NNW,338,6.9,6.9,49,0.00,,---,0.00,VWS V14.01,2013-01-25 01:37:00,
2013-01-24 18:38:00,39.9,22.3,26.43,NNW,338,6.9,6.9,49,0.00,,---,0.00,VWS V14.01,2013-01-25 01:38:00,
2013-01-24 18:39:00,39.9,22.3,26.43,South,180,4.9,6.9,49,0.00,,---,0.00,VWS V14.01,2013-01-25 01:39:00,
2013-01-24 18:40:00,39.9,22.3,26.43,NNW,338,3.8,4.9,49,0.00,,---,0.00,VWS V14.01,2013-01-25 01:40:00,
2013-01-24 18:41:00,39.7,22.2,26.43,NNW,338,3.4,3.8,49,0.00,,---,0.00,VWS V14.01,2013-01-25 01:41:00,
2013-01-24 18:42:00,39.7,22.2,26.43,NW,315,3.6,3.6,49,0.00,,---,0.00,VWS V14.01,2013-01-25 01:42:00,
2013-01-24 18:43:00,39.7,22.2,26.43,NNW,338,5.8,5.8,49,0.00,,---,0.00,VWS V14.01,2013-01-25 01:43:00,
2013-01-24 18:44:00,39.6,22.5,26.43,NNW,338,5.8,5.8,50,0.00,,---,0.00,VWS V14.01,2013-01-25 01:44:00,
2013-01-24 18:45:00,39.6,22.5,26.43,NNW,338,5.8,5.8,50,0.00,,---,0.00,VWS V14.01,2013-01-25 01:45:00,
2013-01-24 18:46:00,39.4,22.3,26.43,NNW,338,5.8,5.8,50,0.00,,---,0.00,VWS V14.01,2013-01-25 01:46:00,
2013-01-24 18:47:00,39.2,22.1,26.43,NNW,338,5.8,5.8,50,0.00,,---,0.00,VWS V14.01,2013-01-25 01:47:00,
2013-01-24 18:48:00,39.2,22.1,26.40,NNW,338,3.6,5.8,50,0.00,,---,0.00,VWS V14.01,2013-01-25 01:48:00,
2013-01-24 18:49:00,39.2,22.1,26.40,NW,315,6.5,6.5,50,0.00,,---,0.00,VWS V14.01,2013-01-25 01:49:00,
2013-01-24 18:50:00,39.2,22.1,26.40,NW,315,6.5,6.5,50,0.00,,---,0.00,VWS V14.01,2013-01-25 01:50:00,
2013-01-24 18:51:00,39.0,22.0,26.40,NNW,338,7.4,7.4,50,0.00,,---,0.00,VWS V14.01,2013-01-25 01:51:00,
2013-01-24 18:52:00,39.0,22.0,26.40,North,0,4.9,7.4,50,0.00,,---,0.00,VWS V14.01,2013-01-25 01:52:00,
2013-01-24 18:53:00,39.0,22.4,26.40,NNW,338,6.0,6.0,51,0.00,,---,0.00,VWS V14.01,2013-01-25 01:53:00,
2013-01-24 18:54:00,39.0,22.4,26.40,NW,315,5.6,6.0,51,0.00,,---,0.00,VWS V14.01,2013-01-25 01:54:00,
2013-01-24 18:55:00,39.0,22.4,26.40,WNW,292,5.4,5.6,51,0.00,,---,0.00,VWS V14.01,2013-01-25 01:55:00,
2013-01-24 18:56:00,38.8,22.3,26.40,NNW,338,6.5,6.5,51,0.00,,---,0.00,VWS V14.01,2013-01-25 01:56:00,
2013-01-24 18:57:00,38.8,22.3,26.40,NNW,338,4.3,6.5,51,0.00,,---,0.00,VWS V14.01,2013-01-25 01:57:00,
2013-01-24 18:58:00,39.0,22.4,26.40,North,0,4.3,4.3,51,0.00,,---,0.00,VWS V14.01,2013-01-25 01:58:00,
2013-01-24 18:59:00,38.8,22.3,26.40,NNW,338,4.0,4.3,51,0.00,,---,0.00,VWS V14.01,2013-01-25 01:59:00,
2013-01-24 19:00:00,38.8,22.3,26.40,NNW,338,3.1,4.0,51,0.00,,---,0.00,VWS V14.01,2013-01-25 02:00:00,
2013-01-24 19:01:00,38.7,22.1,26.40,NNW,338,3.4,3.4,51,0.00,,---,0.00,VWS V14.01,2013-01-25 02:01:00,
2013-01-24 19:02:00,38.7,22.1,26.40,NW,315,3.4,3.4,51,0.00,,---,0.00,VWS V14.01,2013-01-25 02:02:00,
2013-01-24 19:03:00,38.5,21.9,26.40,NW,315,2.0,3.4,51,0.00,,---,0.00,VWS V14.01,2013-01-25 02:03:00,
2013-01-24 19:04:00,38.5,21.9,26.40,North,0,2.5,2.5,51,0.00,,---,0.00,VWS V14.01,2013-01-25 02:04:00,
2013-01-24 19:05:00,38.3,21.8,26.40,NW,315,2.5,2.5,51,0.00,,---,0.00,VWS V14.01,2013-01-25 02:05:00,
2013-01-24 19:06:00,38.3,21.8,26.40,NW,315,2.5,2.5,51,0.00,,---,0.00,VWS V14.01,2013-01-25 02:06:00,
2013-01-24 19:07:00,38.3,21.8,26.40,NE,45,4.0,4.0,51,0.00,,---,0.00,VWS V14.01,2013-01-25 02:07:00,
2013-01-24 19:08:00,38.1,21.6,26.40,NNW,338,3.1,4.0,51,0.00,,---,0.00,VWS V14.01,2013-01-25 02:08:00,
2013-01-24 19:09:00,38.1,21.6,26.40,NNW,338,2.7,3.1,51,0.00,,---,0.00,VWS V14.01,2013-01-25 02:09:00,
2013-01-24 19:10:00,38.1,21.6,26.40,NW,315,3.4,3.4,51,0.00,,---,0.00,VWS V14.01,2013-01-25 02:10:00,
2013-01-24 19:11:00,37.9,21.4,26.40,NW,315,3.6,3.6,51,0.00,,---,0.00,VWS V14.01,2013-01-25 02:11:00,
2013-01-24 19:12:00,37.9,21.9,26.40,NW,315,3.6,3.6,52,0.00,,---,0.00,VWS V14.01,2013-01-25 02:12:00,
2013-01-24 19:13:00,37.9,21.9,26.40,WNW,292,3.8,3.8,52,0.00,,---,0.00,VWS V14.01,2013-01-25 02:13:00,
2013-01-24 19:14:00,37.9,21.9,26.40,NNW,338,3.8,3.8,52,0.00,,---,0.00,VWS V14.01,2013-01-25 02:14:00,
2013-01-24 19:15:00,37.9,21.9,26.40,NNW,338,2.0,3.8,52,0.00,,---,0.00,VWS V14.01,2013-01-25 02:15:00,
2013-01-24 19:16:00,37.9,21.9,26.40,WNW,292,6.0,6.0,52,0.00,,---,0.00,VWS V14.01,2013-01-25 02:16:00,
2013-01-24 19:17:00,37.9,21.9,26.40,NW,315,4.7,6.0,52,0.00,,---,0.00,VWS V14.01,2013-01-25 02:17:00,
2013-01-24 19:18:00,37.9,21.9,26.43,WNW,292,3.4,4.7,52,0.00,,---,0.00,VWS V14.01,2013-01-25 02:18:00,
2013-01-24 19:19:00,37.9,21.9,26.43,NW,315,5.8,5.8,52,0.00,,---,0.00,VWS V14.01,2013-01-25 02:19:00,
2013-01-24 19:20:00,38.1,22.5,26.43,NNW,338,2.0,5.8,53,0.00,,---,0.00,VWS V14.01,2013-01-25 02:20:00,
2013-01-24 19:21:00,37.9,22.4,26.43,North,0,3.8,3.8,53,0.00,,---,0.00,VWS V14.01,2013-01-25 02:21:00,
2013-01-24 19:22:00,37.9,22.4,26.43,NW,315,4.0,4.0,53,0.00,,---,0.00,VWS V14.01,2013-01-25 02:22:00,
2013-01-24 19:23:00,37.9,22.4,26.43,NNW,338,3.8,4.0,53,0.00,,---,0.00,VWS V14.01,2013-01-25 02:23:00,
2013-01-24 19:24:00,37.9,22.4,26.43,NNW,338,3.4,3.8,53,0.00,,---,0.00,VWS V14.01,2013-01-25 02:24:00,
2013-01-24 19:25:00,37.9,22.4,26.43,NNW,338,4.9,4.9,53,0.00,,---,0.00,VWS V14.01,2013-01-25 02:25:00,
2013-01-24 19:26:00,37.9,22.4,26.43,NNW,338,4.0,4.9,53,0.00,,---,0.00,VWS V14.01,2013-01-25 02:26:00,
2013-01-24 19:27:00,38.1,22.5,26.43,NNW,338,3.4,4.0,53,0.00,,---,0.00,VWS V14.01,2013-01-25 02:27:00,
2013-01-24 19:28:00,37.9,22.4,26.43,North,0,3.4,3.4,53,0.00,,---,0.00,VWS V14.01,2013-01-25 02:28:00,
2013-01-24 19:29:00,37.9,22.4,26.43,NW,315,3.4,3.4,53,0.00,,---,0.00,VWS V14.01,2013-01-25 02:29:00,
2013-01-24 19:30:00,37.9,22.4,26.43,North,0,5.4,5.4,53,0.00,,---,0.00,VWS V14.01,2013-01-25 02:30:00,
2013-01-24 19:31:00,37.9,22.4,26.43,NW,315,3.6,5.4,53,0.00,,---,0.00,VWS V14.01,2013-01-25 02:31:00,
2013-01-24 19:32:00,37.9,22.4,26.43,NNW,338,2.7,3.6,53,0.00,,---,0.00,VWS V14.01,2013-01-25 02:32:00,
2013-01-24 19:33:00,37.9,22.4,26.43,NNW,338,4.0,4.0,53,0.00,,---,0.00,VWS V14.01,2013-01-25 02:33:00,
2013-01-24 19:34:00,37.8,22.2,26.43,NNW,338,3.1,4.0,53,0.00,,---,0.00,VWS V14.01,2013-01-25 02:34:00,
2013-01-24 19:35:00,37.8,22.2,26.43,North,0,3.1,3.1,53,0.00,,---,0.00,VWS V14.01,2013-01-25 02:35:00,
2013-01-24 19:36:00,37.6,22.0,26.43,NNW,338,2.5,3.1,53,0.00,,---,0.00,VWS V14.01,2013-01-25 02:36:00,
2013-01-24 19:37:00,37.6,22.0,26.43,NNE,22,2.5,2.5,53,0.00,,---,0.00,VWS V14.01,2013-01-25 02:37:00,
2013-01-24 19:38:00,37.6,22.0,26.43,NW,315,2.9,2.9,53,0.00,,---,0.00,VWS V14.01,2013-01-25 02:38:00,
2013-01-24 19:39:00,37.8,22.2,26.43,NNW,338,4.0,4.0,53,0.00,,---,0.00,VWS V14.01,2013-01-25 02:39:00,
2013-01-24 19:40:00,37.9,22.4,26.43,WNW,292,2.5,4.0,53,0.00,,---,0.00,VWS V14.01,2013-01-25 02:40:00,
2013-01-24 19:41:00,37.9,22.4,26.43,NNW,338,2.7,2.7,53,0.00,,---,0.00,VWS V14.01,2013-01-25 02:41:00,
2013-01-24 19:42:00,38.1,22.5,26.43,West,270,2.7,2.7,53,0.00,,---,0.00,VWS V14.01,2013-01-25 02:42:00,
2013-01-24 19:43:00,38.1,22.5,26.43,NNW,338,5.4,5.4,53,0.00,,---,0.00,VWS V14.01,2013-01-25 02:43:00,
2013-01-24 19:44:00,38.1,22.5,26.43,NW,315,6.0,6.0,53,0.00,,---,0.00,VWS V14.01,2013-01-25 02:44:00,
2013-01-24 19:45:00,38.1,22.5,26.43,NW,315,6.0,6.0,53,0.00,,---,0.00,VWS V14.01,2013-01-25 02:45:00,
2013-01-24 19:46:00,38.1,22.5,26.43,NNW,338,2.9,6.0,53,0.00,,---,0.00,VWS V14.01,2013-01-25 02:46:00,
2013-01-24 19:47:00,38.1,22.5,26.43,NE,45,2.7,2.9,53,0.00,,---,0.00,VWS V14.01,2013-01-25 02:47:00,
2013-01-24 19:48:00,38.1,22.5,26.43,NNW,338,2.0,2.7,53,0.00,,---,0.00,VWS V14.01,2013-01-25 02:48:00,
2013-01-24 19:49:00,38.1,22.5,26.43,NNE,22,2.9,2.9,53,0.00,,---,0.00,VWS V14.01,2013-01-25 02:49:00,
2013-01-24 19:50:00,38.1,22.5,26.43,NNW,338,3.6,3.6,53,0.00,,---,0.00,VWS V14.01,2013-01-25 02:50:00,
2013-01-24 19:51:00,37.9,22.4,26.43,North,0,3.1,3.6,53,0.00,,---,0.00,VWS V14.01,2013-01-25 02:51:00,
2013-01-24 19:52:00,37.9,22.4,26.43,NNW,338,1.6,3.1,53,0.00,,---,0.00,VWS V14.01,2013-01-25 02:52:00,
2013-01-24 19:53:00,37.9,22.4,26.43,NE,45,3.1,3.1,53,0.00,,---,0.00,VWS V14.01,2013-01-25 02:53:00,
2013-01-24 19:54:00,37.8,22.2,26.43,NW,315,3.1,3.1,53,0.00,,---,0.00,VWS V14.01,2013-01-25 02:54:00,
2013-01-24 19:55:00,37.8,22.2,26.43,NNW,338,3.4,3.4,53,0.00,,---,0.00,VWS V14.01,2013-01-25 02:55:00,
2013-01-24 19:56:00,37.8,22.2,26.43,North,0,2.9,3.4,53,0.00,,---,0.00,VWS V14.01,2013-01-25 02:56:00,
2013-01-24 19:57:00,37.8,22.2,26.43,WNW,292,3.4,3.4,53,0.00,,---,0.00,VWS V14.01,2013-01-25 02:57:00,
2013-01-24 19:58:00,37.8,22.2,26.43,NNE,22,3.8,3.8,53,0.00,,---,0.00,VWS V14.01,2013-01-25 02:58:00,
2013-01-24 19:59:00,37.8,22.6,26.43,NW,315,3.6,3.8,54,0.00,,---,0.00,VWS V14.01,2013-01-25 02:59:00,
2013-01-24 20:00:00,37.6,22.5,26.43,NW,315,3.6,3.6,54,0.00,,---,0.00,VWS V14.01,2013-01-25 03:00:00,
2013-01-24 20:01:00,37.6,22.5,26.43,NNW,338,4.3,4.3,54,0.00,,---,0.00,VWS V14.01,2013-01-25 03:01:00,
2013-01-24 20:02:00,37.8,22.6,26.43,NW,315,2.7,4.3,54,0.00,,---,0.00,VWS V14.01,2013-01-25 03:02:00,
2013-01-24 20:03:00,37.8,22.6,26.46,WNW,292,3.4,3.4,54,0.00,,---,0.00,VWS V14.01,2013-01-25 03:03:00,
2013-01-24 20:04:00,37.8,22.6,26.46,NNW,338,3.4,3.4,54,0.00,,---,0.00,VWS V14.01,2013-01-25 03:04:00,
2013-01-24 20:05:00,35.4,20.9,26.49,NW,315,0.0,3.4,55,0.00,,---,0.00,VWS V14.01,2013-01-25 03:05:00,
2013-01-24 20:06:00,37.6,22.5,26.46,North,0,2.9,3.4,54,0.00,,---,0.00,VWS V14.01,2013-01-25 03:06:00,
2013-01-24 20:07:00,37.6,22.5,26.46,North,0,2.9,2.9,54,0.00,,---,0.00,VWS V14.01,2013-01-25 03:07:00,
2013-01-24 20:08:00,37.6,22.5,26.46,NNW,338,2.5,2.9,54,0.00,,---,0.00,VWS V14.01,2013-01-25 03:08:00,
2013-01-24 20:09:00,37.6,22.5,26.46,NW,315,3.4,3.4,54,0.00,,---,0.00,VWS V14.01,2013-01-25 03:09:00,
2013-01-24 20:10:00,37.6,22.5,26.46,NW,315,4.0,4.0,54,0.00,,---,0.00,VWS V14.01,2013-01-25 03:10:00,
2013-01-24 20:11:00,37.6,22.5,26.46,NW,315,3.4,4.0,54,0.00,,---,0.00,VWS V14.01,2013-01-25 03:11:00,
2013-01-24 20:12:00,37.6,22.5,26.46,NNW,338,3.4,3.4,54,0.00,,---,0.00,VWS V14.01,2013-01-25 03:12:00,
2013-01-24 20:13:00,37.6,22.5,26.46,NW,315,2.2,3.4,54,0.00,,---,0.00,VWS V14.01,2013-01-25 03:13:00,
2013-01-24 20:14:00,37.6,22.5,26.46,NW,315,2.5,2.5,54,0.00,,---,0.00,VWS V14.01,2013-01-25 03:14:00,
2013-01-24 20:15:00,37.4,22.3,26.46,NW,315,1.3,2.5,54,0.00,,---,0.00,VWS V14.01,2013-01-25 03:15:00,
2013-01-24 20:16:00,37.4,22.3,26.46,NW,315,1.3,1.3,54,0.00,,---,0.00,VWS V14.01,2013-01-25 03:16:00,
2013-01-24 20:17:00,37.4,22.3,26.46,NNW,338,3.6,3.6,54,0.00,,---,0.00,VWS V14.01,2013-01-25 03:17:00,
2013-01-24 20:18:00,37.4,22.3,26.46,NNW,338,2.5,3.6,54,0.00,,---,0.00,VWS V14.01,2013-01-25 03:18:00,
2013-01-24 20:19:00,37.4,22.3,26.46,NNW,338,2.5,2.5,54,0.00,,---,0.00,VWS V14.01,2013-01-25 03:19:00,
2013-01-24 20:20:00,37.4,22.3,26.46,NW,315,3.1,3.1,54,0.00,,---,0.00,VWS V14.01,2013-01-25 03:20:00,
2013-01-24 20:21:00,37.4,22.3,26.46,NNW,338,3.4,3.4,54,0.00,,---,0.00,VWS V14.01,2013-01-25 03:21:00,
2013-01-24 20:22:00,34.3,20.3,26.49,WNW,292,0.0,1.3,56,0.00,,---,0.00,VWS V14.01,2013-01-25 03:22:00,
2013-01-24 20:23:00,37.2,22.1,26.46,NW,315,1.3,3.4,54,0.00,,---,0.00,VWS V14.01,2013-01-25 03:23:00,
2013-01-24 20:24:00,37.0,22.0,26.46,NW,315,1.3,1.3,54,0.00,,---,0.00,VWS V14.01,2013-01-25 03:24:00,
2013-01-24 20:25:00,36.9,21.8,26.46,NW,315,0.0,1.3,54,0.00,,---,0.00,VWS V14.01,2013-01-25 03:25:00,
2013-01-24 20:26:00,36.7,21.6,26.46,NW,315,0.0,0.0,54,0.00,,---,0.00,VWS V14.01,2013-01-25 03:26:00,
2013-01-24 20:27:00,36.7,21.6,26.46,NE,45,3.1,3.1,54,0.00,,---,0.00,VWS V14.01,2013-01-25 03:27:00,
2013-01-24 20:28:00,36.7,21.6,26.46,NE,45,3.1,3.1,54,0.00,,---,0.00,VWS V14.01,2013-01-25 03:28:00,
2013-01-24 20:29:00,36.7,21.6,26.46,NW,315,4.0,4.0,54,0.00,,---,0.00,VWS V14.01,2013-01-25 03:29:00,
2013-01-24 20:30:00,36.9,22.2,26.46,NNW,338,2.7,4.0,55,0.00,,---,0.00,VWS V14.01,2013-01-25 03:30:00,
2013-01-24 20:31:00,36.9,22.2,26.46,NNW,338,2.5,2.7,55,0.00,,---,0.00,VWS V14.01,2013-01-25 03:31:00,
2013-01-24 20:32:00,36.9,22.2,26.46,NNW,338,2.7,2.7,55,0.00,,---,0.00,VWS V14.01,2013-01-25 03:32:00,
2013-01-24 20:33:00,36.9,22.2,26.46,NNW,338,2.9,2.9,55,0.00,,---,0.00,VWS V14.01,2013-01-25 03:33:00,
2013-01-24 20:34:00,36.9,22.2,26.46,WNW,292,3.8,3.8,55,0.00,,---,0.00,VWS V14.01,2013-01-25 03:34:00,
2013-01-24 20:35:00,36.9,22.2,26.46,WNW,292,5.6,5.6,55,0.00,,---,0.00,VWS V14.01,2013-01-25 03:35:00,
2013-01-24 20:36:00,36.9,22.2,26.46,NW,315,1.3,5.6,55,0.00,,---,0.00,VWS V14.01,2013-01-25 03:36:00,
2013-01-24 20:37:00,36.9,22.2,26.46,WNW,292,4.0,4.0,55,0.00,,---,0.00,VWS V14.01,2013-01-25 03:37:00,
2013-01-24 20:38:00,36.9,22.2,26.46,WNW,292,4.0,4.0,55,0.00,,---,0.00,VWS V14.01,2013-01-25 03:38:00,
2013-01-24 20:39:00,36.9,22.2,26.46,NNW,338,2.7,4.0,55,0.00,,---,0.00,VWS V14.01,2013-01-25 03:39:00,
2013-01-24 20:40:00,36.9,22.2,26.46,NNW,338,3.4,3.4,55,0.00,,---,0.00,VWS V14.01,2013-01-25 03:40:00,
2013-01-24 20:41:00,36.9,22.2,26.46,NNW,338,3.4,3.4,55,0.00,,---,0.00,VWS V14.01,2013-01-25 03:41:00,
2013-01-24 20:42:00,36.9,22.2,26.46,NW,315,3.8,3.8,55,0.00,,---,0.00,VWS V14.01,2013-01-25 03:42:00,
2013-01-24 20:43:00,36.7,22.0,26.46,NW,315,3.8,3.8,55,0.00,,---,0.00,VWS V14.01,2013-01-25 03:43:00,
2013-01-24 20:44:00,36.7,22.0,26.46,NW,315,3.6,3.8,55,0.00,,---,0.00,VWS V14.01,2013-01-25 03:44:00,
2013-01-24 20:45:00,36.7,22.0,26.46,NW,315,3.1,3.6,55,0.00,,---,0.00,VWS V14.01,2013-01-25 03:45:00,
2013-01-24 20:46:00,36.7,22.0,26.46,NW,315,3.1,3.1,55,0.00,,---,0.00,VWS V14.01,2013-01-25 03:46:00,
2013-01-24 20:47:00,36.7,22.0,26.46,NW,315,3.1,3.1,55,0.00,,---,0.00,VWS V14.01,2013-01-25 03:47:00,
2013-01-24 20:48:00,36.7,22.0,26.49,NW,315,3.1,3.1,55,0.00,,---,0.00,VWS V14.01,2013-01-25 03:48:00,
2013-01-24 20:49:00,36.5,21.9,26.49,NW,315,3.1,3.1,55,0.00,,---,0.00,VWS V14.01,2013-01-25 03:49:00,
2013-01-24 20:50:00,36.5,21.9,26.49,NW,315,3.4,3.4,55,0.00,,---,0.00,VWS V14.01,2013-01-25 03:50:00,
2013-01-24 20:51:00,36.3,21.7,26.49,NW,315,3.4,3.4,55,0.00,,---,0.00,VWS V14.01,2013-01-25 03:51:00,
2013-01-24 20:52:00,36.3,21.7,26.49,NW,315,2.5,3.4,55,0.00,,---,0.00,VWS V14.01,2013-01-25 03:52:00,
2013-01-24 20:53:00,36.3,21.7,26.49,WNW,292,2.5,2.5,55,0.00,,---,0.00,VWS V14.01,2013-01-25 03:53:00,
2013-01-24 20:54:00,36.3,21.7,26.49,WNW,292,2.5,2.5,55,0.00,,---,0.00,VWS V14.01,2013-01-25 03:54:00,
2013-01-24 20:55:00,36.0,21.4,26.49,WNW,292,2.5,2.5,55,0.00,,---,0.00,VWS V14.01,2013-01-25 03:55:00,
2013-01-24 20:56:00,36.0,21.4,26.49,NW,315,2.7,2.7,55,0.00,,---,0.00,VWS V14.01,2013-01-25 03:56:00,
2013-01-24 20:57:00,35.8,21.2,26.49,NW,315,1.1,2.7,55,0.00,,---,0.00,VWS V14.01,2013-01-25 03:57:00,
2013-01-24 20:58:00,35.8,21.2,26.49,NNW,338,3.1,3.1,55,0.00,,---,0.00,VWS V14.01,2013-01-25 03:58:00,
2013-01-24 20:59:00,35.8,21.2,26.49,NNW,338,2.0,3.1,55,0.00,,---,0.00,VWS V14.01,2013-01-25 03:59:00,
2013-01-24 21:00:00,35.8,21.2,26.49,NNW,338,2.0,2.0,55,0.00,,---,0.00,VWS V14.01,2013-01-25 04:00:00,
2013-01-24 21:01:00,35.8,21.2,26.49,NNW,338,2.0,2.0,55,0.00,,---,0.00,VWS V14.01,2013-01-25 04:01:00,
2013-01-24 21:02:00,35.6,21.0,26.49,NNW,338,3.4,3.4,55,0.00,,---,0.00,VWS V14.01,2013-01-25 04:02:00,
2013-01-24 21:03:00,35.6,21.0,26.49,NNW,338,3.4,3.4,55,0.00,,---,0.00,VWS V14.01,2013-01-25 04:03:00,
2013-01-24 21:04:00,35.4,20.9,26.49,NNW,338,3.4,3.4,55,0.00,,---,0.00,VWS V14.01,2013-01-25 04:04:00,
2013-01-24 21:05:00,35.4,20.9,26.49,NW,315,0.0,3.4,55,0.00,,---,0.00,VWS V14.01,2013-01-25 04:05:00,
2013-01-24 21:06:00,35.2,20.7,26.49,NW,315,0.0,0.0,55,0.00,,---,0.00,VWS V14.01,2013-01-25 04:06:00,
2013-01-24 21:07:00,35.2,20.7,26.49,NW,315,1.1,1.1,55,0.00,,---,0.00,VWS V14.01,2013-01-25 04:07:00,
2013-01-24 21:08:00,35.1,20.5,26.49,NW,315,1.1,1.1,55,0.00,,---,0.00,VWS V14.01,2013-01-25 04:08:00,
2013-01-24 21:09:00,34.9,20.4,26.49,NW,315,2.2,2.2,55,0.00,,---,0.00,VWS V14.01,2013-01-25 04:09:00,
2013-01-24 21:10:00,34.9,20.8,26.49,NW,315,2.5,2.5,56,0.00,,---,0.00,VWS V14.01,2013-01-25 04:10:00,
2013-01-24 21:11:00,34.9,20.8,26.49,North,0,2.0,2.5,56,0.00,,---,0.00,VWS V14.01,2013-01-25 04:11:00,
2013-01-24 21:12:00,34.7,20.6,26.49,NNW,338,2.2,2.2,56,0.00,,---,0.00,VWS V14.01,2013-01-25 04:12:00,
2013-01-24 21:13:00,34.7,20.6,26.49,NW,315,3.6,3.6,56,0.00,,---,0.00,VWS V14.01,2013-01-25 04:13:00,
2013-01-24 21:14:00,34.5,20.5,26.49,NW,315,1.1,3.6,56,0.00,,---,0.00,VWS V14.01,2013-01-25 04:14:00,
2013-01-24 21:15:00,34.5,20.5,26.49,North,0,2.7,2.7,56,0.00,,---,0.00,VWS V14.01,2013-01-25 04:15:00,
2013-01-24 21:16:00,34.5,20.5,26.49,NW,315,2.7,2.7,56,0.00,,---,0.00,VWS V14.01,2013-01-25 04:16:00,
2013-01-24 21:17:00,34.7,20.6,26.49,NNW,338,2.7,2.7,56,0.00,,---,0.00,VWS V14.01,2013-01-25 04:17:00,
2013-01-24 21:18:00,34.7,20.6,26.49,NNW,338,0.9,2.7,56,0.00,,---,0.00,VWS V14.01,2013-01-25 04:18:00,
2013-01-24 21:19:00,34.5,20.5,26.49,WNW,292,0.9,0.9,56,0.00,,---,0.00,VWS V14.01,2013-01-25 04:19:00,
2013-01-24 21:20:00,34.5,20.5,26.49,WNW,292,0.0,0.9,56,0.00,,---,0.00,VWS V14.01,2013-01-25 04:20:00,
2013-01-24 21:21:00,34.5,20.5,26.49,WNW,292,1.3,1.3,56,0.00,,---,0.00,VWS V14.01,2013-01-25 04:21:00,
2013-01-24 21:22:00,34.3,20.3,26.49,WNW,292,0.0,1.3,56,0.00,,---,0.00,VWS V14.01,2013-01-25 04:22:00,
2013-01-24 21:23:00,34.3,20.3,26.49,WNW,292,0.0,0.0,56,0.00,,---,0.00,VWS V14.01,2013-01-25 04:23:00,
2013-01-24 21:24:00,34.2,20.1,26.49,WNW,292,0.0,0.0,56,0.00,,---,0.00,VWS V14.01,2013-01-25 04:24:00,
2013-01-24 21:25:00,33.8,19.8,26.49,WNW,292,0.0,0.0,56,0.00,,---,0.00,VWS V14.01,2013-01-25 04:25:00,
2013-01-24 21:26:00,33.8,19.8,26.49,NW,315,0.9,0.9,56,0.00,,---,0.00,VWS V14.01,2013-01-25 04:26:00,
2013-01-24 21:27:00,33.6,19.6,26.49,NW,315,0.0,0.9,56,0.00,,---,0.00,VWS V14.01,2013-01-25 04:27:00,
2013-01-24 21:28:00,33.6,19.6,26.49,NW,315,0.0,0.0,56,0.00,,---,0.00,VWS V14.01,2013-01-25 04:28:00,
2013-01-24 21:29:00,33.4,19.9,26.49,NW,315,0.0,0.0,57,0.00,,---,0.00,VWS V14.01,2013-01-25 04:29:00,
2013-01-24 21:30:00,33.3,19.3,26.49,NW,315,0.0,0.0,56,0.00,,---,0.00,VWS V14.01,2013-01-25 04:30:00,
2013-01-24 21:31:00,33.1,19.1,26.49,NW,315,0.0,0.0,56,0.00,,---,0.00,VWS V14.01,2013-01-25 04:31:00,
2013-01-24 21:32:00,33.1,19.1,26.49,NW,315,0.0,0.0,56,0.00,,---,0.00,VWS V14.01,2013-01-25 04:32:00,
2013-01-24 21:33:00,32.7,19.2,26.49,NW,315,0.0,0.0,57,0.00,,---,0.00,VWS V14.01,2013-01-25 04:33:00,
2013-01-24 21:34:00,32.7,19.2,26.49,NW,315,0.0,0.0,57,0.00,,---,0.00,VWS V14.01,2013-01-25 04:34:00,
2013-01-24 21:35:00,32.7,19.2,26.49,WNW,292,0.0,0.0,57,0.00,,---,0.00,VWS V14.01,2013-01-25 04:35:00,
2013-01-24 21:36:00,32.7,19.2,26.49,NW,315,0.0,0.0,57,0.00,,---,0.00,VWS V14.01,2013-01-25 04:36:00,
2013-01-24 21:37:00,32.7,19.2,26.49,WNW,292,0.0,0.0,57,0.00,,---,0.00,VWS V14.01,2013-01-25 04:37:00,
2013-01-24 21:38:00,32.7,19.2,26.49,WNW,292,0.0,0.0,57,0.00,,---,0.00,VWS V14.01,2013-01-25 04:38:00,
2013-01-24 21:39:00,32.9,19.4,26.49,SE,135,0.0,0.0,57,0.00,,---,0.00,VWS V14.01,2013-01-25 04:39:00,
2013-01-24 21:40:00,33.1,19.5,26.49,WNW,292,2.5,2.5,57,0.00,,---,0.00,VWS V14.01,2013-01-25 04:40:00,
2013-01-24 21:41:00,33.1,19.5,26.49,WSW,248,0.0,2.5,57,0.00,,---,0.00,VWS V14.01,2013-01-25 04:41:00,
2013-01-24 21:42:00,33.1,19.5,26.49,West,270,0.0,0.0,57,0.00,,---,0.00,VWS V14.01,2013-01-25 04:42:00,
2013-01-24 21:43:00,33.1,19.5,26.49,West,270,0.0,0.0,57,0.00,,---,0.00,VWS V14.01,2013-01-25 04:43:00,
2013-01-24 21:44:00,33.1,19.5,26.49,West,270,0.0,0.0,57,0.00,,---,0.00,VWS V14.01,2013-01-25 04:44:00,
2013-01-24 21:45:00,33.1,19.5,26.49,SW,225,1.1,1.1,57,0.00,,---,0.00,VWS V14.01,2013-01-25 04:45:00,
2013-01-24 21:46:00,33.1,19.9,26.49,SW,225,0.9,1.1,58,0.00,,---,0.00,VWS V14.01,2013-01-25 04:46:00,
2013-01-24 21:47:00,33.1,19.9,26.49,SW,225,0.0,0.9,58,0.00,,---,0.00,VWS V14.01,2013-01-25 04:47:00,
2013-01-24 21:48:00,33.1,19.9,26.49,West,270,0.0,0.0,58,0.00,,---,0.00,VWS V14.01,2013-01-25 04:48:00,
2013-01-24 21:49:00,33.1,19.9,26.49,WNW,292,0.0,0.0,58,0.00,,---,0.00,VWS V14.01,2013-01-25 04:49:00,
2013-01-24 21:50:00,32.9,19.8,26.49,WNW,292,0.0,0.0,58,0.00,,---,0.00,VWS V14.01,2013-01-25 04:50:00,
2013-01-24 21:51:00,32.9,19.8,26.49,WNW,292,0.0,0.0,58,0.00,,---,0.00,VWS V14.01,2013-01-25 04:51:00,
2013-01-24 21:52:00,32.9,19.8,26.49,SW,225,0.0,0.0,58,0.00,,---,0.00,VWS V14.01,2013-01-25 04:52:00,
2013-01-24 21:53:00,32.9,19.8,26.49,WSW,248,2.0,2.0,58,0.00,,---,0.00,VWS V14.01,2013-01-25 04:53:00,
2013-01-24 21:54:00,32.9,19.8,26.49,West,270,1.1,2.0,58,0.00,,---,0.00,VWS V14.01,2013-01-25 04:54:00,
2013-01-24 21:55:00,32.7,19.6,26.49,West,270,0.0,1.1,58,0.00,,---,0.00,VWS V14.01,2013-01-25 04:55:00,
2013-01-24 21:56:00,32.7,19.6,26.49,SW,225,0.0,0.0,58,0.00,,---,0.00,VWS V14.01,2013-01-25 04:56:00,
2013-01-24 21:57:00,32.7,19.6,26.49,SW,225,0.0,0.0,58,0.00,,---,0.00,VWS V14.01,2013-01-25 04:57:00,
2013-01-24 21:58:00,32.7,19.6,26.49,WSW,248,0.0,0.0,58,0.00,,---,0.00,VWS V14.01,2013-01-25 04:58:00,
2013-01-24 21:59:00,32.7,19.6,26.49,WSW,248,0.0,0.0,58,0.00,,---,0.00,VWS V14.01,2013-01-25 04:59:00,
2013-01-24 22:00:00,32.7,19.6,26.49,WSW,248,1.3,1.3,58,0.00,,---,0.00,VWS V14.01,2013-01-25 05:00:00,
2013-01-24 22:01:00,32.7,19.6,26.49,West,270,0.0,1.3,58,0.00,,---,0.00,VWS V14.01,2013-01-25 05:01:00,
2013-01-24 22:02:00,32.7,19.6,26.49,West,270,0.0,0.0,58,0.00,,---,0.00,VWS V14.01,2013-01-25 05:02:00,
2013-01-24 22:03:00,32.7,19.6,26.49,WNW,292,1.3,1.3,58,0.00,,---,0.00,VWS V14.01,2013-01-25 05:03:00,
2013-01-24 22:04:00,32.9,20.2,26.49,West,270,1.6,1.6,59,0.00,,---,0.00,VWS V14.01,2013-01-25 05:04:00,
2013-01-24 22:05:00,32.9,20.2,26.49,West,270,0.0,1.6,59,0.00,,---,0.00,VWS V14.01,2013-01-25 05:05:00,
2013-01-24 22:06:00,32.9,20.2,26.49,West,270,0.0,0.0,59,0.00,,---,0.00,VWS V14.01,2013-01-25 05:06:00,
2013-01-24 22:07:00,32.9,20.2,26.49,WSW,248,0.0,0.0,59,0.00,,---,0.00,VWS V14.01,2013-01-25 05:07:00,
2013-01-24 22:08:00,32.9,20.2,26.49,WNW,292,2.0,2.0,59,0.00,,---,0.00,VWS V14.01,2013-01-25 05:08:00,
2013-01-24 22:09:00,32.9,20.2,26.49,WNW,292,0.9,2.0,59,0.00,,---,0.00,VWS V14.01,2013-01-25 05:09:00,
2013-01-24 22:10:00,33.1,20.3,26.49,West,270,1.6,1.6,59,0.00,,---,0.00,VWS V14.01,2013-01-25 05:10:00,
2013-01-24 22:11:00,32.9,20.2,26.49,West,270,0.0,1.6,59,0.00,,---,0.00,VWS V14.01,2013-01-25 05:11:00,
2013-01-24 22:12:00,32.9,20.2,26.49,West,270,0.0,0.0,59,0.00,,---,0.00,VWS V14.01,2013-01-25 05:12:00,
2013-01-24 22:13:00,32.9,20.2,26.49,West,270,0.0,0.0,59,0.00,,---,0.00,VWS V14.01,2013-01-25 05:13:00,
2013-01-24 22:14:00,32.7,20.0,26.49,West,270,0.0,0.0,59,0.00,,---,0.00,VWS V14.01,2013-01-25 05:14:00,
2013-01-24 22:15:00,32.7,20.0,26.49,West,270,0.0,0.0,59,0.00,,---,0.00,VWS V14.01,2013-01-25 05:15:00,
2013-01-24 22:16:00,32.7,20.0,26.49,West,270,0.0,0.0,59,0.00,,---,0.00,VWS V14.01,2013-01-25 05:16:00,
2013-01-24 22:17:00,32.7,20.0,26.49,West,270,1.3,1.3,59,0.00,,---,0.00,VWS V14.01,2013-01-25 05:17:00,
2013-01-24 22:18:00,32.9,20.2,26.49,South,180,1.1,1.3,59,0.00,,---,0.00,VWS V14.01,2013-01-25 05:18:00,
2013-01-24 22:19:00,32.9,20.2,26.49,South,180,1.1,1.1,59,0.00,,---,0.00,VWS V14.01,2013-01-25 05:19:00,
2013-01-24 22:20:00,32.9,20.2,26.49,South,180,0.0,1.1,59,0.00,,---,0.00,VWS V14.01,2013-01-25 05:20:00,
2013-01-24 22:21:00,32.9,20.2,26.49,SW,225,0.0,0.0,59,0.00,,---,0.00,VWS V14.01,2013-01-25 05:21:00,
2013-01-24 22:22:00,33.1,20.3,26.49,WNW,292,1.1,1.1,59,0.00,,---,0.00,VWS V14.01,2013-01-25 05:22:00,
2013-01-24 22:23:00,33.1,20.3,26.49,West,270,0.9,1.1,59,0.00,,---,0.00,VWS V14.01,2013-01-25 05:23:00,
2013-01-24 22:24:00,33.3,20.5,26.49,South,180,2.2,2.2,59,0.00,,---,0.00,VWS V14.01,2013-01-25 05:24:00,
2013-01-24 22:25:00,33.3,20.1,26.52,West,270,0.9,1.3,58,0.00,,---,0.00,VWS V14.01,2013-01-25 05:25:00,
2013-01-24 22:26:00,33.4,20.7,26.49,WSW,248,3.1,3.1,59,0.00,,---,0.00,VWS V14.01,2013-01-25 05:26:00,
2013-01-24 22:27:00,33.6,20.8,26.49,West,270,0.0,3.1,59,0.00,,---,0.00,VWS V14.01,2013-01-25 05:27:00,
2013-01-24 22:28:00,33.6,20.8,26.49,WNW,292,3.1,3.1,59,0.00,,---,0.00,VWS V14.01,2013-01-25 05:28:00,
2013-01-24 22:29:00,33.8,21.0,26.49,SW,225,2.5,3.1,59,0.00,,---,0.00,VWS V14.01,2013-01-25 05:29:00,
2013-01-24 22:30:00,33.8,21.0,26.49,South,180,0.0,2.5,59,0.00,,---,0.00,VWS V14.01,2013-01-25 05:30:00,
2013-01-24 22:31:00,33.8,21.0,26.49,WSW,248,0.0,0.0,59,0.00,,---,0.00,VWS V14.01,2013-01-25 05:31:00,
2013-01-24 22:32:00,33.8,20.6,26.49,WSW,248,1.1,1.1,58,0.00,,---,0.00,VWS V14.01,2013-01-25 05:32:00,
2013-01-24 22:33:00,34.0,20.8,26.49,WSW,248,1.1,1.1,58,0.00,,---,0.00,VWS V14.01,2013-01-25 05:33:00,
2013-01-24 22:34:00,34.2,20.9,26.49,WSW,248,2.5,2.5,58,0.00,,---,0.00,VWS V14.01,2013-01-25 05:34:00,
2013-01-24 22:35:00,34.2,20.9,26.49,WNW,292,2.9,2.9,58,0.00,,---,0.00,VWS V14.01,2013-01-25 05:35:00,
2013-01-24 22:36:00,34.3,21.1,26.49,West,270,1.1,2.9,58,0.00,,---,0.00,VWS V14.01,2013-01-25 05:36:00,
2013-01-24 22:37:00,34.3,21.1,26.49,WSW,248,2.7,2.7,58,0.00,,---,0.00,VWS V14.01,2013-01-25 05:37:00,
2013-01-24 22:38:00,34.5,21.3,26.49,West,270,2.0,2.7,58,0.00,,---,0.00,VWS V14.01,2013-01-25 05:38:00,
2013-01-24 22:39:00,34.5,21.3,26.49,WSW,248,2.7,2.7,58,0.00,,---,0.00,VWS V14.01,2013-01-25 05:39:00,
2013-01-24 22:40:00,34.5,21.3,26.49,NW,315,1.6,2.7,58,0.00,,---,0.00,VWS V14.01,2013-01-25 05:40:00,
2013-01-24 22:41:00,34.7,21.5,26.49,ENE,68,1.3,1.6,58,0.00,,---,0.00,VWS V14.01,2013-01-25 05:41:00,
2013-01-24 22:42:00,34.7,21.5,26.49,WSW,248,2.2,2.2,58,0.00,,---,0.00,VWS V14.01,2013-01-25 05:42:00,
2013-01-24 22:43:00,34.7,21.5,26.49,SW,225,3.1,3.1,58,0.00,,---,0.00,VWS V14.01,2013-01-25 05:43:00,
2013-01-24 22:44:00,34.7,21.5,26.49,WNW,292,2.5,3.1,58,0.00,,---,0.00,VWS V14.01,2013-01-25 05:44:00,
2013-01-24 22:45:00,34.7,21.5,26.49,WSW,248,3.1,3.1,58,0.00,,---,0.00,VWS V14.01,2013-01-25 05:45:00,
2013-01-24 22:46:00,34.9,21.2,26.49,WSW,248,2.2,3.1,57,0.00,,---,0.00,VWS V14.01,2013-01-25 05:46:00,
2013-01-24 22:47:00,34.9,21.2,26.49,WSW,248,0.0,2.2,57,0.00,,---,0.00,VWS V14.01,2013-01-25 05:47:00,
2013-01-24 22:48:00,34.7,21.0,26.49,SW,225,2.2,2.2,57,0.00,,---,0.00,VWS V14.01,2013-01-25 05:48:00,
2013-01-24 22:49:00,32.0,18.9,26.52,WSW,248,0.0,0.0,58,0.00,,---,0.00,VWS V14.01,2013-01-25 05:49:00,
2013-01-24 22:50:00,34.5,20.9,26.49,West,270,0.9,2.2,57,0.00,,---,0.00,VWS V14.01,2013-01-25 05:50:00,
2013-01-24 22:51:00,34.5,20.9,26.49,WSW,248,1.1,1.1,57,0.00,,---,0.00,VWS V14.01,2013-01-25 05:51:00,
2013-01-24 22:52:00,34.5,20.9,26.49,SW,225,0.0,1.1,57,0.00,,---,0.00,VWS V14.01,2013-01-25 05:52:00,
2013-01-24 22:53:00,34.5,20.9,26.49,West,270,1.1,1.1,57,0.00,,---,0.00,VWS V14.01,2013-01-25 05:53:00,
2013-01-24 22:54:00,34.3,20.7,26.49,West,270,1.3,1.3,57,0.00,,---,0.00,VWS V14.01,2013-01-25 05:54:00,
2013-01-24 22:55:00,34.3,20.7,26.49,West,270,2.5,2.5,57,0.00,,---,0.00,VWS V14.01,2013-01-25 05:55:00,
2013-01-24 22:56:00,34.3,20.7,26.49,SW,225,2.9,2.9,57,0.00,,---,0.00,VWS V14.01,2013-01-25 05:56:00,
2013-01-24 22:57:00,34.3,20.7,26.49,WSW,248,3.1,3.1,57,0.00,,---,0.00,VWS V14.01,2013-01-25 05:57:00,
2013-01-24 22:58:00,34.3,20.7,26.49,WSW,248,2.2,3.1,57,0.00,,---,0.00,VWS V14.01,2013-01-25 05:58:00,
2013-01-24 22:59:00,34.3,20.7,26.49,South,180,2.2,2.2,57,0.00,,---,0.00,VWS V14.01,2013-01-25 05:59:00,
2013-01-24 23:00:00,34.2,20.5,26.49,West,270,0.0,2.2,57,0.00,,---,0.00,VWS V14.01,2013-01-25 06:00:00,
2013-01-24 23:01:00,34.2,20.5,26.49,WSW,248,1.6,1.6,57,0.00,,---,0.00,VWS V14.01,2013-01-25 06:01:00,
2013-01-24 23:02:00,34.2,20.5,26.49,West,270,2.0,2.0,57,0.00,,---,0.00,VWS V14.01,2013-01-25 06:02:00,
2013-01-24 23:03:00,34.2,20.5,26.49,WSW,248,0.9,2.0,57,0.00,,---,0.00,VWS V14.01,2013-01-25 06:03:00,
2013-01-24 23:04:00,34.0,20.4,26.49,WNW,292,0.0,0.9,57,0.00,,---,0.00,VWS V14.01,2013-01-25 06:04:00,
2013-01-24 23:05:00,34.0,20.4,26.49,WNW,292,0.0,0.0,57,0.00,,---,0.00,VWS V14.01,2013-01-25 06:05:00,
2013-01-24 23:06:00,34.0,20.4,26.49,WNW,292,0.0,0.0,57,0.00,,---,0.00,VWS V14.01,2013-01-25 06:06:00,
2013-01-24 23:07:00,34.0,20.4,26.49,NW,315,0.0,0.0,57,0.00,,---,0.00,VWS V14.01,2013-01-25 06:07:00,
2013-01-24 23:08:00,33.8,20.2,26.49,WNW,292,1.3,1.3,57,0.00,,---,0.00,VWS V14.01,2013-01-25 06:08:00,
2013-01-24 23:09:00,33.8,20.2,26.49,NW,315,1.3,1.3,57,0.00,,---,0.00,VWS V14.01,2013-01-25 06:09:00,
2013-01-24 23:10:00,33.4,20.3,26.49,NW,315,3.6,3.6,58,0.00,,---,0.00,VWS V14.01,2013-01-25 06:10:00,
2013-01-24 23:11:00,33.8,20.2,26.49,WNW,292,0.0,1.3,57,0.00,,---,0.00,VWS V14.01,2013-01-25 06:11:00,
2013-01-24 23:12:00,33.8,20.2,26.49,WNW,292,0.0,0.0,57,0.00,,---,0.00,VWS V14.01,2013-01-25 06:12:00,
2013-01-24 23:13:00,33.6,20.0,26.49,WNW,292,0.0,0.0,57,0.00,,---,0.00,VWS V14.01,2013-01-25 06:13:00,
2013-01-24 23:14:00,33.6,20.0,26.49,WNW,292,0.0,0.0,57,0.00,,---,0.00,VWS V14.01,2013-01-25 06:14:00,
2013-01-24 23:15:00,33.4,19.9,26.49,WNW,292,0.0,0.0,57,0.00,,---,0.00,VWS V14.01,2013-01-25 06:15:00,
2013-01-24 23:16:00,33.4,19.9,26.49,WNW,292,0.0,0.0,57,0.00,,---,0.00,VWS V14.01,2013-01-25 06:16:00,
2013-01-24 23:17:00,33.4,19.9,26.49,WNW,292,0.0,0.0,57,0.00,,---,0.00,VWS V14.01,2013-01-25 06:17:00,
2013-01-24 23:18:00,33.4,19.9,26.52,NNW,338,2.5,2.5,57,0.00,,---,0.00,VWS V14.01,2013-01-25 06:18:00,
2013-01-24 23:19:00,33.4,19.9,26.52,NW,315,0.0,2.5,57,0.00,,---,0.00,VWS V14.01,2013-01-25 06:19:00,
2013-01-24 23:20:00,33.4,19.9,26.52,NW,315,0.0,0.0,57,0.00,,---,0.00,VWS V14.01,2013-01-25 06:20:00,
2013-01-24 23:21:00,33.4,19.9,26.52,NW,315,0.9,0.9,57,0.00,,---,0.00,VWS V14.01,2013-01-25 06:21:00,
2013-01-24 23:22:00,33.3,19.7,26.52,NNW,338,0.0,0.9,57,0.00,,---,0.00,VWS V14.01,2013-01-25 06:22:00,
2013-01-24 23:23:00,33.3,19.7,26.52,NNW,338,1.3,1.3,57,0.00,,---,0.00,VWS V14.01,2013-01-25 06:23:00,
2013-01-24 23:24:00,33.3,19.7,26.52,NNW,338,1.3,1.3,57,0.00,,---,0.00,VWS V14.01,2013-01-25 06:24:00,
2013-01-24 23:25:00,33.3,20.1,26.52,West,270,0.9,1.3,58,0.00,,---,0.00,VWS V14.01,2013-01-25 06:25:00,
2013-01-24 23:26:00,33.3,20.1,26.52,West,270,2.0,2.0,58,0.00,,---,0.00,VWS V14.01,2013-01-25 06:26:00,
2013-01-24 23:27:00,33.3,20.1,26.52,NW,315,0.0,2.0,58,0.00,,---,0.00,VWS V14.01,2013-01-25 06:27:00,
2013-01-24 23:28:00,33.3,20.1,26.52,NW,315,0.0,0.0,58,0.00,,---,0.00,VWS V14.01,2013-01-25 06:28:00,
2013-01-24 23:29:00,33.3,19.7,26.52,NW,315,0.0,0.0,57,0.00,,---,0.00,VWS V14.01,2013-01-25 06:29:00,
2013-01-24 23:30:00,33.3,19.7,26.52,NW,315,0.0,0.0,57,0.00,,---,0.00,VWS V14.01,2013-01-25 06:30:00,
2013-01-24 23:31:00,33.3,19.7,26.52,NW,315,0.0,0.0,57,0.00,,---,0.00,VWS V14.01,2013-01-25 06:31:00,
2013-01-24 23:32:00,33.3,19.7,26.52,WSW,248,1.1,1.1,57,0.00,,---,0.00,VWS V14.01,2013-01-25 06:32:00,
2013-01-24 23:33:00,33.1,19.9,26.52,West,270,0.0,1.1,58,0.00,,---,0.00,VWS V14.01,2013-01-25 06:33:00,
2013-01-24 23:34:00,33.1,19.5,26.52,West,270,0.0,0.0,57,0.00,,---,0.00,VWS V14.01,2013-01-25 06:34:00,
2013-01-24 23:35:00,33.3,19.7,26.49,West,270,1.1,1.1,57,0.00,,---,0.00,VWS V14.01,2013-01-25 06:35:00,
2013-01-24 23:36:00,32.7,19.2,26.52,West,270,0.0,0.0,57,0.00,,---,0.00,VWS V14.01,2013-01-25 06:36:00,
2013-01-24 23:37:00,32.7,19.2,26.52,WSW,248,0.0,0.0,57,0.00,,---,0.00,VWS V14.01,2013-01-25 06:37:00,
2013-01-24 23:38:00,32.7,19.2,26.52,WSW,248,0.9,0.9,57,0.00,,---,0.00,VWS V14.01,2013-01-25 06:38:00,
2013-01-24 23:39:00,32.5,19.0,26.52,WSW,248,0.0,0.9,57,0.00,,---,0.00,VWS V14.01,2013-01-25 06:39:00,
2013-01-24 23:40:00,32.5,19.0,26.52,WSW,248,0.0,0.0,57,0.00,,---,0.00,VWS V14.01,2013-01-25 06:40:00,
2013-01-24 23:41:00,33.4,19.9,26.49,WSW,248,1.3,1.3,57,0.00,,---,0.00,VWS V14.01,2013-01-25 06:41:00,
2013-01-24 23:42:00,32.4,18.8,26.52,WSW,248,0.0,0.0,57,0.00,,---,0.00,VWS V14.01,2013-01-25 06:42:00,
2013-01-24 23:43:00,32.4,18.8,26.52,WSW,248,0.0,0.0,57,0.00,,---,0.00,VWS V14.01,2013-01-25 06:43:00,
2013-01-24 23:44:00,32.4,18.8,26.52,WSW,248,0.0,0.0,57,0.00,,---,0.00,VWS V14.01,2013-01-25 06:44:00,
2013-01-24 23:45:00,32.2,18.7,26.52,WSW,248,0.0,0.0,57,0.00,,---,0.00,VWS V14.01,2013-01-25 06:45:00,
2013-01-24 23:46:00,32.2,18.7,26.52,WSW,248,0.0,0.0,57,0.00,,---,0.00,VWS V14.01,2013-01-25 06:46:00,
2013-01-24 23:47:00,32.2,18.7,26.52,WSW,248,0.0,0.0,57,0.00,,---,0.00,VWS V14.01,2013-01-25 06:47:00,
2013-01-24 23:48:00,32.2,18.7,26.52,WSW,248,0.0,0.0,57,0.00,,---,0.00,VWS V14.01,2013-01-25 06:48:00,
2013-01-24 23:49:00,32.0,18.9,26.52,WSW,248,0.0,0.0,58,0.00,,---,0.00,VWS V14.01,2013-01-25 06:49:00,
2013-01-24 23:50:00,32.0,18.9,26.52,WSW,248,0.0,0.0,58,0.00,,---,0.00,VWS V14.01,2013-01-25 06:50:00,
2013-01-24 23:51:00,32.0,18.9,26.52,WSW,248,0.0,0.0,58,0.00,,---,0.00,VWS V14.01,2013-01-25 06:51:00,
2013-01-24 23:52:00,31.8,18.7,26.52,WSW,248,0.0,0.0,58,0.00,,---,0.00,VWS V14.01,2013-01-25 06:52:00,
2013-01-24 23:53:00,31.8,18.7,26.52,WSW,248,0.0,0.0,58,0.00,,---,0.00,VWS V14.01,2013-01-25 06:53:00,
2013-01-24 23:54:00,33.4,19.9,26.52,WSW,248,0.0,0.0,57,0.00,,---,0.00,VWS V14.01,2013-01-25 06:54:00,
2013-01-24 23:55:00,31.8,18.7,26.52,WSW,248,0.0,0.0,58,0.00,,---,0.00,VWS V14.01,2013-01-25 06:55:00,
2013-01-24 23:56:00,31.8,18.7,26.52,WSW,248,0.0,0.0,58,0.00,,---,0.00,VWS V14.01,2013-01-25 06:56:00,
2013-01-24 23:57:00,32.0,18.9,26.52,WSW,248,0.9,0.9,58,0.00,,---,0.00,VWS V14.01,2013-01-25 06:57:00,
2013-01-24 23:58:00,32.2,19.1,26.52,WSW,248,0.0,0.9,58,0.00,,---,0.00,VWS V14.01,2013-01-25 06:58:00,
2013-01-24 23:59:00,32.2,19.1,26.52,WNW,292,0.0,0.0,58,0.00,,---,0.00,VWS V14.01,2013-01-25 06:59:00,